[[{"header":{"parameterUnit":"m.s-1","parameterCategory":1,"la1":30.6,"la2":29.2853,"lo1":-89.7004,"lo2":-87.6739,"dy":0.0162,"dx":0.0183,"nx":112,"ny":82,"refTime":"2026-04-27T00:00:00:Z","depth":0,"parameterNumber":2,"parameterNumberName":"U-component_of_WINDS"},"data":[0.0,0.0,0.0,0.0,0.0,0.0,0.0,0.0,0.0,0.0,0.0,0.0,0.0,0.0,0.0,0.0,0.0,0.0,0.0,0.0,0.0,0.0,0.0,0.0,0.0,0.0,0.0,0.0,0.0,0.0,0.0,0.0,0.0,0.0,0.0,0.0,0.0,0.0,0.0,0.0,0.0,0.0,0.0,0.0,0.0,0.0,0.0,0.0,0.0,0.0,0.0,0.0,0.0,0.0,0.0,0.0,0.0,0.0,0.0,0.0,0.0,0.0,0.0,0.0,0.0,0.0,0.0,0.0,0.0,0.0,0.0,0.0,0.0,0.0,0.0,0.0,0.0,0.0,0.0,0.0,0.0,0.0,0.0,0.0,0.0,0.0,0.0,0.0,0.0,0.0,-2.05,-2.2214,-2.4319,-2.5602,-2.5602,-2.5468,-2.3856,-2.0237,0.0,0.0,0.0,0.0,0.0,0.0,0.0,0.0,0.0,0.0,0.0,0.0,0.0,0.0,0.0,0.0,0.0,0.0,0.0,0.0,0.0,0.0,0.0,0.0,0.0,0.0,0.0,0.0,0.0,0.0,0.0,0.0,0.0,0.0,0.0,0.0,0.0,0.0,0.0,0.0,0.0,0.0,0.0,0.0,0.0,0.0,0.0,0.0,0.0,0.0,0.0,0.0,0.0,0.0,0.0,0.0,0.0,0.0,0.0,0.0,0.0,0.0,0.0,0.0,0.0,0.0,0.0,0.0,0.0,0.0,0.0,0.0,0.0,0.0,0.0,0.0,0.0,0.0,0.0,0.0,0.0,0.0,0.0,0.0,0.0,0.0,0.0,0.0,0.0,0.0,0.0,0.0,0.0,0.0,0.0,0.0,0.0,0.0,0.0,0.0,0.0,0.0,0.0,0.0,-2.074,-2.4687,-2.5381,-2.5602,-2.5602,-2.5468,-2.3856,-2.0237,0.0,0.0,0.0,0.0,0.0,0.0,0.0,0.0,0.0,0.0,0.0,0.0,0.0,0.0,0.0,0.0,0.0,0.0,0.0,0.0,0.0,0.0,0.0,0.0,0.0,0.0,0.0,0.0,0.0,0.0,0.0,0.0,0.0,0.0,0.0,0.0,0.0,0.0,0.0,0.0,0.0,0.0,0.0,0.0,0.0,0.0,0.0,0.0,0.0,0.0,0.0,0.0,0.0,0.0,0.0,0.0,0.0,0.0,0.0,0.0,0.0,0.0,0.0,0.0,0.0,0.0,0.0,0.0,0.0,0.0,0.0,0.0,0.0,0.0,0.0,0.0,0.0,0.0,0.0,0.0,0.0,0.0,0.0,0.0,0.0,0.0,0.0,0.0,0.0,0.0,0.0,0.0,0.0,0.0,0.0,0.0,0.0,0.0,0.0,0.0,0.0,0.0,0.0,-2.0029,-2.1904,-2.5305,-2.5594,-2.5518,-2.5486,-2.5409,-2.3792,-2.0155,-1.8223,0.0,0.0,0.0,0.0,0.0,0.0,0.0,0.0,0.0,0.0,0.0,0.0,0.0,0.0,0.0,0.0,0.0,0.0,0.0,0.0,0.0,0.0,0.0,0.0,0.0,0.0,0.0,0.0,0.0,0.0,0.0,0.0,0.0,0.0,0.0,0.0,0.0,0.0,0.0,0.0,0.0,0.0,0.0,0.0,0.0,0.0,0.0,0.0,0.0,0.0,0.0,0.0,0.0,0.0,0.0,0.0,0.0,0.0,0.0,0.0,0.0,0.0,0.0,0.0,0.0,0.0,0.0,0.0,0.0,0.0,0.0,0.0,0.0,0.0,0.0,0.0,0.0,0.0,0.0,0.0,0.0,0.0,0.0,0.0,0.0,0.0,0.0,0.0,0.0,0.0,0.0,0.0,0.0,0.0,0.0,0.0,0.0,0.0,0.0,0.0,0.0,0.0,-2.2553,-2.3514,-2.5409,-2.5525,-2.5463,-2.542,-2.4962,-2.3314,-2.0082,-1.7497,0.0,0.0,0.0,0.0,0.0,0.0,0.0,0.0,0.0,0.0,0.0,0.0,0.0,0.0,0.0,0.0,0.0,0.0,0.0,0.0,0.0,0.0,0.0,0.0,0.0,0.0,0.0,0.0,0.0,0.0,0.0,0.0,0.0,0.0,0.0,0.0,0.0,0.0,0.0,0.0,0.0,0.0,0.0,0.0,0.0,0.0,0.0,0.0,0.0,0.0,0.0,0.0,0.0,0.0,0.0,0.0,0.0,0.0,0.0,0.0,0.0,0.0,0.0,0.0,0.0,0.0,0.0,0.0,0.0,0.0,0.0,0.0,0.0,0.0,0.0,0.0,0.0,0.0,0.0,0.0,0.0,0.0,0.0,0.0,0.0,0.0,0.0,0.0,0.0,0.0,0.0,0.0,0.0,0.0,0.0,0.0,0.0,0.0,0.0,0.0,0.0,0.0,-2.3469,-2.5467,-2.5604,-2.5525,-2.5463,-2.542,-2.3925,-2.2091,-2.0045,-1.6463,0.0,0.0,0.0,0.0,0.0,0.0,0.0,0.0,0.0,0.0,0.0,0.0,0.0,0.0,0.0,0.0,0.0,0.0,0.0,0.0,0.0,0.0,0.0,0.0,0.0,0.0,0.0,0.0,0.0,0.0,0.0,0.0,0.0,0.0,0.0,0.0,0.0,0.0,0.0,0.0,0.0,0.0,0.0,0.0,0.0,0.0,0.0,0.0,0.0,0.0,0.0,0.0,0.0,0.0,0.0,0.0,0.0,0.0,0.0,0.0,0.0,0.0,0.0,0.0,0.0,0.0,0.0,0.0,0.0,0.0,0.0,0.0,0.0,0.0,0.0,0.0,0.0,0.0,0.0,0.0,0.0,0.0,0.0,0.0,0.0,0.0,0.0,0.0,0.0,0.0,0.0,0.0,0.0,0.0,0.0,0.0,0.0,0.0,0.0,0.0,0.0,0.0,-2.2611,-2.4488,0.0,-2.5505,-2.5443,-2.5361,-2.4615,-2.2953,-2.0077,0.0,0.0,0.0,0.0,0.0,0.0,0.0,0.0,0.0,0.0,0.0,0.0,0.0,0.0,0.0,0.0,0.0,0.0,0.0,0.0,0.0,0.0,0.0,0.0,0.0,0.0,0.0,0.0,0.0,0.0,0.0,0.0,0.0,0.0,0.0,0.0,0.0,0.0,0.0,0.0,0.0,0.0,0.0,0.0,0.0,0.0,0.0,0.0,0.0,0.0,0.0,0.0,0.0,0.0,0.0,0.0,0.0,0.0,0.0,0.0,0.0,0.0,0.0,0.0,0.0,0.0,0.0,0.0,0.0,0.0,0.0,0.0,0.0,0.0,0.0,0.0,0.0,0.0,0.0,0.0,0.0,0.0,0.0,0.0,0.0,0.0,0.0,0.0,0.0,0.0,0.0,0.0,0.0,0.0,0.0,0.0,0.0,0.0,0.0,0.0,0.0,0.0,-2.0109,-2.2527,-2.4244,0.0,-2.5104,-2.4968,-2.4523,-2.3809,-2.2288,-1.9692,0.0,0.0,0.0,0.0,0.0,0.0,0.0,0.0,0.0,0.0,0.0,0.0,0.0,0.0,0.0,0.0,0.0,0.0,0.0,0.0,0.0,0.0,0.0,0.0,0.0,0.0,0.0,0.0,0.0,0.0,0.0,0.0,0.0,0.0,0.0,0.0,0.0,0.0,0.0,0.0,0.0,0.0,0.0,0.0,0.0,0.0,0.0,0.0,0.0,0.0,0.0,0.0,0.0,0.0,0.0,0.0,0.0,0.0,0.0,0.0,0.0,0.0,0.0,0.0,0.0,0.0,0.0,0.0,0.0,0.0,0.0,0.0,0.0,0.0,0.0,0.0,0.0,0.0,0.0,0.0,0.0,0.0,0.0,0.0,0.0,0.0,0.0,0.0,0.0,0.0,0.0,0.0,0.0,0.0,0.0,0.0,0.0,0.0,0.0,0.0,0.0,0.0,-2.0222,-2.3447,-2.5239,-2.4376,-2.4293,-2.3889,-2.2876,-2.1096,-1.9654,0.0,0.0,0.0,0.0,0.0,0.0,0.0,0.0,0.0,0.0,0.0,0.0,0.0,0.0,0.0,0.0,0.0,0.0,0.0,0.0,0.0,0.0,0.0,0.0,0.0,0.0,0.0,0.0,0.0,0.0,0.0,0.0,0.0,0.0,0.0,0.0,0.0,0.0,0.0,0.0,0.0,0.0,0.0,0.0,0.0,0.0,0.0,0.0,0.0,0.0,0.0,0.0,0.0,0.0,0.0,0.0,0.0,0.0,0.0,0.0,0.0,0.0,0.0,0.0,0.0,0.0,0.0,0.0,0.0,0.0,0.0,0.0,0.0,0.0,0.0,0.0,0.0,0.0,0.0,0.0,0.0,0.0,0.0,0.0,0.0,0.0,0.0,0.0,0.0,0.0,0.0,0.0,0.0,0.0,0.0,0.0,0.0,0.0,0.0,0.0,0.0,0.0,0.0,-1.9325,-2.2081,-2.3719,-2.3437,-2.3392,-2.322,-2.2834,-2.207,-2.0785,-1.8772,0.0,0.0,0.0,0.0,0.0,0.0,0.0,0.0,0.0,0.0,0.0,0.0,0.0,0.0,0.0,0.0,0.0,0.0,0.0,0.0,0.0,0.0,0.0,0.0,0.0,0.0,0.0,0.0,0.0,0.0,0.0,0.0,0.0,0.0,0.0,0.0,0.0,0.0,0.0,0.0,0.0,0.0,0.0,0.0,0.0,0.0,0.0,0.0,0.0,0.0,0.0,0.0,0.0,0.0,0.0,0.0,0.0,0.0,0.0,0.0,0.0,0.0,0.0,0.0,0.0,0.0,0.0,0.0,0.0,0.0,0.0,0.0,0.0,0.0,0.0,0.0,0.0,0.0,0.0,0.0,0.0,0.0,0.0,0.0,0.0,0.0,0.0,0.0,0.0,0.0,0.0,0.0,0.0,0.0,0.0,0.0,0.0,0.0,0.0,0.0,0.0,0.0,-1.8946,-2.145,-2.2921,-2.2539,-2.2496,-2.2289,-2.1833,-2.1499,-2.0399,-1.8264,0.0,0.0,0.0,0.0,0.0,0.0,0.0,0.0,0.0,0.0,0.0,0.0,0.0,0.0,0.0,0.0,0.0,0.0,0.0,0.0,0.0,0.0,0.0,0.0,0.0,0.0,0.0,0.0,0.0,0.0,0.0,0.0,0.0,0.0,0.0,0.0,0.0,0.0,0.0,0.0,0.0,0.0,0.0,0.0,0.0,0.0,0.0,0.0,0.0,0.0,0.0,0.0,0.0,0.0,0.0,0.0,0.0,0.0,0.0,0.0,0.0,0.0,0.0,0.0,0.0,0.0,0.0,0.0,0.0,0.0,0.0,0.0,0.0,0.0,0.0,0.0,0.0,0.0,0.0,0.0,0.0,0.0,0.0,0.0,0.0,0.0,0.0,0.0,0.0,0.0,0.0,0.0,0.0,0.0,0.0,0.0,0.0,0.0,0.0,0.0,0.0,0.0,-1.8845,-2.1243,-2.2462,-2.1644,-2.1566,-2.1245,-2.0366,-1.9977,-1.9146,-1.76,0.0,0.0,0.0,0.0,0.0,0.0,0.0,0.0,0.0,0.0,0.0,0.0,0.0,0.0,0.0,0.0,0.0,0.0,0.0,0.0,0.0,0.0,0.0,0.0,0.0,0.0,0.0,0.0,0.0,0.0,0.0,0.0,0.0,0.0,0.0,0.0,0.0,0.0,0.0,0.0,0.0,0.0,0.0,0.0,0.0,0.0,0.0,0.0,0.0,0.0,0.0,0.0,0.0,0.0,0.0,0.0,0.0,0.0,0.0,0.0,-2.2196,0.0,0.0,0.0,0.0,0.0,0.0,0.0,0.0,0.0,0.0,0.0,0.0,0.0,0.0,0.0,0.0,0.0,0.0,0.0,0.0,0.0,0.0,0.0,0.0,0.0,0.0,0.0,0.0,0.0,0.0,0.0,0.0,0.0,0.0,0.0,0.0,0.0,0.0,0.0,0.0,0.0,-1.795,-1.986,-2.0936,-2.0708,-2.0663,-2.0575,-2.0327,-1.9977,-1.9367,-1.8402,-1.6386,0.0,0.0,0.0,0.0,0.0,0.0,0.0,0.0,0.0,0.0,0.0,0.0,0.0,0.0,0.0,0.0,0.0,0.0,0.0,0.0,0.0,0.0,0.0,0.0,0.0,0.0,0.0,0.0,0.0,0.0,0.0,0.0,0.0,0.0,0.0,0.0,0.0,0.0,0.0,0.0,0.0,0.0,0.0,0.0,0.0,0.0,0.0,0.0,0.0,0.0,0.0,0.0,0.0,0.0,0.0,0.0,0.0,0.0,0.0,0.0,-2.3891,0.0,0.0,0.0,0.0,0.0,0.0,0.0,0.0,0.0,0.0,0.0,0.0,0.0,0.0,0.0,0.0,0.0,0.0,0.0,0.0,0.0,0.0,0.0,0.0,0.0,0.0,0.0,0.0,0.0,0.0,0.0,0.0,0.0,0.0,0.0,0.0,0.0,0.0,0.0,0.0,-1.8353,-1.9652,-2.0391,-2.0389,-2.0366,-2.0341,-2.0285,-1.9977,-1.9475,-1.8661,-1.7083,0.0,0.0,0.0,0.0,0.0,0.0,0.0,0.0,0.0,0.0,0.0,0.0,0.0,0.0,0.0,0.0,0.0,0.0,0.0,0.0,0.0,0.0,0.0,0.0,0.0,0.0,0.0,0.0,0.0,0.0,0.0,0.0,0.0,0.0,0.0,0.0,0.0,0.0,0.0,0.0,0.0,0.0,0.0,0.0,0.0,0.0,0.0,0.0,0.0,0.0,0.0,0.0,0.0,-2.999,-3.0895,-3.1797,-3.1797,-3.1719,-3.1406,-2.8516,-2.6912,-2.6238,-2.5189,0.0,0.0,0.0,0.0,0.0,0.0,0.0,0.0,0.0,0.0,0.0,0.0,0.0,0.0,0.0,0.0,0.0,0.0,0.0,0.0,0.0,0.0,0.0,0.0,-2.2054,-2.1399,-1.9054,0.0,0.0,0.0,0.0,0.0,0.0,0.0,0.0,0.0,0.0,0.0,-1.9018,-1.9896,-2.0329,-2.037,-2.0327,-2.0296,-2.0316,-1.9977,-1.9513,-1.8844,-1.7752,-1.6465,0.0,0.0,0.0,0.0,0.0,0.0,0.0,0.0,0.0,0.0,0.0,0.0,0.0,0.0,0.0,0.0,0.0,0.0,0.0,0.0,0.0,0.0,0.0,0.0,0.0,0.0,0.0,0.0,0.0,0.0,0.0,0.0,-1.9228,-2.088,0.0,0.0,0.0,0.0,0.0,0.0,0.0,0.0,0.0,0.0,0.0,0.0,0.0,-2.8311,-2.9999,-3.1015,-3.1913,-3.2734,-3.3593,-3.4492,-3.5312,-3.5312,-3.4922,-3.418,-3.3711,0.0,-2.8945,-2.7254,0.0,0.0,0.0,0.0,0.0,0.0,0.0,0.0,0.0,0.0,0.0,0.0,0.0,0.0,0.0,0.0,0.0,0.0,0.0,0.0,0.0,0.0,-2.3812,-2.3163,-2.2961,-2.2815,0.0,-1.9828,-1.7346,-1.6455,-1.5628,0.0,0.0,0.0,0.0,0.0,0.0,0.0,-1.8921,-1.9842,-2.0361,-2.0311,-2.0296,-2.0296,-2.0316,-1.9977,-1.9734,-1.9664,-1.8569,-1.7825,-1.7598,-1.6168,0.0,0.0,0.0,0.0,0.0,0.0,0.0,0.0,0.0,0.0,0.0,0.0,0.0,0.0,0.0,0.0,0.0,0.0,0.0,0.0,0.0,0.0,0.0,0.0,0.0,0.0,0.0,0.0,0.0,-1.9014,-2.1068,-2.2241,-2.2163,-2.1729,0.0,0.0,0.0,0.0,0.0,0.0,0.0,0.0,0.0,-2.9842,-3.0701,-3.1757,-3.3008,-3.4375,-3.5234,-3.5586,-3.6484,-3.7109,-3.7461,-3.7461,-3.7266,-3.6875,-3.6875,-3.5508,-3.3008,-3.0772,-2.8733,-2.6975,0.0,0.0,0.0,0.0,-2.5416,-2.5711,-2.5485,-2.5649,-2.5731,-2.4387,0.0,0.0,0.0,0.0,0.0,0.0,0.0,-2.3935,0.0,0.0,-2.6481,-2.6133,-2.561,-2.5054,-2.4531,-2.2801,-2.0812,0.0,-1.8345,-1.7486,-1.5564,0.0,0.0,0.0,0.0,-1.8444,-1.9681,-2.0133,-2.0317,-2.0288,-2.0286,-2.0318,-2.0312,-1.9977,-1.9809,-1.9809,-1.9156,-1.8353,-1.7458,-1.7172,-1.5926,0.0,0.0,0.0,0.0,0.0,0.0,0.0,0.0,0.0,0.0,0.0,0.0,0.0,0.0,0.0,0.0,0.0,0.0,0.0,0.0,0.0,0.0,0.0,0.0,0.0,0.0,0.0,0.0,-2.1363,-2.2982,-2.358,-2.4434,-2.4328,0.0,0.0,0.0,0.0,0.0,0.0,-2.9406,-2.9523,-3.0739,-3.3437,-3.4101,-3.4805,-3.5703,-3.6992,-3.7734,-3.7969,-3.8633,-3.9062,-3.9258,-3.9258,-3.9141,-3.8945,-3.8945,-3.8086,-3.6445,-3.3823,-3.1358,-2.9209,-2.8918,-2.8049,-2.7036,-2.7618,-2.8024,-2.8312,-2.8739,-2.9059,-2.9023,-2.7492,-2.6236,-2.5062,-2.3525,0.0,0.0,0.0,0.0,-2.5703,-2.6992,-2.7812,-2.8281,-2.8281,-2.7709,-2.6899,-2.6011,-2.5262,-2.4009,0.0,-2.0947,-2.008,-1.7308,0.0,0.0,0.0,0.0,-1.9397,-2.026,-2.0321,-2.03,-2.0289,-2.0315,-2.0296,-2.0233,-1.9957,-1.9792,-1.975,-1.9469,-1.8684,-1.7275,-1.7796,-1.6794,-1.4035,0.0,0.0,0.0,0.0,0.0,0.0,0.0,0.0,0.0,0.0,0.0,0.0,0.0,0.0,0.0,0.0,0.0,0.0,0.0,0.0,0.0,0.0,0.0,0.0,0.0,0.0,0.0,0.0,0.0,-2.5444,-2.623,0.0,0.0,0.0,0.0,-2.787,-2.8733,-3.0383,-3.3008,-3.3125,-3.4336,-3.6953,-3.707,-3.7539,-3.8398,-3.8476,-3.8945,-3.9766,-3.9805,-4.0273,-4.1055,-4.1055,-4.0625,-3.9844,-3.9844,-3.9336,-3.8281,-3.5664,-3.3555,-3.1914,-3.1094,-3.0703,-3.0625,-3.0664,-3.1211,-3.1836,-3.1055,-3.1328,-3.1836,-3.0804,-2.9347,-2.7824,-2.6929,-2.6634,0.0,0.0,-2.7422,-2.8125,-2.8203,-2.8281,-2.8281,-2.8281,-2.8175,-2.7784,-2.6938,-2.6606,-2.5736,0.0,-2.2736,-2.2446,-2.1443,0.0,-2.0235,-2.0144,-1.9543,-1.9394,-2.0215,-2.0316,-2.0312,-2.0316,-2.0312,-2.0229,-2.0046,-1.9866,-1.9744,-1.9616,-1.9427,-1.8911,-1.8052,-1.8089,-1.7578,-1.6457,-1.4824,0.0,0.0,0.0,0.0,0.0,0.0,0.0,0.0,0.0,0.0,0.0,0.0,0.0,0.0,0.0,0.0,0.0,0.0,0.0,0.0,0.0,0.0,0.0,0.0,0.0,0.0,0.0,0.0,-2.8083,-2.9404,0.0,-2.899,-2.9226,-2.9974,-3.1388,-3.1791,-3.3163,-3.5781,-3.5898,-3.6836,-3.8906,-3.8984,-3.9375,-4.0273,-4.0273,-4.043,-4.0742,-4.0742,-4.0898,-4.1211,-4.1211,-4.1016,-4.0742,-4.0742,-4.0234,-3.9375,-3.8437,-3.7031,-3.5391,-3.4531,-3.3828,-3.3281,-3.2734,-3.2695,-3.293,-3.2617,-3.2695,-3.2812,-3.1951,-3.1246,-3.0504,-2.906,-2.8632,-2.8672,-2.8672,-2.8906,-2.9258,-2.9844,-2.9961,-2.9961,-2.9874,-2.9365,-2.8824,-2.8424,-2.7443,-2.6313,-2.5428,-2.4383,-2.3218,-2.1787,-2.1771,-2.174,-2.1174,-2.1321,-2.1575,-2.1855,-2.1427,-2.1077,-2.1077,-2.048,-2.0073,-1.9993,-1.9809,-1.9444,-1.887,-1.8652,-1.7913,-1.6591,-1.7546,-1.7344,-1.5785,-1.6074,-1.5,0.0,0.0,0.0,0.0,0.0,0.0,0.0,0.0,0.0,0.0,0.0,0.0,0.0,0.0,0.0,0.0,0.0,0.0,0.0,0.0,0.0,0.0,0.0,0.0,0.0,0.0,-2.9332,-2.9961,-3.1794,-3.2648,-3.1749,-3.2491,-3.3469,-3.4563,-3.496,-3.6055,-3.8086,-3.8164,-3.8828,-4.0273,-4.0586,-4.1016,-4.1601,-4.1914,-4.1914,-4.1601,-4.1601,-4.1445,-4.1211,-4.1211,-4.1211,-4.1211,-4.1211,-4.0859,-4.0351,-4.0351,-3.9648,-3.8516,-3.7344,-3.6523,-3.5898,-3.5039,-3.4726,-3.4687,-3.4375,-3.4062,-3.375,-3.3203,-3.2851,-3.2383,-3.1211,-3.0898,-3.0898,-3.0898,-3.0703,-3.0625,-3.1172,-3.1133,-3.0858,-3.0722,-3.025,-2.9674,-2.9307,-2.8261,-2.7351,-2.7082,-2.5659,-2.4048,-2.262,-2.2855,-2.2932,-2.2081,-2.2427,-2.2816,-2.2816,-2.2312,-2.1812,-2.1543,-2.0866,-2.0317,-1.9962,-1.9982,-1.9643,-1.8748,-1.883,-1.8199,-1.6591,-1.7439,-1.7373,-1.6124,-1.6698,-1.573,-1.319,0.0,0.0,0.0,0.0,0.0,0.0,0.0,0.0,0.0,0.0,0.0,0.0,0.0,0.0,0.0,0.0,0.0,0.0,0.0,0.0,0.0,0.0,0.0,-2.5811,-2.8827,-3.1016,-3.1055,-3.3281,-3.4492,-3.3633,-3.5859,-3.7344,-3.7383,-3.8164,-3.9023,-3.9883,-3.9922,-4.0351,-4.1211,-4.1992,-4.2422,-4.2422,-4.3281,-4.3281,-4.2422,-4.2422,-4.1992,-4.125,-4.1211,-4.1211,-4.1211,-4.1211,-4.1211,-4.1211,-4.1211,-4.1211,-4.1016,-3.9297,-3.8633,-3.8516,-3.7656,-3.7305,-3.7187,-3.6328,-3.5469,-3.4726,-3.4726,-3.418,-3.3476,-3.3437,-3.3437,-3.3437,-3.3398,-3.2851,-3.2226,-3.2187,-3.1562,-3.0897,-3.0721,-3.0635,-3.0367,-2.9419,-2.9183,-2.8857,-2.8088,-2.6544,-2.5115,-2.4317,-2.4168,-2.386,-2.3009,-2.2893,0.0,-2.2893,-2.2855,-2.2509,-2.1658,-2.1436,-2.0918,-1.994,-2.043,-2.0359,-1.9331,-1.9997,-1.9704,-1.8126,-1.7822,-1.774,-1.7724,-1.6589,-1.5502,-1.4537,0.0,0.0,0.0,0.0,0.0,0.0,0.0,0.0,0.0,0.0,0.0,0.0,0.0,0.0,0.0,0.0,0.0,0.0,0.0,0.0,0.0,-2.6833,-2.8515,-2.8515,-3.1484,-3.3906,-3.4531,-3.6328,-3.7422,-3.7187,-3.7812,-3.8516,-3.9141,-3.9414,-3.9922,-4.0781,-4.0859,-4.1211,-4.2031,-4.2266,-4.2693,-4.3256,-4.3491,-4.3491,-4.3256,-4.2632,-4.2255,-4.2031,-4.1484,-4.1211,-4.1211,-4.1211,-4.1211,-4.1211,-4.1211,-4.1211,-4.1094,-3.9961,-3.9489,-3.9318,-3.8514,-3.7851,-3.7266,-3.7031,-3.6367,-3.5625,-3.5625,-3.5469,-3.5156,-3.4531,-3.4336,-3.4218,-3.3502,-3.3183,-3.2831,-3.2206,-3.1893,-3.1534,-3.0786,-3.06,-3.0506,-3.0153,-2.9572,-2.905,-2.8819,-2.789,-2.6928,-2.6043,-2.539,-2.4885,-2.4654,-2.4615,0.0,-2.4615,-2.4086,-2.3663,-2.3394,-2.2571,-2.1676,-2.082,-2.0625,-1.9987,-1.85,-1.864,-1.8309,-1.7275,-1.7702,-1.8117,-1.836,-1.6606,-1.5571,0.0,0.0,0.0,0.0,0.0,0.0,0.0,0.0,0.0,0.0,0.0,0.0,0.0,0.0,0.0,0.0,0.0,0.0,0.0,0.0,0.0,0.0,-2.9491,-3.1445,-3.2187,-3.3984,-3.5703,-3.6953,-3.832,-3.9141,-3.9141,-3.9453,-3.9883,-4.0391,-4.043,-4.0664,-4.1172,-4.1523,-4.1914,-4.2383,-4.3125,-4.3706,-4.4096,-4.4448,-4.4448,-4.4094,-4.3587,-4.3222,-4.293,-4.207,-4.1719,-4.168,-4.1367,-4.1211,-4.1211,-4.1211,-4.1211,0.0,0.0,0.0,0.0,0.0,-3.8508,-3.7728,-3.7421,-3.6913,-3.64,-3.6093,-3.6016,-3.5898,-3.5391,-3.5234,-3.5116,-3.4546,-3.4142,-3.3707,-3.3176,-3.2504,-3.1829,-3.1248,-3.0803,-3.0525,-3.0436,-3.0,-2.9621,-2.9621,-2.8967,0.0,-2.7274,-2.6428,-2.5731,-2.5346,-2.5224,-2.5208,-2.5298,-2.4802,-2.4374,-2.4125,-2.3305,-2.235,-2.1204,-2.1072,0.0,0.0,0.0,-1.8712,-1.781,-1.8125,0.0,0.0,0.0,0.0,0.0,0.0,0.0,0.0,-1.5114,-1.4823,0.0,0.0,0.0,0.0,0.0,0.0,0.0,0.0,0.0,0.0,0.0,0.0,0.0,0.0,0.0,0.0,-3.2148,-3.4336,-3.6172,-3.6445,-3.6992,-3.8555,-3.9531,-4.0039,-4.0039,-4.0742,-4.1211,-4.1211,-4.1211,-4.1211,-4.1211,0.0,0.0,0.0,0.0,-4.4874,-4.4907,-4.5679,-4.5679,-4.4907,-4.4819,-4.4424,-4.3828,-4.2929,-4.2539,-4.25,-4.1797,-4.1406,-4.1328,-4.1328,-4.1289,-4.1211,-4.1172,-4.1126,-4.0945,-4.0112,-3.9288,-3.844,-3.7805,0.0,0.0,-3.6363,-3.6133,-3.6133,-3.6016,-3.6016,-3.5976,-3.5908,-3.5307,-3.4707,-3.4517,-3.3248,-3.1983,-3.1857,-3.1137,-3.0486,-3.0419,-3.0385,-3.0385,-3.0385,-2.9758,-2.895,-2.8159,-2.7236,-2.6308,-2.5423,-2.5116,-2.5071,-2.5234,-2.5105,-2.4803,-2.4226,0.0,0.0,-2.1475,-2.1725,-2.1225,-1.9536,-2.0034,-1.9945,-1.9062,-1.8789,-1.8536,-1.8266,-1.805,-1.7952,-1.7918,-1.802,-1.8391,-1.8944,-1.6262,-1.5731,0.0,0.0,0.0,0.0,0.0,0.0,0.0,0.0,0.0,0.0,0.0,0.0,0.0,0.0,0.0,-3.3164,-3.4726,-3.6367,-3.8789,-3.9141,-3.9258,-3.9609,-4.043,-4.0937,-4.0937,-4.1094,-4.1211,-4.1211,-4.1211,-4.1211,-4.1211,-4.1367,-4.2031,-4.3398,-4.3737,-4.4475,-4.5679,-4.5818,-4.5818,-4.5675,0.0,0.0,-4.4726,-4.3775,-4.3386,-4.3437,-4.3281,-4.2809,-4.2087,-4.2146,-4.1797,-4.1172,-4.108,-4.1082,-4.1129,-4.0741,-4.0109,-3.9408,-3.9207,-3.8714,-3.8007,-3.7155,-3.6944,-3.6914,-3.6211,-3.6016,0.0,-3.5788,-3.5632,-3.5298,-3.452,-3.3553,-3.2623,-3.1951,-3.1137,-3.0486,-3.0419,-3.0385,-3.0385,-3.0385,-3.0081,-2.9614,-2.8989,-2.7621,-2.6308,-2.5423,-2.5116,-2.4997,-2.5065,-2.5003,-2.4911,-2.4688,-2.462,-2.4098,-2.2959,-2.2814,-2.2052,-2.0364,-1.9785,-1.9439,-1.9253,-1.9034,-1.8798,-1.8545,-1.8822,-1.8916,-1.8674,-1.927,-1.963,-1.9778,-1.8606,-1.8538,0.0,0.0,0.0,0.0,0.0,0.0,0.0,0.0,0.0,0.0,0.0,-2.7099,-2.9683,0.0,-3.3008,-3.5586,-3.6719,-3.7891,-3.9648,-3.9883,-4.0078,-4.0508,-4.0937,-4.1211,-4.1211,-4.1211,-4.1211,-4.1211,-4.1562,-4.1797,-4.1797,-4.2617,-4.3436,-4.4247,-4.4657,-4.5176,-4.5825,-4.5859,-4.5859,-4.582,-4.5426,-4.5325,-4.5535,-4.4585,-4.42,-4.4206,-4.3755,-4.3295,-4.2838,-4.2472,-4.1864,-4.1084,-4.1084,-4.1129,-4.1171,-4.0886,-4.0574,-4.0178,-3.9738,-3.9321,-3.8859,-3.8034,-3.7839,-3.7773,-3.6869,-3.6593,-3.6463,-3.5822,-3.5646,-3.5538,-3.504,-3.4266,-3.3384,-3.2541,-3.1697,-3.0981,-3.0518,-3.0385,-3.0385,-3.0385,-3.017,-2.9768,-2.9066,-2.8268,-2.7296,-2.6144,-2.5365,-2.493,-2.4979,-2.4956,-2.4864,-2.4811,-2.4804,-2.4384,-2.339,-2.2751,-2.2024,-2.1216,-2.0784,-2.047,-2.0298,-2.0073,-1.9883,-1.9765,-1.9693,-1.968,-1.9716,-1.9898,-2.0217,-2.0602,-2.023,-2.0027,0.0,0.0,0.0,0.0,0.0,0.0,0.0,0.0,-2.5161,-2.8347,-2.9249,-3.0307,-3.3125,-3.4492,-3.5781,-3.7539,-3.8398,-3.9141,-4.0039,-4.0156,-4.0391,-4.1133,-4.1211,-4.1211,-4.1211,-4.1211,-4.1211,-4.1211,-4.1953,-4.2383,-4.2383,-4.3906,-4.4761,-4.4801,-4.5453,-4.5839,-4.5783,-4.5842,-4.5842,-4.5783,-4.5842,-4.5927,-4.603,-4.5274,-4.497,-4.4972,-4.4016,-4.3626,-4.3575,-4.2643,-4.1859,-4.1254,-4.1208,-4.1211,-4.1171,-4.0886,-4.0817,-4.0696,-4.0023,-3.9803,-3.9692,-3.8847,-3.8681,-3.8629,-3.7503,-3.7175,-3.696,-3.5891,-3.5591,-3.5593,-3.5509,-3.4853,-3.4013,-3.3314,-3.2429,-3.1506,-3.0808,-3.0538,-3.0385,-3.0385,-3.017,-2.9777,-2.9129,-2.8872,-2.8207,-2.6703,-2.5672,-2.4991,-2.4917,-2.4802,-2.4731,-2.4685,-2.4723,-2.4399,-2.3549,-2.2587,-2.2033,-2.2033,-2.1886,-2.1688,-2.1395,-2.1115,-2.0951,-2.0909,-2.0581,-2.048,-2.0649,-2.0567,-2.0836,-2.1427,-2.1427,-2.1075,-2.4923,-2.3774,-2.2991,-2.455,-2.4451,-2.5249,0.0,0.0,-2.9325,-3.1327,-3.2929,-3.4101,-3.4492,-3.5898,-3.7578,-3.9336,-3.9687,-4.0078,-4.0937,-4.1055,-4.1094,-4.1172,-4.1211,-4.1211,-4.1211,-4.1211,-4.1211,-4.1211,-4.1953,-4.2383,-4.2383,-4.332,-4.4136,-4.4762,-4.4851,-4.5167,-4.5783,-4.5673,-4.5673,-4.5815,-4.5712,-4.5711,-4.5935,-4.5764,-4.5698,-4.5737,-4.4794,-4.4444,-4.4431,-4.2809,-4.2124,-4.2108,-4.1442,-4.1211,-4.1171,-4.0886,-4.0817,-4.0753,-4.0494,-4.051,-4.0489,-3.9606,-3.942,-3.9256,-3.7546,-3.7014,-3.6802,-3.5863,-3.5591,-3.5593,-3.5509,-3.4853,-3.4167,-3.409,-3.2852,-3.166,-3.1583,-3.0962,-3.0385,-3.0385,-3.017,-2.9968,-2.9892,-2.9094,-2.7908,-2.6299,-2.5944,-2.5544,-2.4658,-2.4534,-2.4479,-2.4303,-2.4436,-2.4425,-2.4109,-2.3355,-2.2859,-2.2859,-2.2216,-2.1767,-2.1741,-2.1451,-2.1125,-2.0909,-2.1472,-2.1567,-2.1121,-2.2044,-2.2382,-2.2192,-2.2192,-2.211,-2.6876,-2.6392,-2.6212,0.0,-2.7929,-2.8757,-3.1477,-3.195,-3.2147,-3.3398,-3.4956,-3.6235,-3.6743,-3.7817,-3.9056,0.0,-4.0533,-4.0695,-4.1133,-4.1211,-4.1016,-4.0508,-4.0898,-4.1211,-4.1211,-4.1211,-4.1211,-4.1211,-4.2422,-4.3124,-4.311,-4.436,-4.5185,-4.5385,-4.5364,-4.5448,-4.5696,-4.5727,-4.5727,-4.5688,-4.5727,-4.575,-4.5836,-4.5747,-4.5696,-4.5691,-4.5302,-4.4885,-4.4427,-4.3865,-4.3055,-4.2169,-4.1985,-4.156,-4.1074,-4.087,-4.0817,-4.0788,-4.057,-4.061,-4.0664,-4.0283,-4.0247,-4.0004,-3.8231,-3.769,-3.7395,-3.5968,-3.5534,-3.5554,-3.552,-3.5231,-3.4814,-3.4321,-3.3276,-3.2275,-3.1814,-3.1,-3.0385,-3.0385,-3.017,-2.9969,-2.9845,-2.9444,-2.8686,-2.726,-2.6338,-2.551,-2.4605,-2.4485,-2.4488,-2.4384,-2.4339,-2.4312,-2.4199,-2.3896,-2.3712,-2.3712,-2.3203,-2.2907,-2.2907,-2.2389,-2.2164,-2.2244,-2.2353,-2.2307,-2.2073,-2.2505,-2.2594,-2.2313,-2.2313,-2.2313,-2.8018,-2.809,-2.8452,-2.9905,-3.0847,-3.1749,-3.2968,-3.3711,-3.4375,-3.5234,-3.6317,-3.7303,-3.7968,-3.8694,-3.9568,-4.05,-4.0627,-4.0759,-4.1132,-4.0976,-4.0585,-3.9961,-4.0194,-4.0546,-4.082,-4.1055,-4.1289,-4.1523,-4.2891,-4.3785,-4.3903,-4.5308,-4.602,-4.579,-4.5783,-4.5733,-4.5594,-4.5712,-4.5712,-4.5594,-4.5712,-4.5747,-4.574,-4.5632,-4.5594,-4.5594,-4.5594,-4.5248,-4.4658,-4.4664,-4.3933,-4.2774,-4.2476,-4.1979,-4.1322,-4.0932,-4.08,-4.0743,-4.0556,-4.0602,-4.0692,-4.0649,-4.0699,-4.048,-3.8955,-3.8328,-3.7802,-3.6272,-3.5654,-3.55,-3.55,-3.55,-3.5346,-3.4699,-3.3891,-3.3045,-3.2199,-3.1346,-3.0692,-3.0462,-3.0248,-3.0006,-2.9738,-2.9686,-2.927,-2.7995,-2.673,-2.5662,-2.4864,-2.4539,-2.4428,-2.4428,-2.4303,-2.419,-2.419,-2.419,-2.419,-2.419,-2.3868,-2.3721,-2.3721,-2.3057,-2.2822,-2.3057,-2.2822,-2.2708,-2.2708,-2.2708,-2.2599,-2.2398,-2.2335,-2.2313,-2.8154,-2.8218,-2.8812,-3.1445,-3.2734,-3.3789,-3.5508,-3.5898,-3.6172,-3.7031,-3.7217,-3.7191,-3.723,-3.7851,-3.865,-3.9609,-3.9733,-4.0098,-4.1054,-4.0342,-3.9787,-3.9883,-3.9051,-3.8889,-3.9844,-4.0703,-4.1523,-4.2305,-4.3203,-4.402,-4.4725,-4.562,-4.602,-4.579,-4.5783,-4.5733,-4.5594,-4.5603,-4.5603,-4.5594,-4.5603,-4.5603,-4.5603,-4.5594,-4.5594,-4.5594,-4.5594,-4.5594,-4.5496,-4.4805,-4.4544,-4.4483,-4.2897,-4.2301,-4.2143,-4.1169,-4.0747,-4.068,-4.0545,-4.0602,-4.0674,-4.0545,-4.0609,-4.0525,-3.9543,-3.8676,-3.7822,-3.693,-3.6115,-3.55,-3.55,-3.55,-3.55,-3.5462,-3.4776,-3.3936,-3.3045,-3.2237,-3.1429,-3.0577,-3.0379,-3.0235,-2.9763,-2.9686,-2.927,-2.7995,-2.71,-2.6292,-2.5458,-2.4686,-2.4199,-2.4199,-2.4199,-2.419,-2.419,-2.419,-2.419,-2.419,-2.3868,-2.3721,-2.3721,-2.3057,-2.2708,-2.2721,-2.2708,-2.2708,-2.2708,-2.2708,-2.2695,-2.2682,-2.2426,-2.2313,-3.0242,-3.1161,-3.2147,-3.4219,-3.5351,-3.6289,-3.7461,-3.7734,-3.7617,-3.7294,-3.7141,-3.6884,-3.6235,-3.6745,-3.7555,-3.8546,-3.9247,-3.995,-4.0827,-4.0732,-4.0114,-3.8963,-3.9603,0.0,-3.8969,-3.9763,0.0,-4.1523,-4.2843,-4.3708,-4.3863,-4.5161,-4.5846,-4.5673,-4.5665,-4.5632,-4.5594,-4.5594,-4.5594,-4.5594,-4.5594,-4.5594,-4.5594,-4.5594,-4.5594,-4.5594,-4.5594,-4.5594,-4.5573,-4.5431,-4.5066,-4.4467,-4.3432,-4.2658,-4.2,-4.1062,-4.0641,-4.0559,-4.0539,-4.0523,-4.0559,-4.05,-4.0523,-4.0405,-3.9569,-3.87,-3.7815,-3.6962,-3.6115,-3.55,-3.55,-3.55,-3.55,-3.55,-3.4814,-3.3975,-3.3083,-3.2275,-3.1429,-3.0577,-3.0385,-3.0241,-2.9763,-2.9686,-2.927,-2.7995,-2.666,-2.5521,-2.4713,-2.4373,-2.419,-2.419,-2.419,-2.419,-2.419,-2.419,-2.4122,-2.3868,-2.3555,-2.3351,-2.3351,-2.2755,-2.2527,-2.2695,-2.2708,-2.2612,-2.244,-2.2612,-2.2612,-2.244,-2.2349,-2.2564,-3.2332,-3.363,-3.4766,-3.6484,-3.7578,-3.8281,-3.8555,-3.8553,-3.8196,-3.6967,-3.612,-3.543,-3.4802,-3.4581,-3.5168,-3.74,-3.8035,-3.8864,-4.0633,-4.0661,-4.0081,-3.8928,-3.953,-3.9754,0.0,0.0,0.0,-4.1523,-4.2833,-4.3674,-4.3847,-4.5082,-4.5733,-4.5603,-4.5594,-4.5594,-4.5594,-4.5594,-4.5594,-4.5594,-4.5594,-4.5594,-4.5594,-4.5594,-4.5594,-4.5594,-4.5594,-4.5594,-4.5603,-4.5704,-4.5445,-4.4886,-4.4095,-4.3225,-4.233,-4.1472,-4.0867,-4.0516,-4.0516,-4.0516,-4.0516,-4.0516,-4.0516,-4.04,-3.99,-3.8931,-3.7892,-3.7315,-3.6346,-3.55,-3.55,-3.55,-3.55,-3.55,-3.5084,-3.443,-3.3545,-3.2699,-3.1891,-3.1038,-3.0615,-3.0241,-2.9763,-2.9579,-2.9086,-2.7963,-2.6917,-2.5852,-2.4787,-2.4373,-2.419,-2.419,-2.419,-2.419,-2.419,-2.419,-2.4046,-2.3732,-2.3398,-2.3141,-2.3033,-2.2575,-2.2357,-2.2533,-2.2546,-2.2527,-2.2453,-2.2527,-2.2527,-2.2453,-2.2621,-2.2849,-3.4335,-3.5508,-3.6601,-3.8242,-3.9297,-3.9687,-3.8867,-3.8466,-3.7819,-3.6142,-3.4293,-3.2938,0.0,0.0,-3.1851,-3.6176,-3.6327,-3.7094,-4.0491,-4.0211,-3.9685,0.0,0.0,0.0,0.0,0.0,0.0,-4.2344,0.0,-4.3902,-4.466,-4.5386,-4.5725,-4.5603,-4.5594,-4.5594,-4.5594,-4.5594,-4.5594,-4.5594,-4.5594,-4.5594,-4.5594,-4.5594,-4.5594,-4.5594,-4.5594,-4.5594,-4.5594,-4.5594,-4.568,-4.5686,-4.4782,-4.3937,-4.3098,-4.2234,-4.1324,-4.0516,-4.0516,-4.0516,-4.0516,-4.0516,-4.0516,-4.0516,-4.0516,-3.9361,-3.8084,-3.8084,-3.6853,-3.5577,-3.5577,-3.5538,-3.55,-3.55,-3.55,-3.5269,-3.4398,-3.3545,-3.2737,-3.1852,-3.0988,-3.0221,-2.9801,-2.9295,-2.873,-2.797,-2.7835,-2.7247,-2.5668,-2.475,-2.4263,-2.4263,-2.4217,-2.417,-2.417,-2.4161,-2.4006,-2.3653,-2.334,-2.3033,-2.2682,-2.244,-2.2313,-2.2313,-2.2313,-2.2426,-2.2669,-2.2426,-2.244,-2.2738,-2.321,-2.317,-3.6172,-3.7734,-3.9023,-3.9453,-3.9726,-3.9804,-3.948,-3.7908,-3.6206,-3.5012,-3.2838,-3.0939,0.0,0.0,0.0,-3.4527,-3.6415,0.0,-4.0352,-4.0521,0.0,-4.0307,0.0,-4.1236,-4.1512,-4.2252,0.0,0.0,-4.3389,-4.3756,-4.4515,-4.524,-4.5654,-4.5594,-4.5594,-4.5594,-4.5594,-4.5594,-4.5594,-4.5594,-4.5594,-4.5594,-4.5594,-4.5594,-4.5594,-4.5594,-4.5594,-4.5594,-4.5594,-4.5594,-4.5629,-4.5486,-4.4013,-4.332,-4.2942,-4.1439,-4.0715,-4.0516,-4.0516,-4.0516,-4.0516,-4.0516,-4.0516,-4.0516,-4.0516,-3.9785,-3.8977,-3.8977,-3.7738,-3.6385,-3.6385,-3.5962,-3.55,-3.55,-3.55,-3.5269,-3.4398,-3.4013,-3.343,-3.1968,-3.072,-2.9859,-2.9703,-2.9295,-2.8913,-2.873,-2.8191,-2.742,-2.6429,-2.5595,-2.5081,-2.5081,-2.4314,-2.3827,-2.3827,-2.3599,-2.3294,-2.2984,-2.2873,-2.2704,-2.2412,-2.2335,-2.2313,-2.2313,-2.2313,-2.2335,-2.2398,-2.2335,-2.2606,-2.3215,-2.3318,-2.3706,-3.8086,-3.9414,-4.0469,-4.0469,-4.0155,-3.9484,-3.8298,-3.6586,-3.4649,-3.2597,-3.0664,0.0,-2.8681,-2.9044,0.0,0.0,0.0,0.0,-3.9695,-4.041,-4.0822,0.0,-4.1701,0.0,-4.2641,-4.3206,-4.369,0.0,-4.3968,-4.4137,-4.4492,-4.5202,-4.5594,-4.5594,-4.5594,-4.5594,-4.5594,-4.5594,-4.5594,-4.5594,-4.5594,-4.5594,-4.5594,-4.5594,-4.5594,-4.5594,-4.5594,-4.5594,-4.5594,-4.5594,-4.5594,-4.5518,-4.4547,-4.3739,-4.297,-4.2008,-4.117,-4.0516,-4.0516,-4.0516,-4.0516,-4.0516,-4.0516,-4.0516,-4.0516,-3.9938,-3.9284,-3.9284,-3.8046,-3.6692,-3.6692,-3.6115,-3.55,-3.55,-3.55,-3.5385,-3.4891,-3.4468,-3.3679,-3.1871,-3.0468,-2.9561,-2.9561,-2.9249,-2.8987,-2.8987,-2.862,-2.8143,-2.7703,-2.6649,-2.5778,-2.5448,-2.4688,-2.4071,-2.3721,-2.3374,-2.3057,-2.2721,-2.2708,-2.2573,-2.2293,-2.2313,-2.2313,-2.2313,-2.2313,-2.2448,-2.2767,-2.2767,-2.3173,-2.3898,-2.4222,-2.451,-3.9765,-4.0585,-4.1132,-4.1014,-4.0183,-3.8718,-3.6258,-3.4763,-3.2985,-2.9739,0.0,-2.7698,-2.7522,-2.711,-2.8101,-3.2256,0.0,-3.5558,-3.8905,-4.0054,-4.0938,-4.2015,-4.2157,-4.2571,-4.3612,-4.3713,-4.3981,-4.4615,-4.4771,-4.4777,-4.4653,-4.5263,-4.5594,-4.5594,-4.5594,-4.5594,-4.5594,-4.5594,-4.5594,-4.5594,-4.5594,-4.5594,-4.5594,-4.5594,-4.5594,-4.5594,-4.5594,-4.5594,-4.5594,-4.5594,-4.5594,-4.5594,-4.5479,-4.447,-4.3085,-4.297,-4.1893,-4.0516,-4.0516,-4.0516,-4.0516,-4.0516,-4.0516,-4.0516,-4.0516,-4.0015,-3.9469,-3.94,-3.8232,-3.6956,-3.6848,-3.6188,-3.558,-3.5532,-3.5479,-3.5465,-3.5465,-3.4721,-3.3544,-3.1768,-3.0404,-2.9533,-2.9421,-2.9189,-2.8987,-2.8987,-2.8987,-2.8987,-2.8987,-2.7703,-2.6492,-2.5727,-2.5241,-2.4678,-2.395,-2.3567,-2.325,-2.2954,-2.2837,-2.2726,-2.2612,-2.2482,-2.2496,-2.2584,-2.2584,-2.2902,-2.3545,-2.3545,-2.3932,-2.4643,-2.5304,-2.5313,-4.0363,-4.0911,-4.0863,-4.0076,-3.8736,-3.7107,-3.5118,-3.283,0.0,0.0,-2.7336,-2.6551,-2.5667,-2.6705,-2.8593,-3.1476,0.0,0.0,0.0,0.0,-4.0369,0.0,-4.2942,-4.3627,-4.5234,-4.5424,0.0,0.0,-4.5609,-4.555,-4.5423,-4.5535,-4.5594,-4.5594,-4.5594,-4.5594,-4.5594,-4.5594,-4.5594,-4.5594,-4.5594,-4.5594,-4.5594,-4.5594,-4.5594,-4.5594,-4.5594,0.0,-4.5594,-4.5594,-4.5594,-4.5518,-4.4816,-4.3932,-4.3008,-4.2277,-4.1393,-4.0516,-4.0516,-4.0516,-4.0516,-4.0516,-4.0516,-4.0516,-4.0516,-4.04,-4.0246,-4.0012,-3.9222,-3.8258,-3.7533,-3.6761,-3.6039,-3.5612,-3.5339,-3.5174,-3.5174,-3.4296,-3.3223,-3.2259,-3.1146,-3.0166,-2.9495,-2.9189,-2.8987,-2.8987,-2.8987,-2.8987,-2.8987,-2.8191,-2.7405,-2.6946,-2.5995,-2.5239,-2.4815,-2.4465,-2.4266,-2.4207,-2.3614,-2.3517,-2.4101,-2.3511,-2.3492,-2.4101,-2.4135,-2.4169,-2.4305,-2.4305,-2.4711,-2.5406,-2.5541,-2.5428,-4.0656,-4.1016,-4.0769,-3.9841,-3.8341,-3.6362,-3.3662,0.0,0.0,0.0,-2.5265,-2.4839,-2.4469,-2.5859,0.0,-2.9417,-3.1121,0.0,0.0,0.0,0.0,0.0,0.0,-4.382,0.0,-4.5715,-4.5736,-4.5719,-4.5712,-4.5665,-4.5594,-4.5594,-4.5594,-4.5594,-4.5594,-4.5594,-4.5594,-4.5594,-4.5594,-4.5594,-4.5594,-4.5594,-4.5594,-4.5594,-4.5594,-4.5594,-4.5594,-4.5594,-4.5594,-4.5594,-4.5594,-4.5556,-4.5133,-4.4201,-4.3047,-4.2624,-4.1623,-4.0516,-4.0516,-4.0516,-4.0516,-4.0516,-4.0516,-4.0516,-4.0516,-4.0516,-4.0454,-4.0347,-3.9564,-3.8613,-3.7755,-3.6945,-3.6115,-3.5438,-3.5198,-3.5051,-3.4926,-3.4004,-3.3093,-3.2691,-3.1756,-3.0752,-2.9939,-2.9538,-2.9247,-2.9037,-2.8809,-2.8761,-2.8964,-2.8656,-2.8208,-2.7583,-2.67,-2.5919,-2.5308,-2.4785,-2.4508,-2.4508,-2.4169,-2.4135,-2.4474,-2.4169,-2.4135,-2.4474,-2.4508,-2.4677,-2.5067,-2.5067,-2.5439,-2.6184,-2.6184,-2.6084,-4.0415,-4.078,-4.0685,-3.9539,-3.7833,-3.5585,-3.2253,-2.9193,0.0,0.0,-2.3487,-2.3353,-2.368,0.0,-2.6229,0.0,-2.9159,-3.1308,0.0,0.0,0.0,0.0,0.0,0.0,-4.5441,-4.5594,0.0,-4.5594,-4.5594,-4.5594,-4.5594,-4.5594,-4.5594,-4.5594,-4.5594,-4.5594,-4.5594,-4.5594,-4.5594,-4.5594,-4.5594,-4.5594,-4.5594,-4.5594,-4.5594,-4.5594,-4.5594,-4.5594,-4.5594,-4.5594,-4.5594,-4.5594,-4.5402,-4.4393,-4.3085,-4.2893,-4.1854,-4.0516,-4.0516,-4.0516,-4.0516,-4.0516,-4.0516,-4.0516,-4.0516,-4.0516,-4.0454,-4.0326,-3.9652,-3.8717,-3.7699,-3.69,-3.616,-3.5154,-3.4888,-3.4823,-3.4561,-3.3784,-3.3127,-3.2941,-3.2231,-3.1384,-3.0613,-2.9986,-2.9481,-2.9186,-2.8711,-2.8527,-2.8821,-2.894,-2.8767,-2.8117,-2.7448,-2.6715,-2.5936,-2.5326,-2.4982,-2.4982,-2.4812,-2.4812,-2.4948,-2.4812,-2.4812,-2.4982,-2.4982,-2.5252,-2.5845,-2.5845,-2.6116,-2.6691,-2.6691,-2.659,-3.9314,-4.0128,-4.0322,-3.8575,-3.6383,-3.3911,-3.1152,0.0,-2.4991,-2.379,-2.2949,-2.2647,-2.3403,-2.3808,-2.487,0.0,0.0,-3.0396,0.0,0.0,0.0,0.0,0.0,0.0,-4.5441,-4.5594,0.0,-4.5594,-4.5594,-4.5594,-4.5594,-4.5594,-4.5594,-4.5594,-4.5594,-4.5594,-4.5594,-4.5594,-4.5594,-4.5594,-4.5594,-4.5594,-4.5594,-4.5594,-4.5594,-4.5594,-4.5594,-4.5594,0.0,-4.5594,-4.5594,-4.5518,-4.4739,-4.3893,-4.3008,-4.22,-4.1316,-4.0516,-4.0516,-4.0516,-4.0516,-4.0516,-4.0516,-4.0516,-4.0516,-4.0516,-4.0397,-3.9861,-3.9611,-3.9104,-3.7255,-3.6708,-3.6273,-3.4643,-3.4281,-3.42,-3.3941,-3.38,-3.3529,-3.2781,-3.2572,-3.2228,-3.1433,-3.035,-2.9583,-2.9551,-2.8897,-2.8402,-2.8464,-2.8773,-2.8987,-2.8913,-2.8226,-2.7613,-2.7187,-2.6733,-2.6505,-2.6505,-2.5879,-2.5812,-2.6454,-2.5845,-2.5812,-2.6488,-2.6505,-2.6522,-2.659,-2.659,-2.6623,-2.6691,-2.6691,-2.6228,-3.8158,-3.8999,-3.8999,-3.7565,-3.5449,-3.3079,-3.0751,0.0,-2.3898,-2.2821,-2.1846,-2.154,-2.2594,-2.3259,-2.4225,-2.6051,-2.6621,-2.7813,-3.0704,0.0,0.0,0.0,0.0,0.0,0.0,0.0,-4.5594,-4.5594,-4.5594,-4.5594,-4.5594,-4.5594,-4.5594,-4.5594,-4.5594,-4.5594,-4.5594,-4.5594,-4.5594,-4.5594,-4.5594,-4.5594,-4.5594,-4.5594,-4.5594,-4.5594,-4.5594,-4.5594,0.0,-4.5594,-4.5594,-4.5518,-4.4624,-4.3816,-4.3008,-4.2124,-4.1239,-4.0516,-4.0516,-4.0516,-4.0516,-4.0516,-4.0516,-4.0516,-4.0516,-4.0516,-4.0414,-3.9994,-3.9765,-3.9133,-3.7194,-3.5938,-3.5044,-3.4374,-3.42,-3.4141,-3.385,-3.3807,-3.3697,-3.3366,-3.333,-3.3073,-3.2265,-3.1337,-3.0599,-3.0368,-2.9424,-2.8854,-2.9094,-2.9028,-2.8987,-2.8987,-2.8334,-2.784,-2.7681,-2.7067,-2.6691,-2.6691,-2.642,-2.6387,-2.6708,-2.642,-2.6387,-2.6691,-2.6691,-2.6691,-2.6691,-2.6691,-2.6691,-2.6691,-2.6691,-2.6531,-3.6869,-3.7855,-3.7983,-3.6708,-3.456,-3.2268,0.0,-2.6325,-2.2992,-2.2181,-2.1018,-2.0588,-2.2016,-2.2747,-2.3613,-2.5076,-2.5538,-2.6577,-2.9121,-3.0968,0.0,0.0,0.0,-4.2047,0.0,-4.5325,-4.5594,-4.5594,-4.5594,-4.5594,-4.5594,-4.5594,-4.5594,-4.5594,-4.5594,-4.5594,-4.5594,-4.5594,-4.5594,-4.5594,-4.5594,-4.5594,-4.5594,-4.5594,-4.5594,-4.5594,-4.5594,-4.5594,0.0,-4.5594,-4.5441,-4.5133,-4.4278,-4.3431,-4.2624,-4.1739,-4.1046,-4.0516,-4.0516,-4.0516,-4.0516,-4.0516,-4.0516,-4.0516,-4.0516,-4.0516,-4.0422,-4.0062,-3.9324,-3.8315,-3.693,-3.533,-3.4093,-3.4093,-3.4093,-3.4031,-3.3823,-3.3807,-3.3807,-3.3807,-3.3807,-3.3623,-3.306,-3.2213,-3.1515,-3.1247,-3.027,-2.9576,-2.9611,-2.9478,-2.9208,-2.8858,-2.8268,-2.7897,-2.7897,-2.7162,-2.6691,-2.6691,-2.6691,-2.6691,-2.6691,-2.6573,-2.6573,-2.6691,-2.6573,-2.6573,-2.6691,-2.6691,-2.6641,-2.6504,-2.6671,-2.6844,-3.5361,-3.6825,-3.7716,-3.6012,-3.3703,-3.1299,-2.9264,-2.5437,-2.2255,-2.2024,-2.0589,-1.99,-2.194,-2.2306,-2.298,-2.4965,-2.6,-2.7462,-3.0038,-3.1814,0.0,0.0,0.0,-4.0315,-4.2893,-4.4633,-4.5594,-4.5594,-4.5594,0.0,-4.5594,-4.5594,-4.5594,-4.5594,-4.5594,-4.5594,-4.5594,-4.5594,-4.5594,-4.5594,-4.5594,-4.5594,-4.5594,-4.5594,-4.5594,-4.5594,-4.5594,-4.5594,0.0,-4.5594,-4.5094,-4.4239,-4.3431,-4.2585,-4.17,-4.0816,-4.0516,-4.0516,-4.0516,-4.0516,-4.0516,-4.0516,-4.0516,-4.0516,-4.0516,-4.0516,-4.0389,-3.9759,-3.8051,-3.6317,-3.6317,-3.5055,-3.382,-3.382,-3.382,-3.3807,-3.3807,-3.3807,-3.3807,-3.3807,-3.3807,-3.3807,-3.3807,-3.2853,-3.2068,-3.2083,-3.1404,-3.0559,-2.9715,-2.994,-2.9722,-2.8536,-2.8084,-2.7897,-2.7897,-2.7162,-2.6691,-2.6691,-2.6691,-2.6691,-2.6691,-2.6245,-2.6243,-2.6691,-2.6228,-2.6261,-2.6691,-2.6691,-2.647,-2.603,-2.663,-2.7077,-3.1681,-3.2546,-3.2866,-3.2215,-3.0593,-2.8969,-2.801,-2.4926,-2.2215,-2.1938,-2.051,-1.9856,-2.1732,-2.2222,-2.3291,-2.6376,-2.7215,0.0,0.0,0.0,0.0,0.0,0.0,-4.394,0.0,0.0,-4.5594,-4.5594,-4.5594,-4.5594,-4.5594,-4.5594,-4.5594,-4.5594,-4.5594,-4.5594,-4.5594,-4.5594,-4.5594,-4.5594,-4.5594,-4.5594,-4.5594,-4.5594,-4.5594,-4.5594,-4.5594,-4.5248,-4.4701,-4.4701,-4.4201,-4.3393,-4.2547,-4.2038,-4.1692,-4.0823,-4.0516,-4.0516,-4.0516,-4.0516,-4.0516,-4.0516,-4.0516,-4.0516,-4.0516,-4.0516,-4.0389,-3.9748,-3.8001,-3.6303,-3.6303,-3.5055,-3.3807,-3.3807,-3.3807,-3.3807,-3.3807,-3.3807,-3.3807,-3.3807,-3.3807,-3.3807,-3.3807,-3.3261,-3.2834,-3.2834,-3.217,-3.1441,-3.0823,-3.065,-3.0134,-2.8934,-2.8469,-2.803,-2.7537,-2.7003,-2.6691,-2.6691,-2.6691,-2.6691,-2.6691,-2.6228,-2.605,-2.621,-2.6068,-2.605,-2.621,-2.6556,-2.667,-2.6625,-2.7051,-2.7302,-2.9265,-3.0311,-3.0506,-3.0071,-2.8982,-2.7692,-2.6609,-2.4235,-2.212,-2.1463,-2.0233,-1.9759,-2.128,-2.1956,-2.3158,-2.5748,-2.6579,-2.7736,0.0,0.0,0.0,0.0,0.0,0.0,0.0,-4.5248,-4.5594,-4.5594,-4.5594,-4.5594,-4.5594,-4.5594,-4.5594,-4.5594,-4.5594,-4.5594,-4.5594,-4.5594,-4.5594,-4.5594,-4.5594,-4.5594,-4.5594,-4.5594,-4.5441,-4.5133,-4.5133,-4.4624,0.0,-4.3855,-4.3355,-4.2547,-4.2,-4.1585,-4.1239,-4.0708,-4.0516,-4.0516,-4.0516,-4.0516,-4.0516,-4.0516,-4.0422,-4.0347,-4.0347,-4.0248,-4.0053,-3.9557,-3.812,-3.667,-3.6376,-3.5275,-3.4174,-3.388,-3.3807,-3.3807,-3.3807,-3.3807,-3.3807,-3.3807,-3.3807,-3.3766,-3.3592,-3.3379,-3.3136,-3.2968,-3.2491,-3.1954,-3.1367,-3.1113,-3.0523,-2.9332,-2.8976,-2.8436,-2.7548,-2.6994,-2.6691,-2.6691,-2.6691,-2.6691,-2.6691,-2.6068,-2.5797,-2.5979,-2.558,-2.5629,-2.6059,-2.6414,-2.6866,-2.7405,-2.719,-2.7245,0.0,-2.9377,-2.976,-2.9028,-2.8222,-2.7108,-2.5108,-2.3385,0.0,-2.0778,-1.9882,-1.9664,-2.0765,-2.1699,-2.2703,-2.3961,-2.4968,-2.6731,0.0,-3.1577,0.0,0.0,-4.1739,0.0,-4.3278,-4.471,-4.5594,-4.5594,-4.5594,-4.5594,-4.5594,-4.5594,-4.5594,-4.5594,-4.5594,-4.5594,-4.5594,-4.5594,-4.5594,-4.5594,-4.5594,-4.5594,-4.5594,-4.5594,-4.5133,0.0,-4.4316,-4.3816,-4.3008,-4.3008,-4.2508,-4.1692,-4.1692,-4.12,-4.0516,-4.0516,-4.0516,-4.0516,-4.0516,-4.0508,-4.0454,-4.0454,-4.0313,-4.011,-4.0062,-3.9819,-3.9486,-3.9186,-3.8349,-3.7309,-3.6486,-3.5628,-3.4821,-3.399,-3.3807,-3.3807,-3.3807,-3.3807,-3.3807,-3.3807,-3.3807,-3.3662,-3.3291,-3.3181,-3.3045,-3.2584,-3.2483,-3.2219,-3.1428,-3.1357,-3.0877,-2.9678,-2.9558,-2.9094,-2.7994,-2.7199,-2.6742,-2.6657,-2.6674,-2.6691,-2.6657,-2.5784,-2.5515,-2.6034,-2.5037,-2.5102,-2.6254,-2.6414,-2.7061,-2.822,-2.7177,-2.7016,-2.4058,0.0,-2.4568,-2.4375,-2.4182,-2.3869,0.0,-2.226,-2.1383,-2.0832,-2.0084,-2.0187,-2.2324,-2.2489,-2.3468,-2.7052,-2.7959,-2.9159,-3.1929,0.0,0.0,-4.1893,-4.3855,-4.5017,-4.5017,-4.5364,-4.5594,-4.5594,-4.5594,-4.5594,-4.5594,-4.5594,-4.5594,-4.5594,-4.5594,-4.5594,-4.5594,-4.5594,-4.5594,-4.5594,-4.5594,-4.5594,-4.5594,-4.5594,-4.5133,-4.4316,-4.4316,-4.347,-4.2124,-4.2124,-4.1585,-4.0823,-4.0823,-4.0669,-4.0516,-4.0516,-4.0516,-4.0516,-4.0516,-4.0364,-4.0205,-4.0205,-4.0167,-4.0042,-3.9797,-3.9474,-3.9199,-3.9107,-3.8349,-3.7309,-3.6486,-3.5628,-3.4821,-3.399,-3.3807,-3.3807,-3.3807,-3.3807,-3.3807,-3.3807,-3.3807,-3.3662,-3.3291,-3.3181,-3.3045,-3.2584,-3.2483,-3.2279,-3.1742,-3.1672,-3.1252,-3.0076,-2.9952,-2.961,-2.8807,-2.801,-2.7144,-2.6208,-2.6616,-2.6709,-2.6328,-2.6198,-2.6186,-2.6292,-2.6057,-2.6279,-2.6967,-2.7101,-2.7333,-2.7603,-2.7449,-2.7435,-2.1511,-2.2435,-2.3394,-2.3394,-2.3394,-2.3246,-2.2685,-2.189,-2.1108,-2.0477,0.0,-2.0714,-2.2048,-2.3,-2.4359,-2.6727,-2.824,0.0,0.0,0.0,0.0,-4.2931,-4.4586,-4.5594,0.0,-4.5594,-4.5594,-4.5594,-4.5594,-4.5594,-4.5594,-4.5594,-4.5594,-4.5594,-4.5594,-4.5594,-4.5594,-4.5594,-4.5594,-4.5594,-4.5594,-4.5594,-4.5594,-4.521,-4.4547,-4.3739,-4.3316,-4.2393,-4.12,-4.12,-4.0931,-4.0516,-4.0516,-4.0516,-4.0516,-4.0516,-4.0516,-4.0516,-4.0516,-4.033,-4.0062,-3.9941,-3.9775,-3.963,-3.9426,-3.9157,-3.8942,-3.8942,-3.8486,-3.7771,-3.6597,-3.5936,-3.5298,-3.41,-3.3807,-3.3807,-3.3807,-3.3807,-3.3807,-3.3807,-3.3634,-3.3408,-3.2968,-3.2695,-3.24,-3.1968,-3.1896,-3.1788,-3.1564,-3.1526,-3.1295,-3.0688,-3.0615,-3.0311,-2.9567,-2.8837,-2.8025,-2.7034,-2.7254,-2.7232,-2.6689,-2.6467,-2.6265,-2.6047,-2.6352,-2.6772,-2.7322,-2.7426,-2.7622,-2.7883,-2.7678,-2.7585,-2.0365,-2.2211,-2.4052,-2.3783,-2.3783,-2.3678,-2.2809,0.0,0.0,0.0,0.0,0.0,-2.1668,-2.3686,0.0,0.0,0.0,0.0,-3.5308,-3.9308,-4.2124,-4.3008,-4.4586,0.0,-4.5594,-4.5594,-4.5594,-4.5594,-4.5594,-4.5594,-4.5594,-4.5594,-4.5594,-4.5594,-4.5594,-4.5594,-4.5594,-4.5594,-4.5594,-4.5594,-4.5594,-4.5518,-4.5364,-4.4624,-4.3778,-4.2854,-4.2124,0.0,-4.0516,-4.0516,-4.0516,-4.0516,-4.0516,-4.0516,-4.0516,-4.0516,-4.0516,-4.0508,-4.0397,-4.0269,-4.0032,-3.9664,-3.9327,-3.9093,-3.9093,-3.889,-3.8689,-3.8689,-3.8689,-3.8358,-3.6853,-3.6486,-3.6046,-3.4394,-3.399,-3.3954,-3.3844,-3.3807,-3.3807,-3.3807,-3.348,-3.3045,-3.2601,-3.2109,-3.166,-3.1269,-3.119,-3.119,-3.119,-3.119,-3.119,-3.119,-3.119,-3.0954,-3.0311,-2.9689,-2.9083,-2.8338,-2.8127,-2.7768,-2.7304,-2.682,-2.6375,-2.5914,-2.6452,-2.7013,-2.752,-2.7557,-2.786,-2.8343,-2.7835,-2.7645,-2.1983,-2.3231,-2.3744,-2.2274,-2.2466,-2.2966,-2.2794,-2.2675,0.0,0.0,0.0,0.0,0.0,-2.5435,-2.6712,0.0,0.0,-3.4398,0.0,0.0,-4.2124,-4.3008,0.0,-4.5594,-4.5594,-4.5594,-4.5594,-4.5594,-4.5594,-4.5594,-4.5594,-4.5594,-4.5594,-4.5594,-4.5594,-4.5594,-4.5594,-4.5594,-4.5594,-4.5594,-4.5594,-4.521,-4.4509,-4.4355,-4.347,-4.2,0.0,-4.1316,-4.0516,-4.0516,-4.0516,-4.0516,-4.0516,-4.0516,-4.0516,-4.0516,-4.0516,-4.0422,-3.9934,-3.9893,-4.0002,-3.9377,-3.9133,-3.9093,-3.9093,-3.889,-3.8689,-3.8689,-3.8689,-3.8505,-3.7566,-3.7309,-3.6905,-3.5224,-3.4821,-3.4637,-3.3954,-3.3807,-3.3807,-3.3807,-3.348,-3.3045,-3.2601,-3.2109,-3.166,-3.1269,-3.119,-3.119,-3.119,-3.119,-3.119,-3.119,-3.119,-3.1157,-3.1021,-3.0475,-2.9868,-2.9241,-2.8144,-2.7512,-2.7552,-2.7459,-2.7385,-2.7285,-2.7405,-2.7485,-2.7585,-2.7575,-2.7635,-2.7735,-2.7635,-2.7914,-2.0949,-2.2215,-2.3242,-2.2957,-2.3543,-2.4159,-2.4159,-2.3812,0.0,0.0,0.0,0.0,0.0,0.0,-2.9441,-3.2109,0.0,-3.6815,-3.8469,-4.0508,-4.2124,0.0,0.0,-4.5094,-4.5556,-4.5594,-4.5594,-4.5594,-4.5594,-4.5402,-4.4932,-4.4893,-4.4893,-4.4893,-4.4893,-4.5133,-4.5594,-4.5594,-4.5594,-4.5594,-4.5594,-4.5133,-4.4278,-4.3855,-4.297,-4.1769,0.0,-4.0854,-4.0516,-4.0516,-4.0516,-4.0516,-4.0516,-4.0516,-4.0516,-4.0516,-4.0516,-4.0414,-3.9792,-3.9709,-3.9731,-3.91,-3.8884,-3.8884,-3.8884,-3.8803,-3.8689,-3.8689,-3.8689,-3.8505,-3.7713,-3.7492,-3.7199,-3.6009,-3.5701,-3.5459,-3.4637,-3.4454,-3.4252,-3.3595,-3.343,-3.3145,-3.2266,-3.2097,-3.1871,-3.1297,-3.119,-3.119,-3.119,-3.119,-3.119,-3.119,-3.119,-3.119,-3.119,-3.0351,-2.9563,-2.895,-2.8011,-2.7527,-2.761,-2.7585,-2.7585,-2.7585,-2.7585,-2.7585,-2.7585,-2.7585,-2.7585,-2.7615,-2.7974,-2.8308,-2.0593,-2.1815,-2.3169,-2.4144,-2.4851,-2.5462,-2.6038,-2.5582,-2.5279,0.0,0.0,0.0,0.0,-2.9275,0.0,-3.5538,-3.7315,-3.8584,-3.9477,-4.0854,-4.2047,-4.2739,-4.3508,-4.4278,-4.494,-4.5017,-4.5017,-4.5017,-4.5017,-4.4701,-4.4047,-4.4008,-4.4008,-4.4008,-4.4008,-4.4355,-4.5017,-4.521,-4.5402,-4.5594,-4.5594,-4.5056,-4.4008,-4.3393,-4.2508,-4.147,-4.0785,-4.0516,-4.0516,-4.0516,-4.0516,-4.0516,-4.0516,-4.0516,-4.0516,-4.0516,-4.0516,-4.0414,-3.9792,-3.958,-3.9512,-3.8906,-3.8689,-3.8689,-3.8689,-3.8689,-3.8689,-3.8689,-3.8689,-3.8579,-3.7933,-3.7786,-3.7603,-3.6795,-3.6574,-3.634,-3.5481,-3.5298,-3.4979,-3.3942,-3.381,-3.3565,-3.2521,-3.2442,-3.2361,-3.1799,-3.1698,-3.1698,-3.1698,-3.1698,-3.1698,-3.1698,-3.1698,-3.153,-3.1085,-3.0033,-2.9088,-2.8343,-2.786,-2.7585,-2.7585,-2.7585,-2.7585,-2.7585,-2.7585,-2.7585,-2.7585,-2.7585,-2.7675,-2.7854,-2.8338,-2.8757,-2.3082,-2.3743,-2.4192,-2.5,-2.5269,-2.5923,-2.828,-2.8203,0.0,-2.9692,0.0,0.0,0.0,-3.1006,-3.3853,-3.7276,-3.8584,-3.9477,-4.0285,0.0,-4.1808,-4.1885,-4.2662,-4.3201,-4.3278,-4.3278,-4.3278,-4.3278,-4.3278,-4.3239,-4.3201,-4.3201,-4.3201,-4.3201,-4.3201,-4.3201,-4.3278,-4.4008,-4.4778,-4.5594,-4.5594,-4.4748,-4.3162,-4.3124,-4.2162,-4.0593,-4.0516,-4.0516,-4.0516,-4.0516,-4.0516,-4.0516,-4.0516,-4.0516,-4.0516,-4.0516,-4.0516,-4.0414,-3.9792,-3.958,-3.9512,-3.8906,-3.8689,-3.8689,-3.8689,-3.8689,-3.8689,-3.8689,-3.8689,-3.8689,-3.8615,-3.8615,-3.8395,-3.7603,-3.7419,-3.7199,-3.6376,-3.6193,-3.604,-3.5467,-3.5005,-3.4534,-3.4029,-3.3584,-3.3322,-3.3254,-3.3254,-3.3254,-3.3254,-3.3254,-3.3254,-3.3254,-3.3254,-3.2515,-3.0697,-2.9826,-2.8904,-2.7735,-2.761,-2.7585,-2.7585,-2.7585,-2.7585,-2.7585,-2.7585,-2.7585,-2.7585,-2.7585,-2.7914,-2.8517,-2.8577,-2.9235,-2.1803,-2.2916,-2.3902,-2.4438,-2.5736,0.0,0.0,-2.8857,-2.9434,-3.2199,-3.2314,0.0,0.0,0.0,-3.5853,-3.77,-3.9161,-4.0169,-4.0477,-4.0785,-4.12,-4.1731,-4.2085,-4.2508,-4.3047,-4.3085,-4.3085,-4.3085,-4.3085,-4.2854,-4.2316,-4.2277,-4.2277,-4.2277,-4.2277,-4.2547,-4.3085,-4.3393,-4.3701,-4.4047,-4.4547,-4.3893,-4.2277,-4.2277,-4.1623,-4.0516,-4.0516,-4.0516,-4.0516,-4.0516,-4.0516,-4.0516,-4.0516,-4.0516,-4.0516,-4.0516,-4.0516,-4.0438,-4.0062,-3.9775,-3.951,-3.9077,-3.8862,-3.8689,-3.8689,-3.8689,-3.8689,-3.8689,-3.8689,-3.8689,-3.8689,-3.8689,-3.8615,-3.8322,-3.8248,-3.8028,-3.7235,-3.7052,-3.675,-3.5752,-3.5541,-3.5185,-3.433,-3.4138,-3.3931,-3.3491,-3.3423,-3.3423,-3.3423,-3.3423,-3.3423,-3.3423,-3.3423,-3.2957,-3.1853,-3.1103,-3.0165,-2.8941,-2.8047,-2.7585,-2.7585,-2.7585,-2.7585,-2.7585,-2.7585,-2.7585,-2.7585,-2.8034,-2.8338,-2.8637,-2.9415,-3.0043,-2.141,-2.2508,-2.3776,-2.4346,0.0,0.0,-2.9627,-3.0127,-3.1204,-3.4353,-3.4314,-3.3968,-3.4814,0.0,0.0,0.0,-3.94,-4.0516,-4.0516,-4.0516,-4.0708,-4.1316,-4.1393,-4.1623,-4.22,-4.2277,-4.2277,-4.2277,-4.2277,-4.2008,-4.1431,-4.1393,-4.1393,-4.1393,-4.1393,-4.1662,-4.2277,-4.2547,-4.2547,-4.2277,-4.3124,-4.2893,-4.1808,-4.1808,-4.1316,-4.0516,-4.0516,-4.0516,-4.0516,-4.0516,-4.0516,-4.0516,-4.0516,-4.0516,-4.0516,-4.0516,-4.0516,-4.0446,-4.0205,-3.9962,-3.9698,-3.9238,-3.899,-3.8818,-3.8719,-3.8689,-3.8689,-3.8689,-3.8689,-3.8689,-3.8689,-3.8689,-3.8689,-3.8689,-3.8689,-3.8542,-3.7991,-3.7896,-3.7555,-3.6528,-3.6327,-3.5995,-3.5059,-3.4856,-3.4675,-3.4167,-3.4078,-3.4078,-3.4078,-3.4078,-3.4078,-3.4078,-3.3897,-3.3426,-3.2597,-3.1901,-3.098,-2.9673,-2.8737,-2.8034,-2.7615,-2.7585,-2.7705,-2.7914,-2.7914,-2.8034,-2.8244,-2.8667,-2.8996,-2.9235,-3.0103,-3.0612,-2.2458,-2.3025,-2.406,-2.5042,0.0,0.0,-3.1121,-3.2314,-3.3622,-3.6192,-3.6077,-3.5769,-3.6577,-3.6731,0.0,-3.7853,-3.94,-4.0516,-4.0516,-4.0516,-4.0516,-4.0516,-4.0516,-4.0516,-4.0516,-4.0516,-4.0516,-4.0516,-4.0516,-4.0516,-4.0516,-4.0516,-4.0516,-4.0516,-4.0516,-4.0516,-4.0516,-4.1354,-4.1354,-4.0516,-4.1393,-4.1769,-4.1769,-4.1769,-4.1316,-4.0516,-4.0516,-4.0516,-4.0516,-4.0516,-4.0516,-4.0516,-4.0516,-4.0516,-4.0516,-4.0516,-4.0516,-4.0446,-4.0214,-4.012,-3.9992,-3.9314,-3.9093,-3.9049,-3.8773,-3.8689,-3.8689,-3.8689,-3.8689,-3.8689,-3.8689,-3.8689,-3.8689,-3.8673,-3.871,-3.8689,-3.8673,-3.871,-3.8528,-3.8015,-3.7524,-3.702,-3.6498,-3.5963,-3.56,-3.56,-3.56,-3.56,-3.56,-3.56,-3.56,-3.56,-3.4945,-3.3974,-3.274,-3.1951,-3.1004,-2.9699,-2.9621,-2.9022,-2.7675,-2.7615,-2.7944,-2.8607,-2.8607,-2.8936,-2.9621,-2.9621,-2.9894,-3.0492,-3.0522,-3.0881,-2.2281,-2.2969,0.0,-2.58,0.0,0.0,0.0,-3.3199,0.0,0.0,-3.7892,-3.8046,-3.77,0.0,0.0,-3.8854,-3.9823,-4.0516,-4.0516,-4.0516,-4.0516,-4.0516,-4.0516,-4.0516,-4.0516,-4.0516,-4.0516,-4.0516,-4.0516,-4.0516,-4.0516,-4.0516,-4.0516,-4.0516,-4.0516,-4.0516,-4.0516,-4.0746,-4.0746,-4.0516,-4.0746,-4.0893,-4.0893,-4.0893,-4.0746,-4.0516,-4.0516,-4.0516,-4.0516,-4.0516,-4.0516,-4.0516,-4.0516,-4.0516,-4.0516,-4.0516,-4.0516,-4.0508,-4.0406,-4.012,-3.972,-3.951,-3.9157,-3.8803,-3.8719,-3.8689,-3.8689,-3.8689,-3.8689,-3.8689,-3.8689,-3.8689,-3.8611,-3.8234,-3.8433,-3.8611,-3.8234,-3.8449,-3.8643,-3.8496,-3.7791,-3.7135,-3.6981,-3.6207,-3.56,-3.56,-3.56,-3.56,-3.56,-3.56,-3.56,-3.56,-3.5397,-3.5127,-3.4751,-3.4065,-3.3105,-3.1811,-3.1269,-3.0399,-2.9079,-2.9022,-2.9112,-2.9295,-2.9295,-2.9412,-2.9621,-3.0013,-3.0313,-3.0522,-3.0972,-3.1301,-2.2588,-2.3647,0.0,-2.7061,-2.9275,-3.1538,-3.3891,0.0,0.0,0.0,-3.9169,-3.913,-3.8623,-3.8938,0.0,-3.9284,-3.9977,-4.0516,-4.0516,-4.0516,-4.0516,-4.0516,-4.0516,-4.0516,-4.0516,-4.0397,-4.0381,-4.0508,-4.0397,-4.0381,-4.0469,-4.0516,-4.0516,-4.0516,-4.0516,-4.0516,-4.0516,-4.0516,-4.0516,-4.0516,-4.0516,-4.0516,-4.0516,-4.0516,-4.0516,-4.0516,-4.0516,-4.043,-4.0347,-4.0438,-4.0516,-4.0508,-4.0381,-4.0347,-4.033,-4.0203,-4.023,-4.0347,-4.0347,-4.011,-3.9775,-3.9626,-3.9262,-3.8826,-3.8735,-3.8689,-3.8689,-3.8689,-3.8689,-3.8689,-3.8689,-3.8528,-3.8348,-3.8251,-3.8465,-3.8611,-3.8283,-3.8465,-3.8689,-3.8689,-3.7878,-3.7192,-3.7192,-3.6312,-3.56,-3.56,-3.56,-3.56,-3.56,-3.56,-3.56,-3.56,-3.56,-3.5476,-3.5247,-3.483,-3.4031,-3.2685,-3.2217,-3.1474,-3.04,-2.9864,-2.9711,-2.9953,-2.9953,-3.0073,-3.0372,-3.0731,-3.0883,-3.0913,-3.1301,-3.163,-2.3173,-2.466,0.0,-2.875,-3.0698,0.0,-3.6,-3.7315,-3.8354,-3.9938,0.0,-3.9207,-3.9284,-3.9284,-3.9323,-3.94,-4.0015,-4.0516,-4.0516,-4.0516,-4.0516,-4.0516,-4.0516,-4.0516,-4.0516,-4.0286,-4.0251,-4.0462,-4.0286,-4.0251,-4.0508,-4.0516,-4.0516,-4.0516,-4.0516,-4.0516,-4.0516,-4.0516,-4.0516,-4.0516,-4.0516,-4.0516,-4.0516,-4.0516,-4.0508,-4.0446,-4.0508,-4.0347,-4.0139,-4.0364,-4.0446,-4.0422,-4.0148,-4.0042,-4.0012,-3.972,-3.9786,-4.0042,-4.0042,-4.0032,-3.9972,-3.9664,-3.9327,-3.9008,-3.8758,-3.8689,-3.8689,-3.8689,-3.8689,-3.8689,-3.8689,-3.8332,-3.8099,-3.8596,-3.8658,-3.8627,-3.858,-3.8627,-3.8673,-3.8643,-3.7843,-3.7173,-3.7135,-3.6291,-3.56,-3.56,-3.56,-3.56,-3.56,-3.56,-3.56,-3.56,-3.56,-3.5362,-3.4736,-3.4688,-3.412,-3.2868,-3.2707,-3.2382,-3.1625,-3.043,-3.0013,-3.0582,-3.0582,-3.0883,-3.1511,-3.1511,-3.1511,-3.1511,-3.157,-3.1899,-2.3058,-2.4286,0.0,0.0,-3.2929,-3.5038,-3.6385,-3.6846,-3.7276,-3.8315,-3.8392,-3.8469,-3.9169,-3.9284,-3.9515,-4.0131,-4.04,-4.0516,-4.0516,-4.0516,-4.0516,-4.0516,-4.0516,-4.0516,-4.0516,-4.0438,-4.043,-4.0508,-4.043,-4.043,-4.0516,-4.0516,-4.0516,-4.0516,-4.0516,-4.0516,-4.0516,-4.0516,-4.0516,-4.0516,-4.0516,-4.0516,-4.0516,-4.0516,-4.0381,-4.0214,-4.0406,-4.0347,-4.0081,-4.0177,-4.0205,-4.0139,-3.9829,-3.972,-3.9709,-3.9641,-3.9664,-3.972,-3.972,-3.9522,-3.9302,-3.9225,-3.9031,-3.8758,-3.8719,-3.8689,-3.8689,-3.8689,-3.8689,-3.8689,-3.8689,-3.8611,-3.858,-3.8658,-3.8364,-3.7981,-3.7578,-3.8135,-3.8596,-3.8148,-3.7596,-3.7058,-3.6661,-3.6049,-3.56,-3.56,-3.56,-3.56,-3.56,-3.56,-3.56,-3.56,-3.56,-3.5554,-3.5385,-3.5385,-3.5028,-3.4194,-3.37,-3.3077,-3.2382,-3.1552,-3.1152,-3.1271,-3.1271,-3.1361,-3.1511,-3.1511,-3.1511,-3.1511,-3.2019,-3.2348,-2.2893,0.0,0.0,-3.1213,0.0,-3.5615,-3.6038,-3.6115,-3.6231,-3.6692,-3.743,-3.8277,-3.913,-3.9284,-3.9554,-4.0362,-4.0516,-4.0516,-4.0516,-4.0516,-4.0438,-4.033,-4.0313,-4.0313,-4.0313,-4.0176,-4.0203,-4.0462,-4.0239,-4.0212,-4.0469,-4.0372,-4.0364,-4.0516,-4.0516,-4.0516,-4.0516,-4.0516,-4.0516,-4.0516,-4.0516,-4.0516,-4.0516,-4.0516,-4.0356,-4.0091,-4.0381,-4.0248,-3.9861,-4.0032,-4.0002,-3.9819,-3.9486,-3.9352,-3.9339,-3.921,-3.9249,-3.9352,-3.9352,-3.9238,-3.9093,-3.9093,-3.8905,-3.8689,-3.8689,-3.8689,-3.8689,-3.8689,-3.8689,-3.8689,-3.8689,-3.8496,-3.8316,-3.8316,-3.83,-3.8218,-3.7964,-3.8336,-3.8528,-3.8015,-3.7524,-3.702,-3.6498,-3.5963,-3.56,-3.56,-3.56,-3.56,-3.56,-3.56,-3.56,-3.56,-3.56,-3.56,-3.56,-3.56,-3.5316,-3.464,-3.4268,-3.3649,-3.2656,-3.2216,-3.1853,-3.1511,-3.1511,-3.1511,-3.1511,-3.1809,-3.1959,-3.1989,-3.2677,-3.3155,-2.2359,0.0,-2.8387,-3.1642,-3.3891,0.0,-3.5269,-3.5385,-3.55,-3.55,-3.6615,-3.7815,-3.87,-3.8854,-3.9169,-4.0131,-4.0285,-4.0323,-4.0477,-4.0446,-4.0347,-4.0148,-4.0042,-4.0012,-4.0012,-3.9765,-3.9829,-4.03,-3.9903,-3.9823,-4.0397,-4.0233,-4.0233,-4.0508,-4.0516,-4.0516,-4.0516,-4.0516,-4.0516,-4.0516,-4.0516,-4.0516,-4.0516,-4.0516,-4.0356,-4.0091,-4.0339,-4.0101,-3.9641,-3.9829,-3.9765,-3.9474,-3.9171,-3.9036,-3.8994,-3.8773,-3.8826,-3.9036,-3.9036,-3.9036,-3.9036,-3.9036,-3.8884,-3.8689,-3.8689,-3.8689,-3.8689,-3.8689,-3.8689,-3.8689,-3.8689,-3.8348,-3.8048,-3.8048,-3.8401,-3.8658,-3.8596,-3.858,-3.8417,-3.7859,-3.7323,-3.6766,-3.6333,-3.5898,-3.56,-3.56,-3.56,-3.56,-3.56,-3.56,-3.5633,-3.5769,-3.5825,-3.5836,-3.5971,-3.6005,-3.5765,-3.5205,-3.5051,-3.4435,-3.3216,-3.3025,-3.2612,-3.1869,-3.172,-3.166,-3.166,-3.2348,-3.2677,-3.2706,-3.3365,-3.3963,-2.0853,0.0,-2.9158,0.0,-3.2583,-3.4359,0.0,0.0,-3.55,0.0,-3.5692,-3.6077,-3.6885,-3.7046,-3.7584,-3.9207,-3.9477,-3.9708,-4.04,-4.0304,-4.0158,-4.0081,-3.9829,-3.9687,-3.9687,-3.9641,-3.9615,-3.9694,-3.9664,-3.9765,-4.012,-4.0139,-4.0233,-4.0508,-4.0516,-4.0516,-4.0516,-4.0516,-4.0516,-4.0516,-4.0516,-4.0516,-4.0516,-4.0516,-4.0356,-4.0081,-4.0158,-3.9924,-3.9569,-3.9327,-3.9199,-3.912,-3.8855,-3.8765,-3.8765,-3.8704,-3.8719,-3.8765,-3.8765,-3.8765,-3.8765,-3.8765,-3.8735,-3.8689,-3.8689,-3.8689,-3.8689,-3.8689,-3.8689,-3.8689,-3.8689,-3.8643,-3.8596,-3.8596,-3.8643,-3.858,-3.8099,-3.8015,-3.7859,-3.7378,-3.6484,-3.5788,-3.5734,-3.5644,-3.56,-3.56,-3.56,-3.56,-3.56,-3.56,-3.5893,-3.6592,-3.666,-3.6874,-3.755,-3.7594,-3.7537,-3.7465,-3.6854,-3.613,-3.5313,-3.4736,-3.4049,-3.3245,-3.2677,-3.2377,-3.2377,-3.3036,-3.3365,-3.3395,-3.4023,-3.4414,-2.1576,-2.4979,-2.8042,0.0,-3.1621,-3.3045,-3.3975,0.0,-3.493,-3.5385,-3.55,-3.5731,-3.6538,-3.6692,-3.7123,-3.8354,-3.8462,-3.861,-3.9435,-3.9309,-3.9234,-3.9508,-3.9401,-3.9314,-3.9314,-3.9314,-3.9389,-3.9606,-3.9426,-3.9534,-4.0062,-3.9941,-4.0014,-4.0508,-4.0516,-4.0516,-4.0516,-4.0516,-4.0516,-4.0516,-4.0516,-4.0516,-4.0516,-4.0516,-4.0422,-4.0321,-4.0186,-3.9931,-3.9557,-3.9238,-3.8994,-3.8855,-3.875,-3.8689,-3.8689,-3.8689,-3.8689,-3.8689,-3.8689,-3.8689,-3.8689,-3.8689,-3.8689,-3.8689,-3.8689,-3.8689,-3.8689,-3.8689,-3.8689,-3.8689,-3.8689,-3.8689,-3.8689,-3.8689,-3.8689,-3.8528,-3.8032,-3.7893,-3.7667,-3.6904,-3.6122,-3.56,-3.56,-3.56,-3.56,-3.56,-3.5994,-3.6265,-3.6265,-3.6637,-3.7043,-3.7381,-3.7415,-3.755,-3.7889,-3.7922,-3.7922,-3.7922,-3.759,-3.6901,-3.5764,-3.5407,-3.4703,-3.3515,-3.3215,-3.3066,-3.3066,-3.3724,-3.4053,-3.4084,-3.4741,-3.504,-2.1545,-2.4011,-2.6018,-2.8472,-3.0231,-3.1698,0.0,0.0,-3.4122,0.0,-3.5154,-3.5423,-3.6231,-3.6385,-3.6654,-3.7546,-3.7423,-3.7544,-3.8394,-3.8201,-3.8112,-3.8449,-3.8417,-3.8474,-3.866,-3.8697,-3.888,-3.9352,-3.9131,-3.9262,-3.9808,-3.9698,-3.9861,-4.0381,-4.0446,-4.0516,-4.0516,-4.0516,-4.0516,-4.0516,-4.0422,-4.0422,-4.0516,-4.0422,-4.0389,-4.0381,-4.0101,-3.9829,-3.9557,-3.9171,-3.8884,-3.8689,-3.8689,-3.8689,-3.8689,-3.8689,-3.8689,-3.8689,-3.8689,-3.8689,-3.8689,-3.8689,-3.8689,-3.8689,-3.8689,-3.8689,-3.8689,-3.8689,-3.8689,-3.8689,-3.8689,-3.8689,-3.8689,-3.8689,-3.8689,-3.8512,-3.7842,-3.7632,-3.7267,-3.6374,-3.6046,-3.5926,-3.5926,-3.6039,-3.6174,-3.6174,-3.6705,-3.71,-3.71,-3.755,-3.799,-3.8159,-3.8193,-3.8261,-3.843,-3.8464,-3.8464,-3.8464,-3.8464,-3.7803,-3.6309,-3.6222,-3.5548,-3.4024,-3.3993,-3.3933,-3.3754,-3.4412,-3.4741,-3.4773,-3.528,-3.5519,-1.9335,-2.1428,-2.324,-2.5096,-2.8038,0.0,0.0,0.0,0.0,-3.409,-3.4282,-3.4545,-3.5385,-3.5577,-3.5846,-3.6654,-3.6534,-3.6667,-3.7553,-3.717,-3.6808,-3.6833,-3.6592,-3.675,-3.7522,-3.7595,-3.7889,-3.8676,-3.8735,-3.8862,-3.912,-3.9426,-3.9765,-4.0091,-4.0364,-4.0516,-4.0516,-4.0516,-4.0516,-4.0516,-4.0251,-4.0269,-4.0508,-4.0251,-4.0139,-4.0081,-3.9775,-3.963,-3.9534,-3.8956,-3.8704,-3.8689,-3.8689,-3.8689,-3.8689,-3.8689,-3.8689,-3.8689,-3.8689,-3.8689,-3.8689,-3.8689,-3.8689,-3.8689,-3.8689,-3.8689,-3.8689,-3.8689,-3.8689,-3.8689,-3.8689,-3.8689,-3.8689,-3.8689,-3.8689,-3.8433,-3.7433,-3.6825,-3.6312,-3.5744,-3.622,-3.6761,-3.6761,-3.7313,-3.7787,-3.7787,-3.7821,-3.7855,-3.7855,-3.7889,-3.8159,-3.887,-3.8937,-3.9233,-3.9943,-4.0011,-4.0011,-4.0011,-4.0011,-3.9301,-3.7751,-3.7694,-3.6961,-3.5432,-3.54,-3.507,-3.4444,-3.513,-3.5459,-3.5459,-3.5489,-3.5519,-1.865,-2.0265,0.0,-2.448,-2.65,-2.8236,-2.9838,-3.1213,-3.2352,-3.3199,-3.3821,-3.4321,-3.4622,-3.5115,-3.5535,-3.5645,-3.5435,-3.5483,-3.6147,-3.5889,-3.5799,-3.6367,-3.6352,-3.6413,-3.6721,-3.7199,-3.7639,-3.7933,-3.8395,-3.8833,-3.9104,-3.9212,-3.9522,-4.0062,-4.0205,-4.033,-4.0516,-4.0516,-4.0406,-4.0251,-4.0167,-4.0042,-3.9934,-3.9829,-3.9775,-3.9765,-3.9414,-3.9276,-3.9238,-3.8877,-3.8689,-3.8689,-3.8689,-3.8689,-3.8689,-3.8689,-3.8689,-3.8689,-3.8689,-3.8689,-3.8689,-3.8689,-3.8689,-3.8689,-3.8689,-3.8689,-3.8689,-3.8689,-3.8689,-3.8689,-3.8689,-3.9093,-3.9606,-4.0104,-3.9709,-3.91,-3.8738,-3.7978,-3.7331,-3.71,-3.7313,-3.7516,-3.7516,-3.7719,-3.7922,-3.7922,-3.8294,-3.8599,-3.8599,-3.9005,-3.9411,-3.9673,-3.9706,-3.9808,-4.0079,-4.0113,-4.0113,-4.0113,-4.0113,-3.9428,-3.7879,-3.7793,-3.7055,-3.5522,-3.5519,-3.537,-3.513,-3.537,-3.5519,-3.5519,-3.5519,-3.5519,-1.7896,-1.9263,0.0,0.0,0.0,-2.6111,-2.8661,0.0,-3.065,-3.1802,-3.2737,-3.343,-3.3705,-3.4421,-3.4979,-3.5064,-3.4774,-3.4652,-3.5006,-3.4792,-3.4821,-3.5385,-3.5459,-3.5569,-3.5826,-3.634,-3.678,-3.7088,-3.7588,0.0,-3.853,-3.8654,-3.9089,-3.9893,-4.0032,-4.0205,-4.0364,-4.0364,-4.0286,-4.012,-3.9992,-3.9808,-3.9618,-3.9474,-3.9426,-3.9414,-3.9186,-3.9093,-3.9104,-3.8818,-3.8689,-3.8689,-3.8689,-3.8689,-3.8689,-3.8689,-3.8689,-3.8689,-3.8689,-3.8689,-3.8689,-3.8689,-3.8689,-3.8689,-3.8689,-3.8689,-3.8689,-3.8689,-3.8909,-3.9061,-3.8866,-3.9418,-4.0148,-4.0679,-4.0473,-4.0083,-3.9919,-3.8809,-3.7922,-3.7922,-3.8091,-3.8261,-3.8261,-3.8464,-3.8633,-3.8633,-3.9039,-3.9368,-3.9368,-3.9808,-4.0113,-4.0113,-4.0113,-4.0113,-4.0113,-4.0113,-4.0113,-4.0113,-4.0113,-3.9428,-3.7879,-3.7793,-3.7055,-3.5522,-3.5519,-3.5519,-3.5519,-3.5519,-3.5519,-3.5519,-3.5519,-3.5519,0.0,0.0,0.0,0.0,0.0,0.0,-2.684,0.0,-2.8058,-2.9976,-3.1038,-3.1891,-3.2699,-3.3355,-3.4048,-3.4886,-3.4576,-3.4188,-3.4188,-3.3943,-3.3807,-3.3807,-3.3807,-3.41,-3.4894,-3.5004,-3.5334,-3.6193,-3.6303,-3.6648,-3.7419,-3.7752,-3.839,-3.9482,-3.9893,-4.0072,-4.0043,-4.0072,-4.011,-4.0062,-3.9754,-3.9569,-3.9545,-3.9225,-3.9066,-3.9066,-3.9066,-3.9066,-3.9077,-3.8818,-3.8689,-3.8689,-3.8689,-3.8689,-3.8689,-3.8689,-3.8689,-3.8689,-3.8689,-3.8689,-3.8689,-3.8689,-3.8689,-3.8689,-3.8689,-3.8689,-3.8689,-3.8726,-3.9276,-3.9735,-3.9173,-3.9626,-4.022,-4.0257,-4.0852,-4.1276,-4.0739,-3.9225,-3.7956,-3.7956,-3.8531,-3.9039,-3.9039,-3.9639,-4.0113,-4.0113,-4.0113,-4.0113,-4.0113,-4.0113,-4.0113,-4.0113,-4.0113,-4.0113,-4.0113,-4.0113,-4.0113,-4.0113,-4.0113,-3.9428,-3.7908,-3.7822,-3.7086,-3.5554,-3.5489,-3.5519,-3.5519,-3.5519,-3.5519,-3.5519,-3.5519,-3.5519,-1.8124,0.0,0.0,0.0,0.0,0.0,0.0,0.0,0.0,-2.895,-2.966,-3.0275,-3.1775,-3.2505,-3.2885,-3.3004,-3.3698,-3.4116,-3.3954,-3.3837,-3.3807,-3.3807,-3.3807,-3.388,-3.41,-3.4674,-3.5114,0.0,-3.5936,-3.6376,-3.6597,-3.7455,-3.7766,-3.753,-3.8954,-3.9585,-3.9233,-3.9558,-3.9742,-3.9742,-3.9389,-3.9131,-3.8942,-3.8862,-3.8818,-3.8818,-3.8818,-3.8818,-3.8803,-3.8735,-3.8689,-3.8689,-3.8689,-3.8689,-3.8689,-3.8689,-3.8689,-3.8689,-3.8689,-3.8689,-3.8689,-3.8689,-3.8689,-3.8689,-3.8689,-3.8689,-3.8836,-3.9386,-3.9402,-3.939,-4.0,-4.0604,-4.1231,-4.1844,-4.1841,-4.1659,-4.1513,-4.0424,-3.9503,-3.9503,-3.9673,-3.9808,-3.9808,-3.9977,-4.0113,-4.0113,-4.0113,-4.0113,-4.0113,-4.0113,-4.0113,-4.0113,-4.0113,-4.0113,-4.0113,-4.0113,-4.0113,-4.0113,-4.0113,-3.9636,-3.8635,-3.8076,-3.7354,-3.6321,-3.5782,-3.5519,-3.5519,-3.5519,-3.5519,-3.5519,-3.5519,-3.5519,-1.9375,-2.0219,0.0,0.0,0.0,0.0,-2.4306,-2.4353,0.0,0.0,-2.8044,-2.8467,-2.9852,-3.0744,-3.1261,-3.1128,-3.2179,-3.3081,-3.3283,-3.3587,-3.3807,-3.3807,-3.3807,-3.3807,-3.3807,-3.4197,-3.4491,-3.4491,-3.4981,-3.5385,-3.5752,-3.6811,-3.7128,-3.6539,-3.7729,-3.8256,-3.8001,-3.8594,-3.8901,-3.8901,-3.9037,-3.8961,-3.8689,-3.8689,-3.8689,-3.8689,-3.8689,-3.8689,-3.8689,-3.8689,-3.8689,-3.8689,-3.8689,-3.8689,-3.8689,-3.8689,-3.8689,-3.8689,-3.8689,-3.8689,-3.8689,-3.8689,-3.8689,-3.8689,-3.8689,-3.8946,-3.9313,-3.9753,-3.9784,-3.9822,-4.0531,-4.0955,-4.1333,-4.1831,-4.2062,-4.2041,-4.1516,-4.1105,-4.0683,-4.0179,-4.0113,-4.0113,-4.0113,-4.0113,-4.0113,-4.0113,-4.0113,-4.0113,-4.0113,-4.0113,-4.0113,-4.0113,-4.0113,-4.0113,-4.0113,-4.0113,-4.0113,-4.0113,-4.0113,-3.974,-3.8935,-3.8189,-3.7411,-3.66,-3.5878,-3.5519,-3.5519,-3.5519,-3.5519,-3.5519,-3.5519,-3.5519,-2.0694,-2.1307,-2.2096,-2.2721,-2.1812,0.0,-2.3971,-2.3452,-2.3151,0.0,-2.6313,-2.6621,-2.7582,-2.8553,-2.9245,-2.9332,-3.0363,-3.1458,-3.2339,-3.3073,-3.355,-3.366,-3.366,-3.3697,-3.3807,-3.3807,-3.3807,-3.3807,-3.3807,-3.41,-3.4821,-3.5919,-3.6366,-3.6024,-3.6414,-3.6646,-3.6572,-3.7415,-3.7862,-3.7901,-3.8681,-3.8919,-3.8689,-3.8689,-3.8689,-3.8689,-3.8689,-3.8689,-3.8689,-3.8689,-3.8689,-3.8689,-3.8689,-3.8689,-3.8689,-3.8689,-3.8689,-3.8689,-3.8689,-3.8689,-3.8689,-3.8689,-3.8689,-3.8689,-3.8689,-3.9203,-3.979,-3.991,-4.0365,-4.0821,-4.0873,-4.0932,-4.0978,-4.0943,-4.1725,-4.2221,-4.1115,-4.1251,-4.1308,-4.0303,-4.0113,-4.0113,-4.0113,-4.0113,-4.0113,-4.0113,-4.0113,-4.0113,-4.0113,-4.0113,-4.0113,-4.0113,-4.0113,-4.0113,-4.0113,-4.0113,-4.0113,-4.0113,-4.0003,-3.9636,-3.8935,-3.8104,-3.7322,-3.66,-3.5878,-3.5519,-3.5519,-3.5519,-3.5519,-3.5519,-3.5519,-3.5519,-2.1886,-2.2218,-2.2774,-2.2178,-2.2365,0.0,-2.2773,-2.3047,-2.3531,0.0,-2.4586,-2.5048,-2.6582,-2.6892,-2.7113,-2.7598,-2.8867,-3.0217,-3.1458,-3.1764,-3.2118,-3.2766,-3.2839,-3.3109,-3.3733,-3.3807,-3.3807,-3.3807,-3.3807,-3.388,-3.4027,-3.4866,-3.5014,-3.4321,-3.5653,-3.6176,-3.5739,-3.6952,-3.7692,-3.7901,-3.8514,-3.8765,-3.8689,-3.8689,-3.8689,-3.8689,-3.8689,-3.8689,-3.8689,-3.8689,-3.8689,-3.8689,-3.8689,-3.8689,-3.8689,-3.8689,-3.8689,-3.8689,-3.8689,-3.8689,-3.8689,-3.8689,-3.8689,-3.8689,-3.8689,-3.8799,-3.9088,-3.991,-4.1195,-4.2083,-4.1126,-4.1251,-4.1495,-4.1036,-4.107,-4.1183,-4.0932,-4.0648,-4.0377,-4.0129,-4.0113,-4.0113,-4.0113,-4.0113,-4.0113,-4.0113,-4.0113,-4.0113,-4.0113,-4.0113,-4.0113,-4.0113,-4.0113,-4.0113,-4.0113,-4.0113,-4.0113,-4.0113,-3.9473,-3.9043,-3.8908,-3.7555,-3.6752,-3.66,-3.5878,-3.5519,-3.5519,-3.5519,-3.5519,-3.5519,-3.5519,-3.5519,-2.3428,-2.3345,-2.3583,-2.3116,0.0,0.0,0.0,-2.3042,-2.3081,-2.4312,-2.3868,-2.3735,-2.5111,0.0,-2.5735,-2.5929,-2.7174,-2.8353,-2.8934,-3.0405,-3.1544,-3.1935,-3.2008,-3.2155,-3.2559,-3.2963,-3.3366,-3.377,-3.3807,-3.3807,-3.3807,-3.4174,-3.4211,-3.3807,-3.4614,-3.493,-3.4648,-3.6159,-3.6969,-3.7114,-3.8191,-3.8689,-3.8689,-3.8689,-3.8689,-3.8689,-3.8689,-3.8689,-3.8689,-3.8689,-3.8689,-3.8689,-3.8689,-3.8689,-3.8689,-3.8689,-3.8689,-3.8689,-3.8689,-3.8689,-3.8689,-3.8689,-3.8689,-3.8689,-3.8689,-3.9276,-4.0008,-4.0637,-4.1736,-4.2498,-4.156,-4.134,-4.1251,-4.0955,-4.092,-4.0827,-4.0552,-4.048,-4.0417,-4.0129,-4.0113,-4.0113,-4.0113,-4.0113,-4.0113,-4.0113,-4.0113,-4.0113,-4.0113,-4.0113,-4.0113,-4.0113,-4.0113,-4.0113,-4.0113,-4.0113,-4.0113,-4.0113,-3.9714,-3.9315,-3.8908,-3.7787,-3.6844,-3.607,-3.5716,-3.5519,-3.5519,-3.5519,-3.5519,-3.5519,-3.5519,-3.5519,-2.5107,-2.4777,-2.4814,0.0,0.0,-2.3989,0.0,0.0,0.0,-2.422,-2.3534,0.0,0.0,0.0,0.0,0.0,0.0,0.0,0.0,-2.8741,0.0,-3.0699,-3.0834,-3.098,-3.1127,-3.1751,-3.2472,-3.3293,-3.333,-3.3403,-3.355,-3.3733,-3.3807,-3.3807,-3.3807,-3.3807,-3.3807,-3.5459,-3.6303,-3.6303,-3.7918,-3.8689,-3.8689,-3.8689,-3.8689,-3.8689,-3.8689,-3.8689,-3.8689,-3.8689,-3.8689,-3.8689,-3.8689,-3.8689,-3.8689,-3.8689,-3.8689,-3.8689,-3.8689,-3.8689,-3.8689,-3.8689,-3.8689,-3.8726,-3.8872,-3.9974,-4.1176,-4.1488,-4.2175,-4.2713,-4.2124,-4.1552,-4.1024,-4.0909,-4.0827,-4.0648,-4.0179,-4.0441,-4.0625,-4.0179,-4.0113,-4.0113,-4.0113,-4.0113,-4.0113,-4.0113,-4.0113,-4.0113,-4.0113,-4.0113,-4.0113,-4.0113,-4.0113,-4.0113,-4.0113,-4.0113,-4.0113,-4.0113,-3.9952,-3.9584,-3.8935,-3.8048,-3.6905,-3.5522,-3.5519,-3.5519,-3.5519,-3.5519,-3.5519,-3.5519,-3.5519,-3.5519,0.0,0.0,0.0,0.0,-2.6256,0.0,0.0,0.0,-2.4762,-2.2917,0.0,0.0,0.0,0.0,0.0,0.0,0.0,0.0,-2.5458,-2.6465,-2.742,-2.8117,-2.8851,-2.9537,-3.0283,-3.043,-3.0797,-3.1617,-3.169,-3.1971,-3.2693,-3.3403,-3.3807,-3.3807,-3.3807,-3.3807,-3.3807,-3.5459,-3.6303,-3.6303,-3.7918,-3.8689,-3.8689,-3.8689,-3.8689,-3.8689,-3.8689,-3.8689,-3.8689,-3.8689,-3.8689,-3.8689,-3.8689,-3.8689,-3.8689,-3.8689,-3.8689,-3.8689,-3.8689,-3.8689,-3.8689,-3.8689,-3.8689,-3.8836,-3.9533,-4.0377,-4.1242,-4.1999,-4.2768,-4.3286,-4.2732,-4.216,-4.1538,-4.1036,-4.0528,-4.0154,-4.0138,-4.0129,-4.0154,-4.0138,-4.0113,-4.0113,-4.0113,-4.0113,-4.0113,-4.0113,-4.0113,-4.0113,-4.0113,-4.0113,-4.0113,-4.0113,-4.0113,-4.0113,-4.0113,-4.0113,-4.0113,-4.0113,-3.942,-3.8989,-3.8908,-3.7496,-3.6352,-3.5519,-3.5519,-3.5519,-3.5519,-3.5519,-3.5519,-3.5519,-3.5519,-3.5519,0.0,0.0,0.0,0.0,0.0,0.0,-2.4893,0.0,-2.4588,0.0,0.0,0.0,0.0,0.0,0.0,0.0,-2.3446,0.0,0.0,0.0,-2.5171,0.0,0.0,0.0,-2.8741,-2.8815,-2.9329,-3.0613,-3.0687,-3.1274,-3.2509,-3.2913,-3.333,-3.3807,-3.3807,-3.3807,-3.3807,-3.4981,-3.5789,-3.6303,-3.7456,-3.8248,-3.8689,-3.8689,-3.8689,-3.8689,-3.8689,-3.8689,-3.8689,-3.8689,-3.8689,-3.8689,-3.8689,-3.8689,-3.8689,-3.8689,-3.8689,-3.8689,-3.8689,-3.8689,-3.8799,-3.9239,-3.9717,-4.0157,-4.0487,-4.1148,-4.1779,-4.1776,-4.2592,-4.3303,-4.2422,-4.1979,-4.166,-4.1024,-4.048,-4.0113,-4.0113,-4.0113,-4.0113,-4.0113,-4.0113,-4.0113,-4.0113,-4.0113,-4.0113,-4.0113,-4.0113,-4.0113,-4.0113,-4.0113,-4.0113,-4.0113,-4.0113,-4.0113,-4.0113,-4.0113,-4.0113,-4.0113,-3.9342,-3.8718,-3.8274,-3.7203,-3.6259,-3.5489,-3.5519,-3.5519,-3.5519,-3.5519,-3.5519,-3.5519,-3.5519,-3.5519,-2.8033,0.0,0.0,0.0,0.0,0.0,0.0,0.0,0.0,0.0,0.0,0.0,0.0,0.0,0.0,0.0,0.0,-2.2782,0.0,0.0,0.0,0.0,0.0,0.0,0.0,-2.7284,-2.7725,-2.9108,-2.9219,-2.9904,-3.1518,-3.2032,-3.2632,-3.344,-3.3697,-3.3807,-3.3807,-3.4601,-3.5445,-3.6303,-3.7125,-3.7918,-3.8689,-3.8689,-3.8689,-3.8689,-3.8689,-3.8689,-3.8689,-3.8689,-3.8689,-3.8689,-3.8689,-3.8689,-3.8689,-3.8689,-3.8689,-3.8689,-3.8689,-3.8836,-3.9166,-3.9974,-4.0634,-4.1132,-4.1352,-4.1708,-4.2011,-4.1812,-4.2358,-4.2829,-4.2021,-4.1682,-4.1429,-4.0978,-4.048,-4.0113,-4.0113,-4.0113,-4.0113,-4.0113,-4.0113,-4.0113,-4.0113,-4.0113,-4.0113,-4.0113,-4.0113,-4.0113,-4.0113,-4.0113,-4.0113,-4.0113,-4.0113,-4.0113,-4.0113,-4.0113,-4.0113,-4.0113,-3.9558,-3.8881,-3.8133,-3.7352,-3.6569,-3.5814,-3.5619,-3.5519,-3.5519,-3.5519,-3.5519,-3.5519,-3.5519,-3.5519,0.0,0.0,0.0,-2.7383,0.0,0.0,0.0,0.0,-2.6098,0.0,0.0,0.0,0.0,0.0,0.0,0.0,0.0,0.0,0.0,0.0,0.0,0.0,0.0,0.0,0.0,-2.5925,-2.5815,0.0,-2.6712,-2.7409,-2.9023,-3.0577,-3.1825,-3.2619,-3.3403,-3.3807,-3.3807,-3.4601,-3.5445,-3.6303,-3.7125,-3.7918,-3.8689,-3.8689,-3.8689,-3.8689,-3.8689,-3.8689,-3.8689,-3.8689,-3.8689,-3.8689,-3.8689,-3.8689,-3.8689,-3.8689,-3.8689,-3.8689,-3.8689,-3.9203,-3.9974,-4.0802,-4.1058,-4.1242,-4.2029,-4.1849,-4.1611,-4.2441,-4.2266,-4.1853,-4.181,-4.1362,-4.0909,-4.0886,-4.048,-4.0113,-4.0113,-4.0113,-4.0113,-4.0113,-4.0113,-4.0113,-4.0113,-4.0113,-4.0113,-4.0113,-4.0113,-4.0113,-4.0113,-4.0113,-4.0113,-4.0113,-4.0113,-4.0113,-4.0113,-4.0113,-4.0113,-4.0113,-4.0087,-3.9688,-3.8908,-3.8133,-3.7381,-3.6569,-3.5878,-3.5519,-3.5519,-3.5519,-3.5519,-3.5519,-3.5519,-3.5519,0.0,0.0,-3.3023,-2.9806,0.0,0.0,0.0,0.0,0.0,0.0,0.0,0.0,0.0,0.0,0.0,0.0,0.0,0.0,0.0,0.0,0.0,0.0,0.0,0.0,0.0,0.0,0.0,-2.5742,-2.6319,0.0,-2.9696,-3.0834,-3.1751,-3.2583,-3.3366,-3.3807,-3.3807,-3.4064,-3.4908,-3.6303,-3.6574,-3.7404,-3.8689,-3.8689,-3.8689,-3.8689,-3.8689,-3.8689,-3.8689,-3.8689,-3.8689,-3.8689,-3.8689,-3.8689,-3.8689,-3.8689,-3.8689,-3.8799,-3.9313,-4.0108,-4.0926,-4.1216,-4.143,-4.1629,-4.188,-4.1832,-4.1644,-4.1533,-4.166,-4.1639,-4.0885,-4.078,-4.0803,-4.0431,-4.0229,-4.0113,-4.0113,-4.0368,-4.0648,-4.0648,-4.0648,-4.0648,-4.0648,-4.0319,-4.0113,-4.0113,-4.0113,-4.0113,-4.0113,-4.0113,-4.0113,-4.0113,-4.0113,-4.0113,-4.0113,-4.0113,-4.0113,-4.0113,-4.0113,-3.9532,-3.8218,-3.7937,-3.7205,-3.5879,-3.5651,-3.5519,-3.5519,-3.5519,-3.5519,-3.5519,-3.5519,-3.5519,-3.4321,-3.4601,0.0,-3.1702,-3.1054,0.0,-2.7346,0.0,-2.7934,0.0,0.0,0.0,0.0,0.0,0.0,0.0,0.0,0.0,0.0,-2.1025,0.0,0.0,0.0,0.0,0.0,0.0,-2.3795,-2.4897,-2.4924,0.0,0.0,-2.9953,-3.1054,-3.2155,-3.322,-3.3807,-3.3807,-3.41,-3.4908,-3.6303,-3.6597,-3.7404,-3.8689,-3.8689,-3.8689,-3.8689,-3.8689,-3.8689,-3.8689,-3.8689,-3.8689,-3.8689,-3.8689,-3.8596,-3.8485,-3.8957,-3.9313,-3.9648,-4.0218,-4.0852,-4.141,-4.1525,-4.1655,-4.181,-4.181,-4.181,-4.1682,-4.1047,-4.1161,-4.1286,-4.0319,-4.0343,-4.0528,-4.0179,-4.0113,-4.0113,-4.0113,-4.0504,-4.092,-4.092,-4.092,-4.092,-4.092,-4.0466,-4.0113,-4.0113,-4.0113,-4.0113,-4.0113,-4.0113,-4.0113,-4.0113,-4.0113,-4.0113,-4.0113,-4.0113,-4.0113,-4.0113,-4.0113,-3.9532,-3.8246,-3.7966,-3.7205,-3.5911,-3.5651,-3.5519,-3.5519,-3.5519,-3.5519,-3.5519,-3.5519,-3.5519]},{"header":{"parameterUnit":"m.s-1","parameterCategory":1,"la1":30.6,"la2":29.2853,"lo1":-89.7004,"lo2":-87.6739,"dy":0.0162,"dx":0.0183,"nx":112,"ny":82,"refTime":"2026-04-27T00:00:00:Z","depth":0,"parameterNumber":3,"parameterNumberName":"V-component_of_WINDS"},"data":[0.0,0.0,0.0,0.0,0.0,0.0,0.0,0.0,0.0,0.0,0.0,0.0,0.0,0.0,0.0,0.0,0.0,0.0,0.0,0.0,0.0,0.0,0.0,0.0,0.0,0.0,0.0,0.0,0.0,0.0,0.0,0.0,0.0,0.0,0.0,0.0,0.0,0.0,0.0,0.0,0.0,0.0,0.0,0.0,0.0,0.0,0.0,0.0,0.0,0.0,0.0,0.0,0.0,0.0,0.0,0.0,0.0,0.0,0.0,0.0,0.0,0.0,0.0,0.0,0.0,0.0,0.0,0.0,0.0,0.0,0.0,0.0,0.0,0.0,0.0,0.0,0.0,0.0,0.0,0.0,0.0,0.0,0.0,0.0,0.0,0.0,0.0,0.0,0.0,0.0,0.2268,0.0751,0.0902,0.109,0.109,0.2452,0.3432,0.3774,0.0,0.0,0.0,0.0,0.0,0.0,0.0,0.0,0.0,0.0,0.0,0.0,0.0,0.0,0.0,0.0,0.0,0.0,0.0,0.0,0.0,0.0,0.0,0.0,0.0,0.0,0.0,0.0,0.0,0.0,0.0,0.0,0.0,0.0,0.0,0.0,0.0,0.0,0.0,0.0,0.0,0.0,0.0,0.0,0.0,0.0,0.0,0.0,0.0,0.0,0.0,0.0,0.0,0.0,0.0,0.0,0.0,0.0,0.0,0.0,0.0,0.0,0.0,0.0,0.0,0.0,0.0,0.0,0.0,0.0,0.0,0.0,0.0,0.0,0.0,0.0,0.0,0.0,0.0,0.0,0.0,0.0,0.0,0.0,0.0,0.0,0.0,0.0,0.0,0.0,0.0,0.0,0.0,0.0,0.0,0.0,0.0,0.0,0.0,0.0,0.0,0.0,0.0,0.0,0.1314,0.0215,0.0692,0.109,0.109,0.2452,0.3432,0.3774,0.0,0.0,0.0,0.0,0.0,0.0,0.0,0.0,0.0,0.0,0.0,0.0,0.0,0.0,0.0,0.0,0.0,0.0,0.0,0.0,0.0,0.0,0.0,0.0,0.0,0.0,0.0,0.0,0.0,0.0,0.0,0.0,0.0,0.0,0.0,0.0,0.0,0.0,0.0,0.0,0.0,0.0,0.0,0.0,0.0,0.0,0.0,0.0,0.0,0.0,0.0,0.0,0.0,0.0,0.0,0.0,0.0,0.0,0.0,0.0,0.0,0.0,0.0,0.0,0.0,0.0,0.0,0.0,0.0,0.0,0.0,0.0,0.0,0.0,0.0,0.0,0.0,0.0,0.0,0.0,0.0,0.0,0.0,0.0,0.0,0.0,0.0,0.0,0.0,0.0,0.0,0.0,0.0,0.0,0.0,0.0,0.0,0.0,0.0,0.0,0.0,0.0,0.0,0.1401,0.0669,0.0607,0.1257,0.1868,0.2258,0.3317,0.4088,0.4376,0.5182,0.0,0.0,0.0,0.0,0.0,0.0,0.0,0.0,0.0,0.0,0.0,0.0,0.0,0.0,0.0,0.0,0.0,0.0,0.0,0.0,0.0,0.0,0.0,0.0,0.0,0.0,0.0,0.0,0.0,0.0,0.0,0.0,0.0,0.0,0.0,0.0,0.0,0.0,0.0,0.0,0.0,0.0,0.0,0.0,0.0,0.0,0.0,0.0,0.0,0.0,0.0,0.0,0.0,0.0,0.0,0.0,0.0,0.0,0.0,0.0,0.0,0.0,0.0,0.0,0.0,0.0,0.0,0.0,0.0,0.0,0.0,0.0,0.0,0.0,0.0,0.0,0.0,0.0,0.0,0.0,0.0,0.0,0.0,0.0,0.0,0.0,0.0,0.0,0.0,0.0,0.0,0.0,0.0,0.0,0.0,0.0,0.0,0.0,0.0,0.0,0.0,0.0,0.1059,0.0282,0.1026,0.1757,0.2508,0.3234,0.3954,0.4532,0.4868,0.5162,0.0,0.0,0.0,0.0,0.0,0.0,0.0,0.0,0.0,0.0,0.0,0.0,0.0,0.0,0.0,0.0,0.0,0.0,0.0,0.0,0.0,0.0,0.0,0.0,0.0,0.0,0.0,0.0,0.0,0.0,0.0,0.0,0.0,0.0,0.0,0.0,0.0,0.0,0.0,0.0,0.0,0.0,0.0,0.0,0.0,0.0,0.0,0.0,0.0,0.0,0.0,0.0,0.0,0.0,0.0,0.0,0.0,0.0,0.0,0.0,0.0,0.0,0.0,0.0,0.0,0.0,0.0,0.0,0.0,0.0,0.0,0.0,0.0,0.0,0.0,0.0,0.0,0.0,0.0,0.0,0.0,0.0,0.0,0.0,0.0,0.0,0.0,0.0,0.0,0.0,0.0,0.0,0.0,0.0,0.0,0.0,0.0,0.0,0.0,0.0,0.0,0.0,0.0589,0.0278,0.1034,0.1757,0.2508,0.3234,0.3763,0.4269,0.4859,0.4799,0.0,0.0,0.0,0.0,0.0,0.0,0.0,0.0,0.0,0.0,0.0,0.0,0.0,0.0,0.0,0.0,0.0,0.0,0.0,0.0,0.0,0.0,0.0,0.0,0.0,0.0,0.0,0.0,0.0,0.0,0.0,0.0,0.0,0.0,0.0,0.0,0.0,0.0,0.0,0.0,0.0,0.0,0.0,0.0,0.0,0.0,0.0,0.0,0.0,0.0,0.0,0.0,0.0,0.0,0.0,0.0,0.0,0.0,0.0,0.0,0.0,0.0,0.0,0.0,0.0,0.0,0.0,0.0,0.0,0.0,0.0,0.0,0.0,0.0,0.0,0.0,0.0,0.0,0.0,0.0,0.0,0.0,0.0,0.0,0.0,0.0,0.0,0.0,0.0,0.0,0.0,0.0,0.0,0.0,0.0,0.0,0.0,0.0,0.0,0.0,0.0,0.0,0.0543,0.0454,0.0,0.2035,0.2702,0.3932,0.459,0.4931,0.489,0.0,0.0,0.0,0.0,0.0,0.0,0.0,0.0,0.0,0.0,0.0,0.0,0.0,0.0,0.0,0.0,0.0,0.0,0.0,0.0,0.0,0.0,0.0,0.0,0.0,0.0,0.0,0.0,0.0,0.0,0.0,0.0,0.0,0.0,0.0,0.0,0.0,0.0,0.0,0.0,0.0,0.0,0.0,0.0,0.0,0.0,0.0,0.0,0.0,0.0,0.0,0.0,0.0,0.0,0.0,0.0,0.0,0.0,0.0,0.0,0.0,0.0,0.0,0.0,0.0,0.0,0.0,0.0,0.0,0.0,0.0,0.0,0.0,0.0,0.0,0.0,0.0,0.0,0.0,0.0,0.0,0.0,0.0,0.0,0.0,0.0,0.0,0.0,0.0,0.0,0.0,0.0,0.0,0.0,0.0,0.0,0.0,0.0,0.0,0.0,0.0,0.0,0.1384,0.0737,0.082,0.0,0.2141,0.2734,0.4214,0.4844,0.5043,0.4819,0.0,0.0,0.0,0.0,0.0,0.0,0.0,0.0,0.0,0.0,0.0,0.0,0.0,0.0,0.0,0.0,0.0,0.0,0.0,0.0,0.0,0.0,0.0,0.0,0.0,0.0,0.0,0.0,0.0,0.0,0.0,0.0,0.0,0.0,0.0,0.0,0.0,0.0,0.0,0.0,0.0,0.0,0.0,0.0,0.0,0.0,0.0,0.0,0.0,0.0,0.0,0.0,0.0,0.0,0.0,0.0,0.0,0.0,0.0,0.0,0.0,0.0,0.0,0.0,0.0,0.0,0.0,0.0,0.0,0.0,0.0,0.0,0.0,0.0,0.0,0.0,0.0,0.0,0.0,0.0,0.0,0.0,0.0,0.0,0.0,0.0,0.0,0.0,0.0,0.0,0.0,0.0,0.0,0.0,0.0,0.0,0.0,0.0,0.0,0.0,0.0,0.0,0.1436,0.1178,0.1323,0.1945,0.1992,0.2537,0.388,0.4268,0.447,0.0,0.0,0.0,0.0,0.0,0.0,0.0,0.0,0.0,0.0,0.0,0.0,0.0,0.0,0.0,0.0,0.0,0.0,0.0,0.0,0.0,0.0,0.0,0.0,0.0,0.0,0.0,0.0,0.0,0.0,0.0,0.0,0.0,0.0,0.0,0.0,0.0,0.0,0.0,0.0,0.0,0.0,0.0,0.0,0.0,0.0,0.0,0.0,0.0,0.0,0.0,0.0,0.0,0.0,0.0,0.0,0.0,0.0,0.0,0.0,0.0,0.0,0.0,0.0,0.0,0.0,0.0,0.0,0.0,0.0,0.0,0.0,0.0,0.0,0.0,0.0,0.0,0.0,0.0,0.0,0.0,0.0,0.0,0.0,0.0,0.0,0.0,0.0,0.0,0.0,0.0,0.0,0.0,0.0,0.0,0.0,0.0,0.0,0.0,0.0,0.0,0.0,0.0,0.1394,0.1109,0.1217,0.1922,0.1995,0.2543,0.3898,0.4943,0.5279,0.4637,0.0,0.0,0.0,0.0,0.0,0.0,0.0,0.0,0.0,0.0,0.0,0.0,0.0,0.0,0.0,0.0,0.0,0.0,0.0,0.0,0.0,0.0,0.0,0.0,0.0,0.0,0.0,0.0,0.0,0.0,0.0,0.0,0.0,0.0,0.0,0.0,0.0,0.0,0.0,0.0,0.0,0.0,0.0,0.0,0.0,0.0,0.0,0.0,0.0,0.0,0.0,0.0,0.0,0.0,0.0,0.0,0.0,0.0,0.0,0.0,0.0,0.0,0.0,0.0,0.0,0.0,0.0,0.0,0.0,0.0,0.0,0.0,0.0,0.0,0.0,0.0,0.0,0.0,0.0,0.0,0.0,0.0,0.0,0.0,0.0,0.0,0.0,0.0,0.0,0.0,0.0,0.0,0.0,0.0,0.0,0.0,0.0,0.0,0.0,0.0,0.0,0.0,0.12,0.1218,0.1477,0.1873,0.1919,0.2441,0.3727,0.4988,0.537,0.4575,0.0,0.0,0.0,0.0,0.0,0.0,0.0,0.0,0.0,0.0,0.0,0.0,0.0,0.0,0.0,0.0,0.0,0.0,0.0,0.0,0.0,0.0,0.0,0.0,0.0,0.0,0.0,0.0,0.0,0.0,0.0,0.0,0.0,0.0,0.0,0.0,0.0,0.0,0.0,0.0,0.0,0.0,0.0,0.0,0.0,0.0,0.0,0.0,0.0,0.0,0.0,0.0,0.0,0.0,0.0,0.0,0.0,0.0,0.0,0.0,0.0,0.0,0.0,0.0,0.0,0.0,0.0,0.0,0.0,0.0,0.0,0.0,0.0,0.0,0.0,0.0,0.0,0.0,0.0,0.0,0.0,0.0,0.0,0.0,0.0,0.0,0.0,0.0,0.0,0.0,0.0,0.0,0.0,0.0,0.0,0.0,0.0,0.0,0.0,0.0,0.0,0.0,0.0905,0.1392,0.1866,0.1798,0.1792,0.228,0.3499,0.4635,0.5063,0.449,0.0,0.0,0.0,0.0,0.0,0.0,0.0,0.0,0.0,0.0,0.0,0.0,0.0,0.0,0.0,0.0,0.0,0.0,0.0,0.0,0.0,0.0,0.0,0.0,0.0,0.0,0.0,0.0,0.0,0.0,0.0,0.0,0.0,0.0,0.0,0.0,0.0,0.0,0.0,0.0,0.0,0.0,0.0,0.0,0.0,0.0,0.0,0.0,0.0,0.0,0.0,0.0,0.0,0.0,0.0,0.0,0.0,0.0,0.0,0.0,0.1163,0.0,0.0,0.0,0.0,0.0,0.0,0.0,0.0,0.0,0.0,0.0,0.0,0.0,0.0,0.0,0.0,0.0,0.0,0.0,0.0,0.0,0.0,0.0,0.0,0.0,0.0,0.0,0.0,0.0,0.0,0.0,0.0,0.0,0.0,0.0,0.0,0.0,0.0,0.0,0.0,0.0,0.0823,0.0954,0.1303,0.1743,0.1808,0.2299,0.3493,0.4635,0.5144,0.4823,0.5562,0.0,0.0,0.0,0.0,0.0,0.0,0.0,0.0,0.0,0.0,0.0,0.0,0.0,0.0,0.0,0.0,0.0,0.0,0.0,0.0,0.0,0.0,0.0,0.0,0.0,0.0,0.0,0.0,0.0,0.0,0.0,0.0,0.0,0.0,0.0,0.0,0.0,0.0,0.0,0.0,0.0,0.0,0.0,0.0,0.0,0.0,0.0,0.0,0.0,0.0,0.0,0.0,0.0,0.0,0.0,0.0,0.0,0.0,0.0,0.0,0.086,0.0,0.0,0.0,0.0,0.0,0.0,0.0,0.0,0.0,0.0,0.0,0.0,0.0,0.0,0.0,0.0,0.0,0.0,0.0,0.0,0.0,0.0,0.0,0.0,0.0,0.0,0.0,0.0,0.0,0.0,0.0,0.0,0.0,0.0,0.0,0.0,0.0,0.0,0.0,0.0,0.0501,0.118,0.1784,0.1806,0.2051,0.261,0.3508,0.4635,0.5196,0.4913,0.5695,0.0,0.0,0.0,0.0,0.0,0.0,0.0,0.0,0.0,0.0,0.0,0.0,0.0,0.0,0.0,0.0,0.0,0.0,0.0,0.0,0.0,0.0,0.0,0.0,0.0,0.0,0.0,0.0,0.0,0.0,0.0,0.0,0.0,0.0,0.0,0.0,0.0,0.0,0.0,0.0,0.0,0.0,0.0,0.0,0.0,0.0,0.0,0.0,0.0,0.0,0.0,0.0,0.0,0.0753,0.0472,0.0,0.0,0.0,0.0,0.0,0.0294,0.0802,0.1513,0.0,0.0,0.0,0.0,0.0,0.0,0.0,0.0,0.0,0.0,0.0,0.0,0.0,0.0,0.0,0.0,0.0,0.0,0.0,0.0,0.0,0.0,0.0,0.0,0.0842,0.1403,0.2509,0.0,0.0,0.0,0.0,0.0,0.0,0.0,0.0,0.0,0.0,0.0,0.0456,0.161,0.2384,0.2006,0.2406,0.2943,0.3559,0.4635,0.5206,0.4983,0.5789,0.6156,0.0,0.0,0.0,0.0,0.0,0.0,0.0,0.0,0.0,0.0,0.0,0.0,0.0,0.0,0.0,0.0,0.0,0.0,0.0,0.0,0.0,0.0,0.0,0.0,0.0,0.0,0.0,0.0,0.0,0.0,0.0,0.0,0.2382,0.2703,0.0,0.0,0.0,0.0,0.0,0.0,0.0,0.0,0.0,0.0,0.0,0.0,0.0,0.0741,0.0229,0.0237,0.0209,0.0107,0.011,0.0075,0.0,0.0,0.0,0.0,0.0,0.0,0.0158,0.0803,0.0,0.0,0.0,0.0,0.0,0.0,0.0,0.0,0.0,0.0,0.0,0.0,0.0,0.0,0.0,0.0,0.0,0.0,0.0,0.0,0.0,0.0,0.0884,0.0253,0.0601,0.1296,0.0,0.2303,0.2592,0.2957,0.2458,0.0,0.0,0.0,0.0,0.0,0.0,0.0,0.1551,0.178,0.2095,0.2539,0.265,0.2943,0.3559,0.4635,0.5288,0.5246,0.6056,0.6532,0.647,0.5945,0.0,0.0,0.0,0.0,0.0,0.0,0.0,0.0,0.0,0.0,0.0,0.0,0.0,0.0,0.0,0.0,0.0,0.0,0.0,0.0,0.0,0.0,0.0,0.0,0.0,0.0,0.0,0.0,0.0,0.1831,0.1658,0.2142,0.2134,0.2524,0.0,0.0,0.0,0.0,0.0,0.0,0.0,0.0,0.0,0.0326,0.0368,0.0277,0.0,0.0,0.0,0.0,0.0,0.0,0.0,0.0,0.0,0.0,0.0,0.0,0.0036,0.0739,0.0972,0.0971,0.0,0.0,0.0,0.0,0.1638,0.1263,0.1085,0.0868,0.0758,0.1145,0.0,0.0,0.0,0.0,0.0,0.0,0.0,0.0705,0.0,0.0,0.0404,0.0086,0.0866,0.1779,0.1958,0.2774,0.3436,0.0,0.3029,0.2711,0.2361,0.0,0.0,0.0,0.0,0.202,0.183,0.2383,0.2788,0.2716,0.3009,0.3309,0.3581,0.4635,0.5308,0.5308,0.627,0.668,0.6398,0.6271,0.6034,0.0,0.0,0.0,0.0,0.0,0.0,0.0,0.0,0.0,0.0,0.0,0.0,0.0,0.0,0.0,0.0,0.0,0.0,0.0,0.0,0.0,0.0,0.0,0.0,0.0,0.0,0.0,0.0,0.1353,0.1079,0.1571,0.1682,0.2048,0.0,0.0,0.0,0.0,0.0,0.0,0.0706,0.0676,0.0469,0.0,0.0,0.0,0.0,0.0,0.0,0.0,0.0,0.0,0.0,0.0,0.0,0.0,0.0,0.0,0.004,0.059,0.0753,0.0733,0.1263,0.1439,0.1358,0.1447,0.1132,0.068,0.0784,0.0444,0.0095,0.066,0.0859,0.0903,0.1181,0.0,0.0,0.0,0.0,0.0,0.0,0.0,0.0,0.0,0.118,0.2235,0.2076,0.3242,0.4206,0.0,0.3576,0.3315,0.2838,0.0,0.0,0.0,0.0,0.2597,0.2308,0.3037,0.342,0.2987,0.3331,0.367,0.3796,0.4722,0.5373,0.5524,0.6444,0.68,0.633,0.6499,0.6279,0.5617,0.0,0.0,0.0,0.0,0.0,0.0,0.0,0.0,0.0,0.0,0.0,0.0,0.0,0.0,0.0,0.0,0.0,0.0,0.0,0.0,0.0,0.0,0.0,0.0,0.0,0.0,0.0,0.0,0.0,0.1111,0.1031,0.0,0.0,0.0,0.0,0.1065,0.0972,0.0696,0.0072,0.0036,0.0037,0.0,0.0,0.0,0.0,0.0,0.0,0.0,0.0,0.0,0.0,0.0,0.0,0.0,0.0,0.0,0.0,0.0039,0.0037,0.0035,0.0102,0.01,0.01,0.01,0.0068,0.0035,0.0068,0.0034,0.0139,0.1008,0.1281,0.1245,0.1146,0.061,0.0,0.0,0.0,0.0,0.0,0.0,0.0,0.0,0.1261,0.2431,0.2238,0.3503,0.4538,0.0,0.3525,0.308,0.2918,0.0,0.2171,0.2607,0.2681,0.2898,0.3451,0.3559,0.3581,0.3559,0.3581,0.3818,0.4329,0.493,0.5545,0.6114,0.6689,0.686,0.6593,0.6606,0.6638,0.6712,0.6465,0.0,0.0,0.0,0.0,0.0,0.0,0.0,0.0,0.0,0.0,0.0,0.0,0.0,0.0,0.0,0.0,0.0,0.0,0.0,0.0,0.0,0.0,0.0,0.0,0.0,0.0,0.0,0.0,0.0429,0.077,0.0,0.1392,0.1372,0.1243,0.1062,0.059,0.0217,0.0,0.0,0.0,0.0,0.0,0.0,0.0,0.0,0.0,0.0,0.0,0.0,0.0,0.0,0.0,0.0,0.0,0.0,0.0,0.0,0.0,0.0,0.0,0.0,0.0,0.0,0.0,0.0,0.0,0.0,0.0036,0.0349,0.0477,0.0466,0.0412,0.0219,0.0,0.0,0.0,0.0,0.0,0.0,0.0131,0.0717,0.17,0.2649,0.3113,0.401,0.464,0.4484,0.4108,0.3729,0.3524,0.3375,0.3322,0.3401,0.3472,0.361,0.3829,0.3778,0.374,0.374,0.3958,0.4198,0.4387,0.5308,0.5875,0.5882,0.6422,0.652,0.6039,0.6386,0.6593,0.6599,0.7115,0.7114,0.0,0.0,0.0,0.0,0.0,0.0,0.0,0.0,0.0,0.0,0.0,0.0,0.0,0.0,0.0,0.0,0.0,0.0,0.0,0.0,0.0,0.0,0.0,0.0,0.0,0.0,0.0448,0.0033,0.0416,0.0712,0.0727,0.0744,0.073,0.0716,0.0267,0.0,0.0,0.0,0.0,0.0,0.0,0.0,0.0,0.0,0.0,0.0,0.0,0.0,0.0,0.0,0.0,0.0,0.0,0.0,0.0,0.0,0.0,0.0,0.0,0.0,0.0,0.0,0.0,0.0,0.0,0.0,0.0,0.0,0.0,0.0,0.0,0.0,0.0,0.0,0.0,0.0,0.0,0.0,0.0236,0.1106,0.195,0.2792,0.3631,0.435,0.4823,0.4775,0.4524,0.4213,0.3988,0.4004,0.4018,0.3894,0.3955,0.3998,0.3998,0.3934,0.3846,0.3799,0.4222,0.4551,0.47,0.5706,0.6288,0.6137,0.6622,0.6646,0.6039,0.6563,0.6843,0.6803,0.7632,0.7757,0.7143,0.0,0.0,0.0,0.0,0.0,0.0,0.0,0.0,0.0,0.0,0.0,0.0,0.0,0.0,0.0,0.0,0.0,0.0,0.0,0.0,0.0,0.0,0.0,0.0676,0.0283,0.0,0.0,0.0,0.0,0.0,0.0,0.0,0.0,0.0,0.0,0.0,0.0,0.0,0.0,0.0,0.0,0.0046,0.0047,0.0047,0.0046,0.0046,0.0046,0.0,0.0,0.0,0.0,0.0,0.0,0.0,0.0,0.0,0.0,0.0,0.0042,0.0042,0.0,0.0,0.0,0.0,0.0,0.0,0.0,0.0,0.0,0.0,0.0,0.0,0.0036,0.0036,0.0035,0.0035,0.0034,0.027,0.114,0.2041,0.2924,0.3677,0.4524,0.5056,0.4921,0.468,0.4457,0.426,0.4207,0.4153,0.4031,0.4011,0.0,0.4011,0.4004,0.3944,0.3819,0.4361,0.4901,0.5273,0.6124,0.6738,0.6964,0.7303,0.7196,0.662,0.7088,0.7393,0.7432,0.7957,0.8286,0.8414,0.0,0.0,0.0,0.0,0.0,0.0,0.0,0.0,0.0,0.0,0.0,0.0,0.0,0.0,0.0,0.0,0.0,0.0,0.0,0.0,0.0,0.041,0.0187,0.0187,0.0069,0.0,0.0,0.0,0.0,0.0,0.0,0.0,0.0,0.0,0.0,0.0,0.0,0.0,0.0,0.0,0.0466,0.1463,0.1471,0.1471,0.1463,0.1442,0.0922,0.0,0.0,0.0,0.0,0.0,0.0,0.0,0.0,0.0,0.0,0.0,0.0517,0.1201,0.0336,0.0,0.0,0.0,0.0,0.0,0.0,0.0,0.0,0.0,0.0,0.0149,0.095,0.1159,0.1147,0.116,0.1149,0.1342,0.2119,0.2509,0.3105,0.4641,0.5048,0.509,0.5049,0.4918,0.4748,0.4592,0.4477,0.4416,0.4375,0.4368,0.0,0.4368,0.422,0.4146,0.4099,0.503,0.5581,0.5457,0.6552,0.7102,0.6734,0.6807,0.6687,0.633,0.664,0.7297,0.8319,0.8622,0.881,0.0,0.0,0.0,0.0,0.0,0.0,0.0,0.0,0.0,0.0,0.0,0.0,0.0,0.0,0.0,0.0,0.0,0.0,0.0,0.0,0.0,0.0,0.0193,0.0,0.0,0.0,0.0,0.0,0.0,0.0,0.0,0.0,0.0,0.0,0.0,0.0,0.0,0.0,0.0,0.0,0.0,0.0668,0.1973,0.1989,0.1989,0.2022,0.1998,0.1321,0.0,0.0,0.0,0.0,0.0,0.0,0.0,0.0,0.0,0.0,0.0,0.0,0.0,0.0,0.0756,0.07,0.0163,0.0322,0.0675,0.0157,0.0,0.0,0.0,0.0,0.023,0.1282,0.1603,0.1693,0.2102,0.2202,0.233,0.3147,0.3272,0.3647,0.5093,0.5324,0.5223,0.5223,0.5108,0.0,0.4809,0.466,0.4566,0.4498,0.4732,0.4814,0.4546,0.4653,0.46,0.4227,0.5327,0.5936,0.5533,0.6821,0.0,0.0,0.0,0.695,0.6904,0.7277,0.0,0.0,0.0,0.0,0.0,0.0,0.0,0.0,0.9127,0.8929,0.0,0.0,0.0,0.0,0.0,0.0,0.0,0.0,0.0,0.0,0.0,0.0,0.0,0.0,0.0,0.0,0.0,0.0,0.0,0.0,0.0,0.0,0.0,0.0,0.0,0.0,0.0,0.0,0.0,0.0,0.0,0.0,0.0,0.0,0.0,0.0881,0.2206,0.2394,0.2394,0.2206,0.2398,0.16,0.0,0.014,0.0139,0.0,0.0,0.009,0.018,0.0045,0.0,0.0,0.0135,0.0763,0.1609,0.1883,0.193,0.1678,0.0742,0.0,0.0,0.0555,0.0118,0.0,0.0,0.0,0.0235,0.145,0.1773,0.2009,0.302,0.3165,0.3256,0.4017,0.4099,0.4251,0.5193,0.5392,0.5392,0.5392,0.5348,0.5202,0.4965,0.4802,0.4668,0.4511,0.5081,0.53,0.4677,0.5136,0.5244,0.4545,0.0,0.0,0.5729,0.7085,0.7699,0.7086,0.7316,0.7556,0.7774,0.8316,0.8866,0.9408,0.9979,1.0312,1.0371,1.043,1.0645,1.0937,0.9412,0.9082,0.0,0.0,0.0,0.0,0.0,0.0,0.0,0.0,0.0,0.0,0.0,0.0,0.0,0.0,0.0,0.0,0.0,0.0,0.0,0.0,0.0,0.0,0.0,0.0,0.0,0.0,0.0,0.0,0.0,0.0,0.0,0.0,0.0,0.0,0.105,0.2234,0.3595,0.4664,0.4664,0.3645,0.0,0.0,0.0049,0.1099,0.1041,0.0,0.0,0.056,0.1378,0.0414,0.0,0.009,0.1076,0.0986,0.0583,0.2536,0.2629,0.1893,0.2656,0.241,0.1742,0.1541,0.0806,0.0,0.0,0.0,0.0,0.2267,0.2804,0.3049,0.4124,0.4306,0.4186,0.4206,0.4099,0.4251,0.5193,0.5392,0.5392,0.5392,0.5949,0.6092,0.5209,0.487,0.4668,0.4511,0.5081,0.5456,0.5328,0.5429,0.5665,0.6098,0.6367,0.6655,0.6937,0.7772,0.8053,0.7437,0.7201,0.7123,0.7175,0.7739,0.8296,0.8846,0.9694,1.0351,1.0781,1.1154,1.139,1.1447,1.0742,1.0703,0.0,0.0,0.0,0.0,0.0,0.0,0.0,0.0,0.0,0.0,0.0,0.0739,0.0486,0.0,0.0,0.0,0.0,0.0,0.0,0.0,0.0,0.0,0.0,0.0,0.0,0.0,0.0,0.0,0.0,0.0,0.0,0.0,0.0284,0.0965,0.1657,0.2961,0.4968,0.5022,0.5022,0.5018,0.5025,0.3617,0.1043,0.2385,0.2268,0.1061,0.1719,0.2364,0.2808,0.153,0.0959,0.0896,0.0896,0.0538,0.0314,0.2725,0.3238,0.2766,0.3389,0.3224,0.259,0.1993,0.0991,0.0082,0.0644,0.0798,0.1234,0.3331,0.3904,0.4167,0.5237,0.5389,0.5213,0.5045,0.4879,0.4907,0.5312,0.5392,0.5392,0.5392,0.6104,0.6497,0.5848,0.5655,0.5337,0.4698,0.542,0.5928,0.5538,0.5819,0.6199,0.6561,0.6588,0.6791,0.7263,0.7834,0.8016,0.7722,0.7539,0.7602,0.7944,0.8495,0.8931,0.919,1.0306,1.0825,1.076,1.1315,1.1702,1.1895,1.168,1.1562,0.0,0.0,0.0,0.0,0.0,0.0,0.0,0.0,0.1319,0.0835,0.0734,0.0562,0.0072,0.0,0.0,0.0,0.0,0.0,0.0,0.0,0.0,0.0,0.0,0.0,0.0,0.0,0.0,0.0,0.0,0.0,0.0,0.0,0.0635,0.1956,0.2233,0.3557,0.5977,0.5172,0.5172,0.5977,0.5172,0.3917,0.2412,0.3762,0.3638,0.2455,0.3802,0.4201,0.3908,0.2795,0.2148,0.1711,0.0494,0.0,0.0314,0.2725,0.3616,0.365,0.4118,0.3964,0.3473,0.2759,0.152,0.0548,0.1637,0.1948,0.2301,0.4169,0.4686,0.4963,0.6022,0.6146,0.5959,0.5874,0.5718,0.5555,0.5467,0.5419,0.5392,0.5392,0.6104,0.6636,0.6491,0.6566,0.6318,0.5312,0.6015,0.6492,0.5982,0.6443,0.6858,0.702,0.6885,0.7025,0.7538,0.7832,0.7992,0.7992,0.7939,0.8136,0.8671,0.9236,0.9603,0.9694,1.0799,1.1236,1.0922,1.1401,1.1879,1.234,1.234,1.2168,0.4423,0.3712,0.2823,0.2202,0.1978,0.1793,0.0,0.0,0.08,0.0205,0.0108,0.0074,0.0,0.0,0.0,0.0,0.0,0.0,0.0,0.0,0.0,0.0,0.0,0.0,0.0,0.0,0.0,0.0,0.0,0.0,0.0,0.0,0.0626,0.1954,0.3136,0.4498,0.5977,0.703,0.703,0.6032,0.7036,0.6221,0.3817,0.5164,0.5055,0.3851,0.5054,0.5015,0.3985,0.3698,0.2946,0.1838,0.0497,0.0,0.0314,0.2725,0.3616,0.3879,0.6007,0.5333,0.3765,0.4688,0.3449,0.18,0.2873,0.3157,0.3341,0.4403,0.4686,0.4963,0.6022,0.6146,0.5986,0.5973,0.5793,0.5583,0.5569,0.5494,0.5392,0.5392,0.6104,0.6678,0.6661,0.7153,0.738,0.6893,0.6861,0.6994,0.7392,0.753,0.7836,0.8487,0.7969,0.7877,0.8567,0.8472,0.8348,0.8348,0.8059,0.7923,0.7994,0.8639,0.9213,0.9694,1.0241,1.1019,1.201,1.1876,1.2153,1.2812,1.2812,1.2798,0.4107,0.3328,0.2466,0.0,0.1494,0.135,0.0687,0.0453,0.0316,0.0036,0.0572,0.1028,0.1042,0.161,0.1876,0.0,0.1061,0.0799,0.009,0.0,0.0,0.0,0.0,0.0,0.0,0.0,0.0,0.0,0.0,0.0329,0.1129,0.1162,0.2121,0.427,0.4868,0.5832,0.7135,0.6936,0.6936,0.7185,0.6936,0.6226,0.5222,0.6531,0.688,0.6371,0.6872,0.6758,0.6096,0.4562,0.3578,0.2856,0.0779,0.0408,0.1255,0.2948,0.3616,0.3927,0.629,0.6024,0.4723,0.5259,0.423,0.3017,0.3976,0.4253,0.4426,0.5375,0.5628,0.575,0.6183,0.6252,0.6139,0.6013,0.5867,0.5691,0.561,0.5501,0.5392,0.5392,0.6104,0.685,0.7372,0.7683,0.809,0.8759,0.8178,0.7678,0.7699,0.7691,0.7809,0.8129,0.8262,0.846,0.8778,0.8697,0.8631,0.8631,0.8878,0.8994,0.8994,1.0027,1.0513,1.0343,1.0932,1.1458,1.1985,1.184,1.2172,1.2915,1.2915,1.2915,0.3223,0.2519,0.1896,0.1012,0.0875,0.0762,0.0144,0.0,0.0,0.0,0.0911,0.1751,0.1741,0.2706,0.3071,0.1945,0.1729,0.1334,0.0179,0.0268,0.031,0.0044,0.0263,0.031,0.0045,0.0,0.0,0.0,0.0,0.0573,0.1917,0.1978,0.3218,0.5927,0.5977,0.6631,0.7988,0.7036,0.7036,0.7988,0.7036,0.6531,0.6581,0.7534,0.7988,0.7988,0.7988,0.7928,0.7674,0.5484,0.4279,0.3648,0.1437,0.1053,0.194,0.3176,0.3794,0.4372,0.6378,0.634,0.5447,0.5758,0.5087,0.4255,0.5172,0.5429,0.5523,0.6192,0.6327,0.63,0.63,0.63,0.6272,0.6118,0.5976,0.5827,0.5677,0.5562,0.5446,0.5405,0.5914,0.6687,0.7795,0.7989,0.8462,0.9879,0.9237,0.8493,0.8169,0.8032,0.7996,0.7996,0.8487,0.8804,0.8804,0.8804,0.8804,0.8804,0.9432,0.9795,0.9795,1.1091,1.1566,1.1091,1.1566,1.1789,1.1789,1.1789,1.208,1.2608,1.2798,1.2915,0.166,0.117,0.0975,0.0206,0.0036,0.0037,0.0,0.0,0.0,0.0,0.0853,0.1624,0.1625,0.2439,0.2787,0.1773,0.1605,0.1225,0.0134,0.088,0.1172,0.0131,0.0937,0.1146,0.0087,0.0,0.0,0.0,0.0,0.0576,0.1904,0.1992,0.3218,0.5927,0.5977,0.6631,0.7988,0.7939,0.7939,0.7988,0.7939,0.7939,0.7939,0.7988,0.7988,0.7988,0.7988,0.7988,0.7869,0.6496,0.5174,0.3843,0.2483,0.1893,0.1932,0.315,0.4328,0.5536,0.6694,0.634,0.5581,0.6694,0.6296,0.5515,0.6529,0.6733,0.6627,0.6512,0.6409,0.63,0.63,0.63,0.63,0.6293,0.6132,0.5946,0.5827,0.5684,0.5542,0.5426,0.5425,0.598,0.7697,0.7989,0.8462,0.9879,0.983,0.9537,0.9203,0.8924,0.8778,0.8778,0.8778,0.8804,0.8804,0.8804,0.8804,0.8804,0.9432,0.9795,0.9795,1.1091,1.1789,1.1765,1.1789,1.1789,1.1789,1.1789,1.1814,1.1839,1.2559,1.2915,0.1386,0.0816,0.0316,0.0075,0.0,0.0,0.0,0.0,0.0205,0.0895,0.1865,0.2822,0.3529,0.4593,0.5028,0.3966,0.3175,0.2662,0.2408,0.2001,0.1839,0.217,0.1902,0.0,0.1106,0.0434,0.0,0.0,0.0841,0.1908,0.326,0.415,0.5477,0.7285,0.7335,0.7534,0.7988,0.7988,0.7988,0.7988,0.7988,0.7988,0.7988,0.7988,0.7988,0.7988,0.7988,0.7988,0.7882,0.6537,0.5733,0.5165,0.3752,0.3638,0.4368,0.4678,0.5531,0.6605,0.6966,0.6827,0.6605,0.6959,0.6827,0.658,0.6844,0.6824,0.6668,0.6559,0.6409,0.63,0.63,0.63,0.63,0.63,0.6139,0.5952,0.5833,0.5691,0.5542,0.5426,0.5392,0.5947,0.7697,0.7989,0.8462,0.9879,0.967,0.9257,0.8964,0.8871,0.8804,0.8804,0.8804,0.8804,0.8804,0.8804,0.8989,0.9432,1.009,1.0458,1.0458,1.1783,1.2295,1.1814,1.1789,1.2055,1.2535,1.2055,1.2055,1.2535,1.2774,1.3027,0.0882,0.044,0.0,0.0,0.0,0.0,0.0,0.0294,0.075,0.1372,0.2565,0.3724,0.4389,0.54,0.5688,0.4385,0.3579,0.3059,0.2975,0.2576,0.2451,0.2722,0.2504,0.1996,0.0,0.0,0.0,0.0,0.1262,0.2576,0.3933,0.5286,0.6631,0.7939,0.7988,0.7988,0.7988,0.7988,0.7988,0.7988,0.7988,0.7988,0.7988,0.7988,0.7988,0.7988,0.7988,0.7988,0.7939,0.7086,0.6437,0.5909,0.4975,0.502,0.5573,0.5506,0.6153,0.7098,0.7098,0.7098,0.7098,0.7098,0.7098,0.7078,0.6991,0.6865,0.6681,0.658,0.645,0.63,0.63,0.63,0.63,0.63,0.6186,0.6071,0.5915,0.5766,0.5623,0.5508,0.5433,0.5947,0.7697,0.8517,0.9206,0.9971,0.9764,0.9377,0.8991,0.8871,0.8804,0.8804,0.8804,0.8804,0.8804,0.8804,0.908,0.9769,1.0448,1.0914,1.1141,1.2289,1.2681,1.2203,1.2178,1.2295,1.251,1.2295,1.2295,1.251,1.2929,1.3392,0.0225,0.0,0.0,0.0,0.0,0.0,0.0085,0.0881,0.1569,0.146,0.2887,0.419,0.0,0.0,0.4902,0.3324,0.2939,0.2635,0.2122,0.2856,0.308,0.0,0.0,0.0,0.0,0.0,0.0,0.0092,0.0,0.2685,0.4055,0.5372,0.6681,0.7939,0.7988,0.7988,0.7988,0.7988,0.7988,0.7988,0.7988,0.7988,0.7988,0.7988,0.7988,0.7988,0.7988,0.7988,0.7988,0.7988,0.7235,0.6116,0.6095,0.5931,0.5722,0.5701,0.6268,0.7098,0.7098,0.7098,0.7098,0.7098,0.7098,0.7098,0.7098,0.6896,0.6715,0.6715,0.6498,0.6313,0.6313,0.6306,0.63,0.63,0.63,0.6259,0.6027,0.5915,0.5772,0.5616,0.5569,0.6046,0.7707,0.9448,1.0492,1.018,1.0097,0.9884,0.9311,0.8978,0.8831,0.8831,0.8844,0.8857,0.8857,0.8883,0.9185,0.9858,1.0483,1.1141,1.1839,1.2535,1.2915,1.2915,1.2915,1.2559,1.1864,1.2559,1.2535,1.19,1.2998,1.3922,0.0079,0.0,0.0,0.0,0.0,0.0217,0.0991,0.1282,0.1779,0.3179,0.3705,0.4108,0.0,0.0,0.0,0.5237,0.4713,0.0,0.5626,0.5245,0.0,0.5665,0.0,0.3291,0.2721,0.106,0.0,0.0,0.2749,0.4069,0.5417,0.6761,0.764,0.7988,0.7988,0.7988,0.7988,0.7988,0.7988,0.7988,0.7988,0.7988,0.7988,0.7988,0.7988,0.7988,0.7988,0.7988,0.7988,0.7988,0.7789,0.7459,0.7267,0.7152,0.7042,0.6795,0.6859,0.7098,0.7098,0.7098,0.7098,0.7098,0.7098,0.7098,0.7098,0.697,0.6829,0.6829,0.6654,0.6457,0.6457,0.6381,0.63,0.63,0.63,0.6259,0.6027,0.5959,0.5895,0.5637,0.653,0.7479,0.7924,0.9448,1.0559,1.0492,1.0261,0.998,0.9619,0.9284,0.9098,0.9098,0.9364,0.9536,0.9536,0.9987,1.0585,1.1241,1.1466,1.1882,1.2584,1.2798,1.2915,1.2915,1.2915,1.2798,1.2608,1.2798,1.2953,1.3068,1.3361,1.4244,0.0,0.0,0.0,0.0,0.035,0.0818,0.1296,0.1997,0.2841,0.375,0.4105,0.0,0.4928,0.5121,0.0,0.0,0.0,0.0,0.6065,0.5769,0.5646,0.0,0.5259,0.0,0.3824,0.2548,0.229,0.0,0.3895,0.459,0.5907,0.726,0.7988,0.7988,0.7988,0.7988,0.7988,0.7988,0.7988,0.7988,0.7988,0.7988,0.7988,0.7988,0.7988,0.7988,0.7988,0.7988,0.7988,0.7988,0.7988,0.7975,0.7855,0.7712,0.7577,0.7407,0.7213,0.7098,0.7098,0.7098,0.7098,0.7098,0.7098,0.7098,0.7098,0.6997,0.6883,0.6883,0.6709,0.6511,0.6511,0.6409,0.63,0.63,0.63,0.6279,0.6152,0.6078,0.6052,0.6159,0.7456,0.8581,0.8581,0.9716,1.0586,1.0586,1.0452,1.0278,1.0117,0.9699,0.9351,0.9231,0.9694,0.9971,0.9795,1.0407,1.1091,1.1765,1.1789,1.2129,1.2871,1.2915,1.2915,1.2915,1.2915,1.2993,1.3145,1.3145,1.3379,1.3763,1.3984,1.4727,0.026,0.0221,0.0269,0.0403,0.1008,0.1564,0.1504,0.2889,0.4123,0.3948,0.0,0.4884,0.4977,0.4841,0.4608,0.4282,0.0,0.4642,0.5252,0.5496,0.5662,0.5858,0.569,0.5227,0.4343,0.4113,0.4574,0.5874,0.4903,0.4854,0.6176,0.7372,0.7988,0.7988,0.7988,0.7988,0.7988,0.7988,0.7988,0.7988,0.7988,0.7988,0.7988,0.7988,0.7988,0.7988,0.7988,0.7988,0.7988,0.7988,0.7988,0.7988,0.7968,0.7841,0.7597,0.7577,0.7387,0.7098,0.7098,0.7098,0.7098,0.7098,0.7098,0.7098,0.7098,0.7011,0.6959,0.7125,0.7,0.6808,0.6746,0.6666,0.6514,0.6345,0.6416,0.6493,0.6493,0.6435,0.6558,0.7043,0.8325,0.9347,0.9312,1.0015,1.0586,1.0586,1.0586,1.0586,1.0586,1.0117,0.9675,0.9491,1.0102,1.0443,1.0259,1.0833,1.1497,1.2077,1.2047,1.2339,1.3022,1.3013,1.2988,1.3071,1.3071,1.3223,1.3594,1.3594,1.3782,1.4192,1.4609,1.5285,0.1498,0.1473,0.1695,0.2539,0.203,0.1742,0.3304,0.3777,0.0,0.0,0.5128,0.4861,0.531,0.51,0.4977,0.5267,0.0,0.0,0.0,0.0,0.6801,0.0,0.6274,0.5598,0.5654,0.4674,0.0,0.0,0.5802,0.625,0.7601,0.7875,0.7988,0.7988,0.7988,0.7988,0.7988,0.7988,0.7988,0.7988,0.7988,0.7988,0.7988,0.7988,0.7988,0.7988,0.7988,0.0,0.7988,0.7988,0.7988,0.7975,0.7902,0.7746,0.7584,0.7455,0.7299,0.7098,0.7098,0.7098,0.7098,0.7098,0.7098,0.7098,0.7098,0.7078,0.7278,0.8277,0.8426,0.8263,0.8106,0.7982,0.7619,0.656,0.6949,0.7557,0.7557,0.8076,0.8515,0.8343,0.9005,0.9547,0.9335,1.0015,1.0586,1.0586,1.0586,1.0586,1.0586,1.0261,1.0246,1.0887,1.1337,1.187,1.2474,1.3146,1.359,1.3695,1.3394,1.3407,1.388,1.3574,1.3529,1.388,1.3899,1.3919,1.3997,1.3997,1.4231,1.4668,1.4746,1.5697,0.1953,0.1791,0.2047,0.3092,0.2723,0.2463,0.3724,0.0,0.0,0.0,0.5514,0.545,0.5313,0.5349,0.0,0.5253,0.5488,0.0,0.0,0.0,0.0,0.0,0.0,0.6745,0.0,0.6476,0.6326,0.6986,0.7036,0.7335,0.7988,0.7988,0.7988,0.7988,0.7988,0.7988,0.7988,0.7988,0.7988,0.7988,0.7988,0.7988,0.7988,0.7988,0.7988,0.7988,0.7988,0.7988,0.7988,0.7988,0.7988,0.7982,0.7907,0.7794,0.759,0.7516,0.7339,0.7098,0.7098,0.7098,0.7098,0.7098,0.7098,0.7098,0.7098,0.7098,0.7224,0.7797,0.8319,0.8649,0.837,0.8233,0.8007,0.725,0.7442,0.7931,0.8466,0.9231,0.9724,0.9567,1.0089,1.0514,1.0236,1.0897,1.1227,1.0676,1.0951,1.1076,1.0649,1.0466,1.0441,1.0657,1.1575,1.2259,1.2446,1.3457,1.4114,1.4114,1.3919,1.3899,1.4094,1.3919,1.3899,1.4094,1.4114,1.4211,1.4473,1.4473,1.4687,1.5117,1.5117,1.5595,0.2738,0.2539,0.28,0.3851,0.3643,0.3348,0.3996,0.4951,0.0,0.0,0.5747,0.5958,0.544,0.0,0.5486,0.0,0.5142,0.5556,0.0,0.0,0.0,0.0,0.0,0.0,0.7961,0.7988,0.0,0.7988,0.7988,0.7988,0.7988,0.7988,0.7988,0.7988,0.7988,0.7988,0.7988,0.7988,0.7988,0.7988,0.7988,0.7988,0.7988,0.7988,0.7988,0.7988,0.7988,0.7988,0.7988,0.7988,0.7988,0.7988,0.7955,0.7828,0.7597,0.7563,0.738,0.7098,0.7098,0.7098,0.7098,0.7098,0.7098,0.7098,0.7098,0.7098,0.7224,0.7702,0.8473,0.9072,0.8964,0.8944,0.8848,0.8521,0.8456,0.8723,0.9707,1.041,1.0803,1.0743,1.1138,1.1423,1.1142,1.1699,1.1911,1.1058,1.1418,1.1562,1.0919,1.0713,1.0506,1.0234,1.1616,1.2493,1.2405,1.3608,1.4387,1.4387,1.4289,1.4289,1.4367,1.4289,1.4289,1.4387,1.4387,1.4543,1.4922,1.4922,1.5078,1.541,1.541,1.5584,0.4827,0.4927,0.5264,0.6153,0.5235,0.4276,0.5073,0.0,0.5483,0.5987,0.5962,0.5883,0.608,0.5579,0.5116,0.0,0.0,0.5326,0.0,0.0,0.0,0.0,0.0,0.0,0.7961,0.7988,0.0,0.7988,0.7988,0.7988,0.7988,0.7988,0.7988,0.7988,0.7988,0.7988,0.7988,0.7988,0.7988,0.7988,0.7988,0.7988,0.7988,0.7988,0.7988,0.7988,0.7988,0.7988,0.0,0.7988,0.7988,0.7975,0.7889,0.774,0.7584,0.7441,0.7285,0.7098,0.7098,0.7098,0.7098,0.7098,0.7098,0.7098,0.7098,0.7098,0.7533,0.9662,1.0336,1.057,1.1213,1.1398,1.122,1.0674,1.0522,1.0783,1.1811,1.2094,1.2038,1.181,1.1815,1.173,1.1402,1.1841,1.2178,1.2052,1.1896,1.1764,1.1717,1.1045,1.0586,1.0559,1.1981,1.3245,1.3927,1.478,1.5264,1.5264,1.4941,1.4902,1.5273,1.4922,1.4902,1.5293,1.5264,1.5312,1.5352,1.5352,1.5371,1.541,1.541,1.6112,0.4939,0.4142,0.3755,0.6034,0.4864,0.3659,0.5561,0.0,0.5875,0.6436,0.6705,0.6637,0.6081,0.5853,0.5509,0.477,0.4694,0.4904,0.5379,0.0,0.0,0.0,0.0,0.0,0.0,0.0,0.7988,0.7988,0.7988,0.7988,0.7988,0.7988,0.7988,0.7988,0.7988,0.7988,0.7988,0.7988,0.7988,0.7988,0.7988,0.7988,0.7988,0.7988,0.7988,0.7988,0.7988,0.7988,0.0,0.7988,0.7988,0.7975,0.7868,0.7726,0.7584,0.7428,0.7272,0.7098,0.7098,0.7098,0.7098,0.7098,0.7098,0.7098,0.7098,0.7098,0.7445,0.9096,1.0053,1.0761,1.1416,1.1374,1.1091,1.0879,1.0783,1.1093,1.207,1.2305,1.2265,1.2144,1.2131,1.2037,1.1744,1.2741,1.3384,1.2734,1.2756,1.2696,1.2237,1.1252,1.0586,1.0586,1.2027,1.313,1.3463,1.4658,1.541,1.541,1.5254,1.5234,1.5381,1.5254,1.5234,1.541,1.541,1.541,1.541,1.541,1.541,1.541,1.541,1.6139,0.4854,0.3812,0.3281,0.5445,0.4435,0.3534,0.0,0.6138,0.6107,0.6676,0.7109,0.7039,0.5976,0.5962,0.5724,0.4676,0.4532,0.4716,0.5135,0.546,0.0,0.0,0.0,0.7414,0.0,0.7941,0.7988,0.7988,0.7988,0.7988,0.7988,0.7988,0.7988,0.7988,0.7988,0.7988,0.7988,0.7988,0.7988,0.7988,0.7988,0.7988,0.7988,0.7988,0.7988,0.7988,0.7988,0.7988,0.0,0.7988,0.7961,0.7907,0.7807,0.7658,0.7516,0.736,0.7238,0.7098,0.7098,0.7098,0.7098,0.7098,0.7098,0.7098,0.7098,0.7098,0.7401,0.8973,1.0353,1.1486,1.1866,1.1607,1.1242,1.1242,1.1242,1.1428,1.2144,1.2305,1.2305,1.2305,1.2305,1.2238,1.2074,1.3179,1.3826,1.3063,1.3162,1.3091,1.2417,1.1389,1.0776,1.0933,1.2182,1.3009,1.3009,1.4481,1.541,1.541,1.541,1.541,1.541,1.5613,1.5613,1.541,1.5613,1.5613,1.541,1.541,1.5497,1.5729,1.5907,1.6896,0.493,0.4889,0.5007,0.4781,0.4362,0.4364,0.5854,0.599,0.5989,0.6655,0.6914,0.6755,0.5956,0.5795,0.5517,0.4627,0.4614,0.4873,0.533,0.561,0.0,0.0,0.0,0.7109,0.7563,0.782,0.7988,0.7988,0.7988,0.0,0.7988,0.7988,0.7988,0.7988,0.7988,0.7988,0.7988,0.7988,0.7988,0.7988,0.7988,0.7988,0.7988,0.7988,0.7988,0.7988,0.7988,0.7988,0.0,0.7988,0.7901,0.7801,0.7658,0.7509,0.7353,0.7197,0.7098,0.7098,0.7098,0.7098,0.7098,0.7098,0.7098,0.7098,0.7098,0.7098,0.7577,0.9913,1.1815,1.3174,1.3174,1.2759,1.2268,1.2268,1.2268,1.2305,1.2305,1.2305,1.2305,1.2305,1.2305,1.2305,1.2305,1.2734,1.312,1.3085,1.2888,1.258,1.227,1.1493,1.1187,1.1747,1.2504,1.3009,1.3009,1.4481,1.541,1.541,1.541,1.541,1.541,1.6083,1.6161,1.541,1.6112,1.6132,1.541,1.541,1.5787,1.6503,1.7088,1.874,0.4982,0.4176,0.3454,0.485,0.4334,0.4103,0.6306,0.6273,0.6135,0.7314,0.7263,0.6885,0.6541,0.6111,0.5726,0.5546,0.5136,0.0,0.0,0.0,0.0,0.0,0.0,0.7698,0.0,0.0,0.7988,0.7988,0.7988,0.7988,0.7988,0.7988,0.7988,0.7988,0.7988,0.7988,0.7988,0.7988,0.7988,0.7988,0.7988,0.7988,0.7988,0.7988,0.7988,0.7988,0.7988,0.7928,0.7882,0.7882,0.7794,0.7651,0.7502,0.746,0.7398,0.7152,0.7098,0.7098,0.7098,0.7098,0.7098,0.7098,0.7098,0.7098,0.7098,0.7098,0.7577,0.9956,1.1845,1.3213,1.3213,1.2759,1.2305,1.2305,1.2305,1.2305,1.2305,1.2305,1.2305,1.2305,1.2305,1.2305,1.2305,1.2976,1.3517,1.3517,1.3284,1.3305,1.3844,1.2971,1.2482,1.2996,1.3808,1.4166,1.3842,1.4776,1.541,1.541,1.541,1.541,1.541,1.6112,1.6397,1.614,1.6368,1.6397,1.614,1.5642,1.5985,1.7167,1.9118,2.0434,0.4504,0.3789,0.3105,0.4394,0.4009,0.3923,0.6296,0.6296,0.6186,0.7495,0.7339,0.6924,0.6684,0.6192,0.5774,0.5679,0.5136,0.4891,0.0,0.0,0.0,0.0,0.0,0.0,0.0,0.7928,0.7988,0.7988,0.7988,0.7988,0.7988,0.7988,0.7988,0.7988,0.7988,0.7988,0.7988,0.7988,0.7988,0.7988,0.7988,0.7988,0.7988,0.7988,0.7961,0.7907,0.7907,0.7868,0.0,0.7733,0.7645,0.7502,0.7453,0.7333,0.7272,0.7132,0.7098,0.7098,0.7098,0.7098,0.7098,0.7098,0.7401,0.7797,0.7797,0.8097,0.8834,1.0692,1.2248,1.3347,1.324,1.2839,1.2438,1.2331,1.2305,1.2305,1.2305,1.2305,1.2305,1.2305,1.2305,1.2415,1.2769,1.3317,1.381,1.4207,1.4128,1.4185,1.4627,1.4056,1.3749,1.4266,1.4804,1.508,1.4918,1.5195,1.541,1.541,1.541,1.541,1.541,1.6368,1.6793,1.651,1.7052,1.7328,1.7248,1.7277,1.7656,1.8398,2.0582,2.172,0.0,0.3705,0.3786,0.3661,0.3496,0.387,0.5854,0.5993,0.0,0.7205,0.7163,0.6843,0.6497,0.6094,0.5661,0.5257,0.4825,0.4743,0.0,0.5603,0.0,0.0,0.736,0.0,0.7631,0.7833,0.7988,0.7988,0.7988,0.7988,0.7988,0.7988,0.7988,0.7988,0.7988,0.7988,0.7988,0.7988,0.7988,0.7988,0.7988,0.7988,0.7988,0.7988,0.7907,0.0,0.7814,0.7726,0.7584,0.7584,0.7495,0.7398,0.7398,0.7265,0.7098,0.7098,0.7098,0.7098,0.7098,0.7143,0.7224,0.7224,0.7973,0.8938,0.8973,0.9836,1.095,1.198,1.2925,1.3533,1.328,1.3012,1.2717,1.2371,1.2305,1.2305,1.2305,1.2305,1.2305,1.2305,1.2305,1.2586,1.3535,1.3702,1.4027,1.5065,1.519,1.511,1.4864,1.4831,1.5018,1.5573,1.5633,1.5755,1.6122,1.5703,1.5478,1.5468,1.5517,1.5566,1.5624,1.7026,1.7495,1.6786,1.8107,1.8744,1.8554,1.9859,2.0299,2.0036,2.1618,2.2619,0.3918,0.0,0.3946,0.3915,0.3884,0.4101,0.0,0.5165,0.5307,0.6543,0.6574,0.651,0.6878,0.6316,0.5824,0.5935,0.5403,0.5142,0.563,0.0,0.0,0.7387,0.7733,0.7887,0.7887,0.7948,0.7988,0.7988,0.7988,0.7988,0.7988,0.7988,0.7988,0.7988,0.7988,0.7988,0.7988,0.7988,0.7988,0.7988,0.7988,0.7988,0.7988,0.7988,0.7907,0.7814,0.7814,0.7665,0.7428,0.7428,0.7333,0.7152,0.7152,0.7125,0.7098,0.7098,0.7098,0.7098,0.7098,0.7709,0.85,0.85,0.8675,0.9061,0.9923,1.0994,1.1938,1.2237,1.2925,1.3533,1.328,1.3012,1.2717,1.2371,1.2305,1.2305,1.2305,1.2305,1.2305,1.2305,1.2305,1.2586,1.3535,1.3702,1.4027,1.5065,1.519,1.5439,1.6086,1.6138,1.6356,1.6886,1.6946,1.6838,1.659,1.6172,1.6029,1.6218,1.6672,1.718,1.7759,1.9034,1.9643,1.95,1.9814,1.9713,1.9102,2.0376,2.0974,2.0942,2.2277,2.297,0.4181,0.4133,0.4099,0.4099,0.4099,0.4256,0.4874,0.4853,0.4946,0.5823,0.0,0.5989,0.6296,0.5921,0.5624,0.5773,0.5393,0.0,0.0,0.0,0.0,0.757,0.7862,0.7988,0.0,0.7988,0.7988,0.7988,0.7988,0.7988,0.7988,0.7988,0.7988,0.7988,0.7988,0.7988,0.7988,0.7988,0.7988,0.7988,0.7988,0.7988,0.7988,0.7921,0.7855,0.7712,0.7638,0.7475,0.7265,0.7265,0.7217,0.7098,0.7098,0.7098,0.7098,0.7098,0.7098,0.7098,0.7098,0.7885,0.8973,0.9497,1.0009,1.0572,1.1166,1.2206,1.3124,1.3124,1.3487,1.3748,1.332,1.308,1.2891,1.2412,1.2305,1.2305,1.2305,1.2305,1.2305,1.2305,1.2659,1.3244,1.4207,1.4728,1.5367,1.6332,1.6472,1.668,1.7182,1.7251,1.7347,1.7628,1.7676,1.75,1.707,1.7156,1.7216,1.7181,1.7489,1.8024,1.8818,1.9854,2.0567,2.0905,2.1149,2.087,2.0079,2.1428,2.1874,2.1541,2.2614,2.3095,0.4329,0.4267,0.4187,0.414,0.414,0.4282,0.4666,0.0,0.0,0.0,0.0,0.0,0.5453,0.5414,0.0,0.0,0.0,0.0,0.6265,0.6975,0.7428,0.7584,0.7862,0.0,0.7988,0.7988,0.7988,0.7988,0.7988,0.7988,0.7988,0.7988,0.7988,0.7988,0.7988,0.7988,0.7988,0.7988,0.7988,0.7988,0.7988,0.7975,0.7948,0.7868,0.7719,0.7556,0.7428,0.0,0.7098,0.7098,0.7098,0.7098,0.7098,0.7098,0.7098,0.7098,0.7098,0.7143,0.7533,0.8193,0.9104,1.0443,1.1509,1.2279,1.2279,1.3154,1.4082,1.4082,1.4082,1.3961,1.3414,1.328,1.312,1.2518,1.2371,1.2358,1.2318,1.2305,1.2305,1.2305,1.3062,1.4027,1.5029,1.5965,1.6922,1.7872,1.8008,1.8008,1.8008,1.8008,1.8008,1.8008,1.8008,1.7871,1.75,1.8238,1.8617,1.8403,1.8441,1.8907,1.9838,2.0487,2.1121,2.1744,2.2196,2.207,2.1308,2.2515,2.2763,2.2094,2.2793,2.3145,0.4,0.4122,0.4133,0.3927,0.3961,0.405,0.4122,0.4126,0.0,0.0,0.0,0.0,0.0,0.5464,0.5465,0.0,0.0,0.6027,0.0,0.0,0.7428,0.7584,0.0,0.7988,0.7988,0.7988,0.7988,0.7988,0.7988,0.7988,0.7988,0.7988,0.7988,0.7988,0.7988,0.7988,0.7988,0.7988,0.7988,0.7988,0.7988,0.7921,0.7848,0.7821,0.7665,0.7453,0.0,0.7285,0.7098,0.7098,0.7098,0.7098,0.7098,0.7098,0.7098,0.7098,0.7098,0.7401,0.9357,0.9531,0.9235,1.1338,1.2151,1.2279,1.2279,1.3154,1.4082,1.4082,1.4082,1.4015,1.3626,1.3533,1.3387,1.2864,1.2717,1.265,1.2358,1.2305,1.2305,1.2305,1.3062,1.4027,1.5029,1.5965,1.6922,1.7872,1.8008,1.8008,1.8008,1.8008,1.8008,1.8008,1.8008,1.7988,1.791,1.8675,1.9489,2.0144,2.0542,2.1254,2.2461,2.2635,2.2725,2.2844,2.2945,2.291,2.279,2.2985,2.3035,2.2914,2.3035,2.3371,0.4764,0.4646,0.4491,0.41,0.4151,0.426,0.426,0.4199,0.0,0.0,0.0,0.0,0.0,0.0,0.5556,0.5734,0.0,0.6491,0.6783,0.7143,0.7428,0.0,0.0,0.7901,0.7982,0.7988,0.7988,0.7988,0.7988,0.7955,0.7923,0.7916,0.7916,0.7916,0.7916,0.7907,0.7988,0.7988,0.7988,0.7988,0.7988,0.7907,0.7807,0.7733,0.7577,0.7412,0.0,0.7204,0.7098,0.7098,0.7098,0.7098,0.7098,0.7098,0.7098,0.7098,0.7098,0.7445,0.9783,1.0269,1.0183,1.2516,1.3294,1.3294,1.3294,1.3646,1.4082,1.4082,1.4082,1.4015,1.368,1.36,1.3493,1.3106,1.3038,1.2906,1.265,1.2583,1.2679,1.298,1.4018,1.5061,1.5824,1.6932,1.7758,1.7979,1.8008,1.8008,1.8008,1.8008,1.8008,1.8008,1.8008,1.8008,1.8008,1.9243,2.0365,2.1227,2.1885,2.2491,2.3065,2.3095,2.3095,2.3095,2.3095,2.3095,2.3095,2.3095,2.3095,2.312,2.3421,2.3753,0.5398,0.5011,0.4661,0.4339,0.4382,0.4518,0.4621,0.4511,0.4429,0.0,0.0,0.0,0.0,0.5162,0.0,0.6306,0.658,0.6803,0.6916,0.7204,0.7414,0.7536,0.7672,0.7807,0.7874,0.7887,0.7887,0.7887,0.7887,0.7882,0.7767,0.776,0.776,0.776,0.776,0.7821,0.7887,0.7921,0.7955,0.7988,0.7988,0.7894,0.776,0.7651,0.7495,0.7312,0.7146,0.7098,0.7098,0.7098,0.7098,0.7098,0.7098,0.7098,0.7098,0.7098,0.7098,0.7445,0.9783,1.0605,1.1004,1.3349,1.4082,1.4082,1.4082,1.4082,1.4082,1.4082,1.4082,1.4041,1.376,1.3706,1.364,1.3347,1.3267,1.3227,1.2958,1.2891,1.3078,1.38,1.5009,1.61,1.6794,1.7937,1.8637,1.8359,1.8301,1.8301,1.8301,1.8301,1.8301,1.8301,1.8301,1.8434,1.8724,1.9878,2.1037,2.2094,2.2763,2.3095,2.3095,2.3095,2.3095,2.3095,2.3095,2.3095,2.3095,2.3095,2.317,2.3321,2.3778,2.413,0.5249,0.4777,0.4293,0.4436,0.4484,0.46,0.4955,0.4941,0.0,0.5269,0.0,0.0,0.0,0.5467,0.5969,0.6573,0.6803,0.6916,0.7058,0.0,0.7419,0.7433,0.7522,0.7617,0.7631,0.7631,0.7631,0.7631,0.7631,0.7624,0.7617,0.7617,0.7617,0.7617,0.7617,0.7617,0.7631,0.776,0.7896,0.7988,0.7988,0.784,0.7611,0.7604,0.7434,0.7112,0.7098,0.7098,0.7098,0.7098,0.7098,0.7098,0.7098,0.7098,0.7098,0.7098,0.7098,0.7445,0.9783,1.0605,1.1004,1.3349,1.4082,1.4082,1.4082,1.4082,1.4082,1.4082,1.4082,1.4082,1.4055,1.4055,1.3975,1.364,1.3573,1.3493,1.324,1.3173,1.3475,1.451,1.5494,1.6518,1.762,1.8616,1.9238,1.9199,1.9199,1.9199,1.9199,1.9199,1.9199,1.9199,1.9199,1.9682,2.0852,2.0739,2.129,2.2914,2.3065,2.3095,2.3095,2.3095,2.3095,2.3095,2.3095,2.3095,2.3095,2.3095,2.3371,2.3929,2.3979,2.4531,0.5715,0.5449,0.5162,0.4474,0.4538,0.0,0.0,0.5056,0.5157,0.5677,0.5698,0.0,0.0,0.0,0.6322,0.6647,0.6905,0.7038,0.7092,0.7146,0.7265,0.7405,0.7421,0.7495,0.759,0.7597,0.7597,0.7597,0.7597,0.7556,0.7461,0.7455,0.7455,0.7455,0.7455,0.7502,0.7597,0.7651,0.7706,0.7767,0.7855,0.774,0.7455,0.7455,0.7339,0.7098,0.7098,0.7098,0.7098,0.7098,0.7098,0.7098,0.7098,0.7098,0.7098,0.7098,0.7098,0.7312,0.8973,1.0009,1.0864,1.2462,1.3476,1.4082,1.4082,1.4082,1.4082,1.4082,1.4082,1.4082,1.4082,1.4082,1.4055,1.3948,1.3921,1.3841,1.3507,1.344,1.3695,1.4535,1.5731,1.6877,1.7634,1.8826,1.959,1.9336,1.9297,1.9297,1.9297,1.9297,1.9297,1.9297,1.9297,1.9705,2.0735,2.1227,2.1815,2.2662,2.2966,2.3095,2.3095,2.3095,2.3095,2.3095,2.3095,2.3095,2.3095,2.3471,2.3778,2.4029,2.4682,2.5209,0.6114,0.5795,0.5544,0.454,0.0,0.0,0.5191,0.5278,0.5467,0.6057,0.6051,0.5989,0.6139,0.0,0.0,0.0,0.6903,0.7098,0.7098,0.7098,0.7132,0.7285,0.7299,0.7339,0.7441,0.7455,0.7455,0.7455,0.7455,0.7407,0.7305,0.7299,0.7299,0.7299,0.7299,0.7346,0.7455,0.7502,0.7502,0.7455,0.7604,0.7563,0.7419,0.7419,0.7285,0.7098,0.7098,0.7098,0.7098,0.7098,0.7098,0.7098,0.7098,0.7098,0.7098,0.7098,0.7098,0.7268,0.85,0.941,1.0313,1.1809,1.2857,1.3603,1.3997,1.4082,1.4082,1.4082,1.4082,1.4082,1.4082,1.4082,1.4082,1.4082,1.4082,1.4028,1.3828,1.3746,1.3995,1.4805,1.6079,1.7265,1.8008,1.9222,2.0019,1.9727,1.9725,1.9725,1.9725,1.9725,1.9725,1.9725,1.957,1.9985,2.1169,2.1721,2.2354,2.3183,2.3479,2.3471,2.312,2.3095,2.3195,2.3371,2.3371,2.3471,2.3647,2.4054,2.433,2.4531,2.5259,2.5686,0.6281,0.5661,0.5169,0.4641,0.0,0.0,0.5488,0.5698,0.5928,0.6422,0.6402,0.6347,0.6491,0.6518,0.0,0.6675,0.6903,0.7098,0.7098,0.7098,0.7098,0.7098,0.7098,0.7098,0.7098,0.7098,0.7098,0.7098,0.7098,0.7098,0.7098,0.7098,0.7098,0.7098,0.7098,0.7098,0.7098,0.7292,0.7292,0.7098,0.7299,0.7412,0.7412,0.7412,0.7285,0.7098,0.7098,0.7098,0.7098,0.7098,0.7098,0.7098,0.7098,0.7098,0.7098,0.7098,0.7098,0.7268,0.8456,0.8894,0.9279,1.1552,1.2279,1.2547,1.373,1.4082,1.4082,1.4082,1.4082,1.4082,1.4082,1.4082,1.4082,1.4124,1.4137,1.4082,1.4124,1.4137,1.4405,1.5504,1.656,1.7658,1.8798,1.9883,2.0605,2.0605,2.0605,2.0605,2.0605,2.0605,2.0605,2.0605,2.0176,2.0666,2.2501,2.2268,2.2785,2.4646,2.48,2.4299,2.317,2.312,2.3396,2.4004,2.4004,2.428,2.48,2.48,2.5084,2.5586,2.5611,2.5912,0.6336,0.5887,0.0,0.484,0.0,0.0,0.0,0.5854,0.0,0.0,0.6681,0.6709,0.6647,0.0,0.0,0.6851,0.6977,0.7098,0.7098,0.7098,0.7098,0.7098,0.7098,0.7098,0.7098,0.7098,0.7098,0.7098,0.7098,0.7098,0.7098,0.7098,0.7098,0.7098,0.7098,0.7098,0.7098,0.7139,0.7139,0.7098,0.7139,0.721,0.721,0.721,0.7139,0.7098,0.7098,0.7098,0.7098,0.7098,0.7098,0.7098,0.7098,0.7098,0.7098,0.7098,0.7098,0.7143,0.7489,0.8711,1.0226,1.0864,1.2206,1.3646,1.3997,1.4082,1.4082,1.4082,1.4082,1.4082,1.4082,1.4082,1.4292,1.5061,1.4657,1.4292,1.5061,1.4615,1.4208,1.4489,1.6041,1.7415,1.7738,1.9353,2.0605,2.0605,2.0605,2.0605,2.0605,2.0605,2.0605,2.0605,2.0488,2.064,2.1192,2.1702,2.2382,2.3271,2.3994,2.4344,2.4292,2.4299,2.4374,2.4582,2.4582,2.4625,2.48,2.5184,2.5435,2.5611,2.6047,2.6323,0.6397,0.6226,0.0,0.5107,0.5162,0.5597,0.5976,0.0,0.0,0.0,0.6862,0.6856,0.681,0.6822,0.0,0.6883,0.7004,0.7098,0.7098,0.7098,0.7098,0.7098,0.7098,0.7098,0.7098,0.7533,0.7621,0.7143,0.7533,0.7621,0.7136,0.7098,0.7098,0.7098,0.7098,0.7098,0.7098,0.7098,0.7098,0.7098,0.7098,0.7098,0.7098,0.7098,0.7098,0.7098,0.7098,0.7356,0.7797,0.7312,0.7098,0.7143,0.7621,0.7797,0.7885,0.8317,0.8185,0.7797,0.7797,0.8755,1.0009,1.0433,1.1863,1.3464,1.3955,1.4082,1.4082,1.4082,1.4082,1.4082,1.4082,1.4405,1.4768,1.5019,1.4573,1.4292,1.4936,1.4573,1.4082,1.4082,1.5835,1.7293,1.7293,1.9155,2.0605,2.0605,2.0605,2.0605,2.0605,2.0605,2.0605,2.0605,2.0605,2.0741,2.1126,2.1659,2.2472,2.353,2.4167,2.4812,2.5452,2.5059,2.4876,2.5134,2.5134,2.5234,2.5485,2.5787,2.5971,2.5996,2.6323,2.66,0.6481,0.6521,0.0,0.5426,0.5413,0.0,0.6388,0.658,0.6763,0.6997,0.0,0.6869,0.6883,0.6883,0.6889,0.6903,0.7011,0.7098,0.7098,0.7098,0.7098,0.7098,0.7098,0.7098,0.7098,0.8105,0.8281,0.718,0.8105,0.8281,0.7143,0.7098,0.7098,0.7098,0.7098,0.7098,0.7098,0.7098,0.7098,0.7098,0.7098,0.7098,0.7098,0.7098,0.7143,0.7268,0.7143,0.7797,0.8807,0.7709,0.7268,0.7401,0.858,0.9061,0.9192,1.0226,0.9966,0.9061,0.9061,0.9104,0.9366,1.0443,1.1509,1.2674,1.3773,1.4082,1.4082,1.4082,1.4082,1.4082,1.4082,1.481,1.5296,1.4334,1.4166,1.425,1.4377,1.425,1.4124,1.4208,1.5918,1.7334,1.7415,1.9195,2.0605,2.0605,2.0605,2.0605,2.0605,2.0605,2.0605,2.0605,2.0605,2.0934,2.1811,2.1886,2.2691,2.46,2.4814,2.53,2.6302,2.5477,2.5184,2.5661,2.5661,2.5971,2.6499,2.6499,2.6499,2.6499,2.6549,2.6826,0.6313,0.6253,0.0,0.0,0.5806,0.6218,0.6457,0.6538,0.6573,0.6756,0.677,0.6783,0.6862,0.6883,0.6923,0.7031,0.7078,0.7098,0.7098,0.7098,0.7098,0.7098,0.7098,0.7098,0.7098,0.7312,0.7356,0.7143,0.7356,0.7356,0.7098,0.7098,0.7098,0.7098,0.7098,0.7098,0.7098,0.7098,0.7098,0.7098,0.7098,0.7098,0.7098,0.7098,0.7621,0.8456,0.7489,0.7797,0.8886,0.8632,0.85,0.8623,0.9792,1.0226,1.0269,1.0529,1.0443,1.0226,1.0226,1.0821,1.1595,1.1852,1.2729,1.3773,1.3997,1.4082,1.4082,1.4082,1.4082,1.4082,1.4082,1.4292,1.4377,1.4166,1.4727,1.5587,1.6437,1.5311,1.4334,1.5171,1.6396,1.7577,1.8479,1.9726,2.0605,2.0605,2.0605,2.0605,2.0605,2.0605,2.0605,2.0605,2.0605,2.0683,2.0895,2.0895,2.1413,2.2579,2.3379,2.4253,2.53,2.5837,2.6197,2.6298,2.6298,2.6373,2.6499,2.6499,2.6499,2.6499,2.6927,2.7203,0.6322,0.0,0.0,0.5855,0.0,0.632,0.6395,0.6409,0.6429,0.6511,0.66,0.6749,0.6856,0.6883,0.693,0.7071,0.7098,0.7098,0.7098,0.7098,0.7312,0.7885,0.7973,0.7973,0.7973,0.8448,0.8317,0.718,0.8141,0.8273,0.7136,0.7665,0.7709,0.7098,0.7098,0.7098,0.7098,0.7098,0.7098,0.7098,0.7098,0.7098,0.7098,0.7098,0.7753,0.8842,0.7621,0.8097,0.9662,0.9104,0.9235,0.9836,1.095,1.1423,1.1466,1.2035,1.1906,1.1423,1.1423,1.1809,1.2279,1.2279,1.3112,1.4082,1.4082,1.4082,1.4082,1.4082,1.4082,1.4082,1.4082,1.4489,1.4852,1.4852,1.4894,1.5103,1.5628,1.4908,1.4405,1.5504,1.656,1.7658,1.8798,1.9883,2.0605,2.0605,2.0605,2.0605,2.0605,2.0605,2.0605,2.0605,2.0605,2.0605,2.0605,2.0605,2.1011,2.1962,2.2467,2.3452,2.4945,2.5511,2.6025,2.6499,2.6499,2.6499,2.6499,2.6751,2.6876,2.6901,2.7419,2.7821,0.6201,0.0,0.6586,0.59,0.5976,0.0,0.6259,0.6279,0.63,0.63,0.6497,0.6668,0.6824,0.6851,0.6862,0.7031,0.7058,0.7065,0.7092,0.7268,0.7797,0.8763,0.9061,0.9192,0.9192,1.0053,0.9792,0.7834,0.9488,0.9653,0.7533,0.8368,0.8368,0.7143,0.7098,0.7098,0.7098,0.7098,0.7098,0.7098,0.7098,0.7098,0.7098,0.7098,0.7753,0.8842,0.7841,0.8615,1.0529,0.9792,1.0053,1.0994,1.2163,1.2589,1.2717,1.373,1.3464,1.2589,1.2589,1.2589,1.2589,1.2589,1.3294,1.4082,1.4082,1.4082,1.4082,1.4082,1.4082,1.4082,1.4082,1.4768,1.5421,1.5421,1.4741,1.4166,1.4334,1.4377,1.4699,1.5779,1.7009,1.8181,1.9116,2.0001,2.0605,2.0605,2.0605,2.0605,2.0605,2.0605,2.0625,2.0703,2.0684,2.0742,2.082,2.084,2.1173,2.1945,2.2116,2.3063,2.4917,2.517,2.5767,2.6741,2.6675,2.6625,2.6625,2.7203,2.7419,2.7444,2.7996,2.8499,0.5636,0.0,0.5371,0.0,0.5745,0.602,0.0,0.0,0.63,0.0,0.6334,0.6402,0.6545,0.6532,0.6627,0.6869,0.6916,0.6957,0.7078,0.8017,0.8719,0.8886,0.9792,1.0356,1.0356,1.0529,1.0476,1.0173,1.0443,1.0053,0.8711,0.8807,0.8368,0.7143,0.7098,0.7098,0.7098,0.7098,0.7098,0.7098,0.7098,0.7098,0.7098,0.7098,0.7753,0.8886,0.8719,0.9401,1.0649,1.1509,1.1938,1.2194,1.3379,1.387,1.387,1.4039,1.3997,1.387,1.387,1.387,1.387,1.387,1.3955,1.4082,1.4082,1.4082,1.4082,1.4082,1.4082,1.4082,1.4082,1.4208,1.4334,1.4334,1.4208,1.4377,1.5296,1.5504,1.5779,1.6887,1.874,2.0196,2.0372,2.0527,2.0605,2.0605,2.0605,2.0605,2.0605,2.0605,2.0723,2.1073,2.1112,2.1289,2.168,2.176,2.1781,2.1904,2.2695,2.3688,2.4957,2.582,2.6782,2.7896,2.7419,2.7168,2.7168,2.772,2.7996,2.8021,2.8549,2.8813,0.5807,0.5538,0.5387,0.0,0.5576,0.5827,0.5952,0.0,0.6159,0.6279,0.63,0.634,0.6484,0.6511,0.6546,0.6763,0.7259,0.7724,0.7978,0.894,0.9919,1.0725,1.1252,1.1552,1.1552,1.1552,1.1295,1.0659,1.1166,1.0778,0.8973,0.9497,0.9008,0.7143,0.7098,0.7098,0.7098,0.7098,0.7098,0.7098,0.7098,0.7098,0.7098,0.7098,0.7401,0.7929,0.8588,0.954,1.0692,1.1809,1.2717,1.3379,1.3913,1.4082,1.4082,1.4082,1.4082,1.4082,1.4082,1.4082,1.4082,1.4082,1.4082,1.4082,1.4082,1.4082,1.4082,1.4082,1.4082,1.4082,1.4082,1.4082,1.4082,1.4082,1.4082,1.4405,1.5462,1.5696,1.6232,1.79,1.9511,2.0605,2.0605,2.0605,2.0605,2.0605,2.0781,2.0937,2.0937,2.1152,2.1387,2.1582,2.1602,2.168,2.1875,2.1894,2.1894,2.1894,2.2308,2.3283,2.4926,2.5431,2.6448,2.806,2.7871,2.7745,2.7745,2.8298,2.8574,2.8537,2.9151,2.9402,0.5773,0.5571,0.5352,0.5213,0.5365,0.5589,0.0,0.0,0.6017,0.0,0.6238,0.6286,0.6429,0.6457,0.6504,0.662,0.7486,0.8237,0.8556,0.9702,1.0929,1.1985,1.2344,1.2547,1.2608,1.262,1.2306,1.1563,1.2291,1.1863,0.9879,1.0313,0.9662,0.7621,0.7268,0.7098,0.7098,0.7098,0.7098,0.7098,0.7401,0.7401,0.7098,0.7401,0.7577,0.7621,0.8798,0.9792,1.0692,1.2163,1.3294,1.4082,1.4082,1.4082,1.4082,1.4082,1.4082,1.4082,1.4082,1.4082,1.4082,1.4082,1.4082,1.4082,1.4082,1.4082,1.4082,1.4082,1.4082,1.4082,1.4082,1.4082,1.4082,1.4082,1.4082,1.4447,1.582,1.6314,1.7131,1.9036,2.0135,2.0742,2.0742,2.086,2.0938,2.0938,2.1191,2.1366,2.1366,2.168,2.1934,2.2031,2.2051,2.209,2.2187,2.2207,2.2207,2.2207,2.2207,2.3165,2.5306,2.5363,2.6364,2.8487,2.8524,2.8473,2.8323,2.8875,2.9151,2.9113,2.9603,2.9804,0.5113,0.4947,0.4702,0.4566,0.4975,0.0,0.0,0.0,0.0,0.5973,0.6006,0.6091,0.6279,0.6313,0.6361,0.6504,0.735,0.8045,0.8197,1.009,1.1473,1.1525,1.251,1.324,1.3518,1.3544,1.365,1.3886,1.3955,1.3476,1.2194,1.1166,1.0053,0.8842,0.7709,0.7098,0.7098,0.7098,0.7098,0.7098,0.8281,0.8193,0.7143,0.8281,0.8807,0.8886,1.0009,1.0572,1.0778,1.3082,1.4039,1.4082,1.4082,1.4082,1.4082,1.4082,1.4082,1.4082,1.4082,1.4082,1.4082,1.4082,1.4082,1.4082,1.4082,1.4082,1.4082,1.4082,1.4082,1.4082,1.4082,1.4082,1.4082,1.4082,1.4082,1.4657,1.6764,1.806,1.9155,2.0274,2.0859,2.1171,2.1171,2.1543,2.1816,2.1816,2.1836,2.1855,2.1855,2.1875,2.2031,2.2441,2.248,2.2594,2.3003,2.3042,2.3042,2.3042,2.3042,2.4084,2.6311,2.6393,2.7475,2.9665,2.9704,2.9428,2.8838,2.9478,2.9754,2.9754,2.9779,2.9804,0.4954,0.5264,0.0,0.5259,0.5331,0.5616,0.5969,0.5855,0.5705,0.5854,0.5925,0.6013,0.6105,0.6231,0.6546,0.7212,0.8181,0.9135,0.9982,1.1402,1.2414,1.2566,1.2962,1.3253,1.332,1.3493,1.3653,1.376,1.3975,1.3561,1.2376,1.1895,1.0821,0.8973,0.85,0.7885,0.7098,0.7098,0.7489,0.8281,0.8675,0.9061,0.9357,0.9792,1.0009,1.0053,1.1209,1.1681,1.1809,1.3434,1.4082,1.4082,1.4082,1.4082,1.4082,1.4082,1.4082,1.4082,1.4082,1.4082,1.4082,1.4082,1.4082,1.4082,1.4082,1.4082,1.4082,1.4082,1.4082,1.4082,1.4082,1.4229,1.4416,1.4646,1.5792,1.7052,1.7858,1.9508,2.096,2.1366,2.1543,2.166,2.166,2.1777,2.1894,2.1894,2.2109,2.2285,2.2285,2.2519,2.2754,2.2847,2.2867,2.2925,2.3081,2.3101,2.3101,2.3101,2.3101,2.4102,2.64,2.6524,2.7545,2.974,2.9804,2.9679,2.9478,2.9679,2.9804,2.9804,2.9804,2.9804,0.5047,0.5524,0.0,0.0,0.0,0.5848,0.6256,0.0,0.5681,0.5679,0.5772,0.5895,0.5905,0.6341,0.6958,0.7693,0.8912,1.01,1.0953,1.198,1.2717,1.2879,1.2906,1.2946,1.3039,1.3227,1.3387,1.3453,1.3681,0.0,1.2752,1.2373,1.1347,0.9531,0.9104,0.85,0.7709,0.7709,0.8105,0.8894,0.9279,0.9879,1.0616,1.0994,1.1166,1.1209,1.198,1.2279,1.2376,1.3603,1.4082,1.4082,1.4082,1.4082,1.4082,1.4082,1.4082,1.4082,1.4082,1.4082,1.4082,1.4082,1.4082,1.4082,1.4082,1.4082,1.4082,1.4082,1.4162,1.4314,1.4725,1.5033,1.5311,1.5564,1.6816,1.8109,1.8562,2.0365,2.1894,2.1894,2.1992,2.209,2.209,2.2207,2.2305,2.2305,2.2539,2.2672,2.2672,2.2925,2.3101,2.3101,2.3101,2.3101,2.3101,2.3101,2.3101,2.3101,2.3101,2.4102,2.64,2.6524,2.7545,2.974,2.9804,2.9804,2.9804,2.9804,2.9804,2.9804,2.9804,2.9804,0.0,0.0,0.0,0.0,0.0,0.0,0.6166,0.0,0.5708,0.5454,0.5508,0.5623,0.5766,0.671,0.7587,0.7774,0.9508,1.082,1.082,1.1687,1.2305,1.2305,1.2305,1.2412,1.2744,1.2784,1.2904,1.3173,1.3213,1.3293,1.3573,1.2494,1.1508,1.0671,0.9531,0.893,0.8877,0.893,0.8938,0.8973,1.0096,1.0649,1.0735,1.1852,1.2364,1.2364,1.2364,1.2364,1.2462,1.3603,1.4082,1.4082,1.4082,1.4082,1.4082,1.4082,1.4082,1.4082,1.4082,1.4082,1.4082,1.4082,1.4082,1.4082,1.4082,1.4082,1.4082,1.4095,1.4295,1.4856,1.6076,1.6616,1.6814,1.6829,1.7026,1.7627,1.8835,2.0582,2.1914,2.1914,2.2246,2.2539,2.2539,2.2828,2.3101,2.3101,2.3101,2.3101,2.3101,2.3101,2.3101,2.3101,2.3101,2.3101,2.3101,2.3101,2.3101,2.3101,2.3101,2.4102,2.6359,2.6483,2.7504,2.9702,2.9779,2.9804,2.9804,2.9804,2.9804,2.9804,2.9804,2.9804,0.578,0.0,0.0,0.0,0.0,0.0,0.0,0.0,0.0,0.5202,0.523,0.5338,0.5603,0.6576,0.7592,0.8267,0.9742,1.1044,1.1774,1.2107,1.2305,1.2305,1.2305,1.2331,1.2412,1.2663,1.2824,0.0,1.308,1.324,1.332,1.2396,1.1681,1.125,1.0529,0.9641,0.8563,0.9588,1.0139,1.0139,1.1295,1.2291,1.3124,1.3476,1.3603,1.3603,1.3603,1.3603,1.3646,1.3955,1.4082,1.4082,1.4082,1.4082,1.4082,1.4082,1.4082,1.4082,1.4082,1.4082,1.4082,1.4082,1.4082,1.4082,1.4082,1.4082,1.4135,1.4335,1.5076,1.6165,1.7914,1.7708,1.7131,1.7386,1.8193,1.8985,1.9303,2.1155,2.275,2.275,2.2847,2.2925,2.2925,2.3023,2.3101,2.3101,2.3101,2.3101,2.3101,2.3101,2.3101,2.3101,2.3101,2.3101,2.3101,2.3101,2.3101,2.3101,2.3101,2.3757,2.521,2.6047,2.7139,2.8569,2.9365,2.9804,2.9804,2.9804,2.9804,2.9804,2.9804,2.9804,0.6601,0.679,0.0,0.0,0.0,0.0,0.6484,0.5987,0.0,0.0,0.4945,0.502,0.5264,0.6605,0.783,0.8341,0.9915,1.131,1.2032,1.2225,1.2305,1.2305,1.2305,1.2305,1.2305,1.2489,1.2596,1.2596,1.2732,1.2879,1.3013,1.2228,1.1885,1.2181,1.14,1.0564,0.9695,1.0658,1.1155,1.1155,1.1935,1.2942,1.4082,1.4082,1.4082,1.4082,1.4082,1.4082,1.4082,1.4082,1.4082,1.4082,1.4082,1.4082,1.4082,1.4082,1.4082,1.4082,1.4082,1.4082,1.4082,1.4082,1.4082,1.4082,1.4082,1.4175,1.4309,1.4469,1.5922,1.7834,1.955,1.948,1.8946,1.9174,1.8948,1.8993,2.0025,2.0944,2.1917,2.2906,2.3101,2.3101,2.3101,2.3101,2.3101,2.3101,2.3101,2.3101,2.3101,2.3101,2.3101,2.3101,2.3101,2.3101,2.3101,2.3101,2.3101,2.3101,2.3101,2.3584,2.4745,2.588,2.6994,2.8084,2.9248,2.9804,2.9804,2.9804,2.9804,2.9804,2.9804,2.9804,0.7558,0.7702,0.7933,0.827,0.7912,0.0,0.6676,0.6202,0.5638,0.0,0.464,0.4694,0.4863,0.6559,0.7973,0.81,0.9829,1.1333,1.177,1.2037,1.2211,1.2251,1.2251,1.2265,1.2305,1.2305,1.2305,1.2305,1.2305,1.2412,1.2717,1.2062,1.208,1.3067,1.2184,1.1598,1.1443,1.1887,1.2029,1.1905,1.2289,1.3069,1.4082,1.4082,1.4082,1.4082,1.4082,1.4082,1.4082,1.4082,1.4082,1.4082,1.4082,1.4082,1.4082,1.4082,1.4082,1.4082,1.4082,1.4082,1.4082,1.4082,1.4082,1.4082,1.4082,1.4269,1.4482,1.4723,1.6771,1.9307,2.0882,2.1194,2.1105,2.1257,1.9679,1.8688,2.0836,2.0567,2.0539,2.2687,2.3101,2.3101,2.3101,2.3101,2.3101,2.3101,2.3101,2.3101,2.3101,2.3101,2.3101,2.3101,2.3101,2.3101,2.3101,2.3101,2.3101,2.3101,2.3212,2.3757,2.4745,2.6005,2.7116,2.8084,2.9248,2.9804,2.9804,2.9804,2.9804,2.9804,2.9804,2.9804,0.7939,0.7704,0.7648,0.7935,0.7756,0.0,0.6316,0.6202,0.5894,0.0,0.4308,0.4388,0.4687,0.5563,0.6541,0.733,0.8722,1.0147,1.1333,1.1522,1.169,1.1966,1.1993,1.2051,1.2278,1.2305,1.2305,1.2305,1.2305,1.2331,1.2385,1.2475,1.2528,1.2492,1.2713,1.228,1.1097,1.2544,1.2795,1.1905,1.3168,1.387,1.4082,1.4082,1.4082,1.4082,1.4082,1.4082,1.4082,1.4082,1.4082,1.4082,1.4082,1.4082,1.4082,1.4082,1.4082,1.4082,1.4082,1.4082,1.4082,1.4082,1.4082,1.4082,1.4082,1.4122,1.4469,1.5922,1.7116,1.8517,2.0729,2.0567,2.007,2.1078,2.0926,2.0702,2.1194,2.1898,2.2555,2.2994,2.3101,2.3101,2.3101,2.3101,2.3101,2.3101,2.3101,2.3101,2.3101,2.3101,2.3101,2.3101,2.3101,2.3101,2.3101,2.3101,2.3101,2.3101,2.3953,2.4575,2.4787,2.6726,2.7884,2.8084,2.9248,2.9804,2.9804,2.9804,2.9804,2.9804,2.9804,2.9804,0.8498,0.8267,0.8178,0.8328,0.0,0.0,0.0,0.6798,0.6374,0.5112,0.4748,0.4614,0.4484,0.0,0.6089,0.6917,0.8114,0.9315,1.0388,1.1029,1.1442,1.1623,1.165,1.1703,1.185,1.1997,1.2144,1.2291,1.2305,1.2305,1.2305,1.2438,1.2452,1.2305,1.2599,1.2412,1.1677,1.2805,1.3091,1.2553,1.3618,1.4082,1.4082,1.4082,1.4082,1.4082,1.4082,1.4082,1.4082,1.4082,1.4082,1.4082,1.4082,1.4082,1.4082,1.4082,1.4082,1.4082,1.4082,1.4082,1.4082,1.4082,1.4082,1.4082,1.4082,1.4295,1.4909,1.6522,1.7341,1.8149,1.9935,2.0387,2.0567,2.115,2.1302,2.148,2.2076,2.2208,2.2403,2.2994,2.3101,2.3101,2.3101,2.3101,2.3101,2.3101,2.3101,2.3101,2.3101,2.3101,2.3101,2.3101,2.3101,2.3101,2.3101,2.3101,2.3101,2.3101,2.3627,2.4211,2.4787,2.6397,2.7827,2.8949,2.9507,2.9804,2.9804,2.9804,2.9804,2.9804,2.9804,2.9804,0.9138,0.9018,0.9031,0.0,0.0,0.8554,0.0,0.0,0.0,0.5871,0.5379,0.0,0.0,0.0,0.0,0.0,0.0,0.0,0.0,1.0461,0.0,1.1136,1.1223,1.1276,1.1329,1.1557,1.1859,1.2118,1.2131,1.2158,1.2211,1.2278,1.2305,1.2305,1.2305,1.2305,1.2305,1.2906,1.3213,1.3213,1.3801,1.4082,1.4082,1.4082,1.4082,1.4082,1.4082,1.4082,1.4082,1.4082,1.4082,1.4082,1.4082,1.4082,1.4082,1.4082,1.4082,1.4082,1.4082,1.4082,1.4082,1.4082,1.4082,1.4095,1.4148,1.4549,1.5242,1.65,1.7094,1.7638,1.881,2.0042,2.1016,2.1239,2.148,2.1898,2.2906,2.2359,2.1943,2.2906,2.3101,2.3101,2.3101,2.3101,2.3101,2.3101,2.3101,2.3101,2.3101,2.3101,2.3101,2.3101,2.3101,2.3101,2.3101,2.3101,2.3101,2.3101,2.3299,2.3844,2.4745,2.6088,2.7747,2.974,2.9804,2.9804,2.9804,2.9804,2.9804,2.9804,2.9804,2.9804,0.0,0.0,0.0,0.0,0.9524,0.0,0.0,0.0,0.7719,0.6382,0.0,0.0,0.0,0.0,0.0,0.0,0.0,0.0,0.9203,0.9633,0.998,1.0234,1.0501,1.0787,1.1022,1.1076,1.1209,1.1469,1.1495,1.1637,1.194,1.2158,1.2305,1.2305,1.2305,1.2305,1.2305,1.2906,1.3213,1.3213,1.3801,1.4082,1.4082,1.4082,1.4082,1.4082,1.4082,1.4082,1.4082,1.4082,1.4082,1.4082,1.4082,1.4082,1.4082,1.4082,1.4082,1.4082,1.4082,1.4082,1.4082,1.4082,1.4082,1.4135,1.4389,1.4696,1.5062,1.5494,1.5778,1.6292,1.7591,1.8826,1.998,2.1078,2.212,2.295,2.3057,2.2994,2.295,2.3057,2.3101,2.3101,2.3101,2.3101,2.3101,2.3101,2.3101,2.3101,2.3101,2.3101,2.3101,2.3101,2.3101,2.3101,2.3101,2.3101,2.3101,2.3101,2.4039,2.466,2.4787,2.6808,2.853,2.9804,2.9804,2.9804,2.9804,2.9804,2.9804,2.9804,2.9804,2.9804,0.0,0.0,0.0,0.0,0.0,0.0,0.8693,0.0,0.8257,0.0,0.0,0.0,0.0,0.0,0.0,0.0,0.7477,0.0,0.0,0.0,0.9193,0.0,0.0,0.0,1.0461,1.0488,1.0675,1.1142,1.1169,1.1383,1.1873,1.202,1.2131,1.2305,1.2305,1.2305,1.2305,1.2732,1.3026,1.3213,1.3586,1.3921,1.4082,1.4082,1.4082,1.4082,1.4082,1.4082,1.4082,1.4082,1.4082,1.4082,1.4082,1.4082,1.4082,1.4082,1.4082,1.4082,1.4082,1.4082,1.4122,1.4282,1.4456,1.4616,1.4736,1.4977,1.5413,1.6193,1.6137,1.6244,1.8226,1.9131,1.9815,2.1016,2.2208,2.3101,2.3101,2.3101,2.3101,2.3101,2.3101,2.3101,2.3101,2.3101,2.3101,2.3101,2.3101,2.3101,2.3101,2.3101,2.3101,2.3101,2.3101,2.3101,2.3101,2.3101,2.3101,2.3101,2.4168,2.5083,2.5755,2.7279,2.8648,2.9779,2.9804,2.9804,2.9804,2.9804,2.9804,2.9804,2.9804,2.9804,1.0238,0.0,0.0,0.0,0.0,0.0,0.0,0.0,0.0,0.0,0.0,0.0,0.0,0.0,0.0,0.0,0.0,0.7623,0.0,0.0,0.0,0.0,0.0,0.0,0.0,0.9897,1.0057,1.0595,1.0635,1.0921,1.1511,1.1698,1.1877,1.2171,1.2265,1.2305,1.2305,1.2636,1.2945,1.3213,1.3467,1.3801,1.4082,1.4082,1.4082,1.4082,1.4082,1.4082,1.4082,1.4082,1.4082,1.4082,1.4082,1.4082,1.4082,1.4082,1.4082,1.4082,1.4082,1.4135,1.4255,1.4549,1.479,1.5022,1.5102,1.549,1.6127,1.7053,1.706,1.725,1.9039,1.977,2.0206,2.1105,2.2208,2.3101,2.3101,2.3101,2.3101,2.3101,2.3101,2.3101,2.3101,2.3101,2.3101,2.3101,2.3101,2.3101,2.3101,2.3101,2.3101,2.3101,2.3101,2.3101,2.3101,2.3101,2.3101,2.3101,2.3887,2.483,2.5964,2.7075,2.8187,2.9326,2.9624,2.9804,2.9804,2.9804,2.9804,2.9804,2.9804,2.9804,0.0,0.0,0.0,0.9967,0.0,0.0,0.0,0.0,0.9499,0.0,0.0,0.0,0.0,0.0,0.0,0.0,0.0,0.0,0.0,0.0,0.0,0.0,0.0,0.0,0.0,0.9404,0.9364,0.0,0.9755,1.001,1.06,1.1129,1.1583,1.1913,1.2158,1.2305,1.2305,1.2636,1.2945,1.3213,1.3467,1.3801,1.4082,1.4082,1.4082,1.4082,1.4082,1.4082,1.4082,1.4082,1.4082,1.4082,1.4082,1.4082,1.4082,1.4082,1.4082,1.4082,1.4082,1.4269,1.4549,1.4901,1.4995,1.5062,1.5297,1.6222,1.7236,1.7579,1.8488,1.9405,1.9497,2.0342,2.1239,2.1284,2.2208,2.3101,2.3101,2.3101,2.3101,2.3101,2.3101,2.3101,2.3101,2.3101,2.3101,2.3101,2.3101,2.3101,2.3101,2.3101,2.3101,2.3101,2.3101,2.3101,2.3101,2.3101,2.3101,2.3101,2.3144,2.3671,2.4787,2.5964,2.7035,2.8124,2.9248,2.9804,2.9804,2.9804,2.9804,2.9804,2.9804,2.9804,0.0,0.0,1.206,1.0848,0.0,0.0,0.0,0.0,0.0,0.0,0.0,0.0,0.0,0.0,0.0,0.0,0.0,0.0,0.0,0.0,0.0,0.0,0.0,0.0,0.0,0.0,0.0,0.9337,0.9579,0.0,1.0808,1.1223,1.1557,1.1899,1.2144,1.2305,1.2305,1.2398,1.2705,1.3213,1.3267,1.3614,1.4082,1.4082,1.4082,1.4082,1.4082,1.4082,1.4082,1.4082,1.4082,1.4082,1.4082,1.4082,1.4082,1.4082,1.4082,1.4122,1.4309,1.5196,1.6328,1.6443,1.7161,1.7993,1.8102,1.8407,1.8924,1.981,1.9815,1.9861,2.1454,2.1569,2.1525,2.2296,2.2818,2.3101,2.3101,2.2492,2.1898,2.1898,2.1898,2.1898,2.1898,2.258,2.3101,2.3101,2.3101,2.3101,2.3101,2.3101,2.3101,2.3101,2.3101,2.3101,2.3101,2.3101,2.3101,2.3101,2.3101,2.393,2.5839,2.6318,2.7342,2.9184,2.9585,2.9804,2.9804,2.9804,2.9804,2.9804,2.9804,2.9804,1.2492,1.2636,0.0,1.1578,1.1303,0.0,0.9953,0.0,1.0167,0.0,0.0,0.0,0.0,0.0,0.0,0.0,0.0,0.0,0.0,0.7678,0.0,0.0,0.0,0.0,0.0,0.0,0.8631,0.9031,0.9072,0.0,0.0,1.0902,1.1303,1.1703,1.2091,1.2305,1.2305,1.2412,1.2705,1.3213,1.332,1.3614,1.4082,1.4082,1.4082,1.4082,1.4082,1.4082,1.4082,1.4082,1.4082,1.4082,1.4082,1.4334,1.4629,1.4372,1.4309,1.4529,1.5237,1.6195,1.7311,1.7841,1.871,1.9497,1.9497,1.9497,1.977,2.0971,2.0747,2.0584,2.258,2.2536,2.212,2.2906,2.3101,2.3101,2.3101,2.2164,2.1302,2.1302,2.1302,2.1302,2.1302,2.2315,2.3101,2.3101,2.3101,2.3101,2.3101,2.3101,2.3101,2.3101,2.3101,2.3101,2.3101,2.3101,2.3101,2.3101,2.3101,2.393,2.5797,2.6276,2.7342,2.9145,2.9585,2.9804,2.9804,2.9804,2.9804,2.9804,2.9804,2.9804]}]]